     2.10           OBSERVATION DATA    G (GPS)             RINEX VERSION / TYPE
teqc 2000Jul20 Karen Wendt 20040728 22:33:30UTC             PGM / RUN BY / DATE
Linux 2.0.36|Pentium II|gcc -static|Linux|486/DX+           COMMENT
teqc 2000Jul20 Karen Wendt 20040728 22:33:30UTC             COMMENT
BIT 2 OF LLI FLAGS DATA COLLECTED UNDER A/S CONDITION       COMMENT
01ne Unknown                                                MARKER NAME
JMS USGS                                                    OBSERVER / AGENCY
LP00108.707 ASHTECH Z-XII3 CD00                             REC # / TYPE / VERS
CR519993706 ASH701945B_M NONE                               ANT # / TYPE
 -2695773.0000 -4045946.0000  4115678.0000                  APPROX POSITION XYZ
        0.5014        0.0000        0.0000                  ANTENNA: DELTA H/E/N
     1     1                                                WAVELENGTH FACT L1/2
     5    C1    L1    L2    P1    P2                        # / TYPES OF OBSERV
    30.0000                                                 INTERVAL
                                                            COMMENT
National Earthquake Hazard Reduction Program                COMMENT
Crustal Strain Project                                      COMMENT
345 Middlefield Road, MS/977                                COMMENT
U.S. Geological Survey, Menlo Park, California 94025        COMMENT
Contact: kwendt@usgs.gov (Ph: 650-329-4866)                 COMMENT
Antenna height is vertical to base of antenna               COMMENT
                                                            COMMENT
SNR is mapped to RINEX snr flag value [1-9]                 COMMENT
L1: 1 -> 1; 90 -> 5; 210 -> 9                               COMMENT
L2: 1 -> 1; 150 -> 5; 250 -> 9                              COMMENT
  2004     7    20     0     0   30.0000000     GPS         TIME OF FIRST OBS
                                                            END OF HEADER
 04  7 20  0  0 30.0000000  0  7G 3G27G20G16G13G 8G 1
  23856061.119    -4579682.53449  -3416798.87645  23856060.723    23856069.498
  21943003.500   -11951282.01749  -9301184.11247  21943002.975    21943009.590
  23441992.599    -8076413.21949  -5421724.55945  23441991.526    23441999.732
  22873155.928   -10986871.44849  -8545433.02246  22873155.204    22873161.486
  20455531.253   -23589801.73149 -17874100.07448  20455531.150    20455535.749
  23933871.165    -4471193.79749  -3475076.00645  23933870.526    23933879.900
  21672347.360   -12008640.63249  -9340121.18947  21672346.826    21672353.961
 04  7 20  0  1  0.0000000  0  7G 3G27G20G16G13G 8G 1
  23844606.809    -4639874.87249  -3463701.91745  23844606.452    23844615.291
  21933622.564   -12000578.69449  -9339597.07647  21933622.079    21933628.648
  23463104.228    -7965470.66049  -5335275.97745  23463103.172    23463111.461
  22888131.278   -10908175.01849  -8484111.18946  22888130.676    22888136.993
  20449873.758   -23619531.96649 -17897266.48248  20449873.697    20449878.258
  23917332.929    -4558102.81249  -3542797.21445  23917332.316    23917341.597
  21683441.796   -11950339.61149  -9294691.87247  21683441.186    21683448.273
 04  7 20  0  1 30.0000000  0  7G 3G27G20G16G13G 8G 1
  23833213.722    -4699745.69949  -3510354.44645  23833213.270    23833222.163
  21924278.665   -12049680.96049  -9377858.55947  21924278.178    21924284.809
  23484242.810    -7854385.91649  -5248716.59245  23484241.758    23484250.307
  22903177.074   -10829108.78349  -8422501.18646  22903176.541    22903182.859
  20444280.083   -23648926.93549 -17920171.65148  20444279.990    20444284.574
  23900820.453    -4644876.49149  -3610412.95445  23900819.827    23900828.884
  21694591.686   -11891746.77649  -9249035.16647  21694591.117    21694598.085
 04  7 20  0  2  0.0000000  0  7G 3G27G20G16G13G 8G 1
  23821882.444    -4759292.34149  -3556754.37645  23821881.945    23821890.622
  21914971.663   -12098589.47649  -9415969.07447  21914971.161    21914977.828
  23505407.931    -7743162.16749  -5162048.87645  23505406.925    23505415.639
  22918292.766   -10749675.88849  -8360605.47046  22918292.266    22918298.560
  20438750.390   -23677985.55649 -17942814.72348  20438750.308    20438754.867
  23884333.586    -4731514.50549  -3677922.98045  23884332.940    23884342.035
  21705796.884   -11832862.58149  -9203151.43247  21705796.410    21705803.394
 04  7 20  0  2 30.0000000  0  7G 3G27G20G16G13G 8G 1
  23810613.280    -4818512.23049  -3602899.68345  23810612.576    23810621.438
  21905701.527   -12147304.07349  -9453928.47147  21905701.069    21905707.750
  23526599.162    -7631801.89849  -5075274.78145  23526598.163    23526606.953
  22933477.869   -10669878.69849  -8298425.89446  22933477.263    22933483.513
  20433285.068   -23706706.09649 -17965194.35048  20433284.971    20433289.508
  23867872.530    -4818016.62449  -3745327.15345  23867871.907    23867881.120
  21717057.739   -11773687.03849  -9157040.67047  21717057.184    21717064.202
 04  7 20  0  3  0.0000000  0  7G 3G27G20G16G13G 8G 1
  23799406.895    -4877401.90549  -3648787.69345  23799406.154    23799415.056
  21896468.316   -12195824.72249  -9491736.74647  21896467.831    21896474.476
  23547815.927    -7520307.60549  -4988396.22845  23547815.166    23547823.822
  22948731.755   -10589719.53549  -8235964.22946  22948731.094    22948737.296
  20427884.262   -23735087.16349 -17987309.44748  20427884.210    20427888.694
  23851437.503    -4904382.01249  -3812624.73045  23851436.944    23851446.039
  21728374.035   -11714219.88349  -9110702.67047  21728373.490    21728380.481
 04  7 20  0  3 30.0000000  0  7G 3G27G20G16G13G 8G 1
  23788263.571    -4935958.79549  -3694416.39145  23788263.128    23788272.130
  21887271.868   -12244151.91249  -9529394.26247  21887271.417    21887278.061
  23569057.796    -7408682.09849  -4901415.46645  23569056.932    23569065.652
  22964053.983   -10509201.03949  -8173222.58746  22964053.297    22964059.539
  20422548.330   -23763127.59849 -18009159.11948  20422548.294    20422552.730
  23835028.898    -4990610.21249  -3879815.43045  23835028.333    23835037.195
  21739745.688   -11654461.64249  -9064137.83547  21739745.138    21739752.132
 04  7 20  0  4  0.0000000  0  7G 3G27G20G16G13G 8G 1
  23777184.422    -4994180.53149  -3739783.91045  23777183.978    23777192.873
  21878112.222   -12292286.02349  -9566901.32847  21878111.768    21878118.465
  23590323.633    -7296928.60649  -4814334.94745  23590322.790    23590331.884
  22979443.867   -10428326.27049  -8110203.33146  22979443.262    22979449.515
  20417277.515   -23790825.84649 -18030742.15748  20417277.463    20417281.908
  23818646.495    -5076701.13649  -3946899.15945  23818645.805    23818654.607
  21751172.541   -11594412.82949  -9017346.58147  21751172.047    21751179.078
 04  7 20  0  4 30.0000000  0  7G 3G27G20G16G13G 8G 1
  23766169.556    -5052063.83049  -3784887.67945  23766169.164    23766177.870
  21868989.400   -12340226.79349  -9604257.73947  21868988.954    21868995.631
  23611613.151    -7185049.36749  -4727156.49645  23611612.361    23611622.033
  22994901.306   -10347096.94749  -8046907.81546  22994900.711    22994907.000
  20412072.088   -23818180.36749 -18052057.35848  20412072.047    20412076.496
  23802290.108    -5162653.76049  -4013875.10845  23802289.388    23802298.327
  21762654.938   -11534073.04449  -8970328.59847  21762654.368    21762661.391
 04  7 20  0  5  0.0000000  0  7G 3G27G20G16G13G 8G 1
  23755219.693    -5109605.80549  -3829725.50545  23755219.264    23755227.849
  21859903.442   -12387974.21549  -9641463.49147  21859902.954    21859909.548
  23632926.417    -7073046.82849  -4639881.93545  23632925.725    23632935.542
  23010425.811   -10265515.39949  -7983337.82446  23010425.244    23010431.461
  20406932.370   -23845189.76349 -18073103.63348  20406932.315    20406936.816
  23785960.056    -5248467.51149  -4080742.86445  23785959.473    23785968.473
  21774192.581   -11473442.31049  -8923083.89347  21774192.011    21774199.136
 04  7 20  0  5 30.0000000  0  7G 3G27G20G16G13G 8G 1
  23744335.089    -5166804.35749  -3874295.70745  23744334.600    23744343.226
  21850854.019   -12435528.90949  -9678519.07247  21850853.539    21850860.126
  23654262.972    -6960924.33249  -4552513.91845  23654262.414    23654271.650
  23026016.796   -10183585.11649  -7919496.10546  23026016.160    23026022.209
  20401858.501   -23871853.04649 -18093880.21148  20401858.467    20401862.915
  23769656.495    -5334142.78349  -4147502.69945  23769655.919    23769664.824
  21785785.440   -11412521.29849  -8875613.01047  21785784.915    21785792.107
 04  7 20  0  6  0.0000000  0  7G 3G27G20G16G13G 8G 1
  23733516.260    -5223656.46849  -3918595.99745  23733515.879    23733524.512
  21841841.289   -12482891.13449  -9715424.65347  21841840.798    21841847.357
  23675622.290    -6848684.42749  -4465054.41545  23675621.388    23675630.236
  23041673.481   -10101308.36149  -7855384.39546  23041672.952    23041678.859
  20396850.889   -23898168.57349 -18114385.80848  20396850.824    20396855.267
  23753379.638    -5419678.70949  -4214153.94345  23753378.929    23753387.865
  21797433.551   -11351310.01749  -8827915.94647  21797433.061    21797440.210
 04  7 20  0  6 30.0000000  0  7G 3G27G20G16G13G 8G 1
  23722764.119    -5280158.82749  -3962623.71745  23722763.813    23722772.384
  21832865.230   -12530060.61549  -9752180.05947  21832864.742    21832871.318
  23697003.036    -6736329.57849  -4377505.34645  23697002.096    23697010.643
  23057395.716   -10018687.36549  -7791004.44746  23057395.217    23057401.164
  20391909.736   -23924134.70249 -18134619.14948  20391909.705    20391914.092
  23737129.257    -5505074.46349  -4280695.98045  23737128.558    23737137.424
  21809137.017   -11289808.28049  -8779992.54847  21809136.509    21809143.646
 04  7 20  0  7  0.0000000  0  7G 3G27G20G16G13G 8G 1
  23712078.726    -5336309.10249  -4006377.10245  23712078.710    23712087.242
  21823925.825   -12577037.63249  -9788785.48647  21823925.301    21823931.885
  23718404.960    -6623862.47449  -4289868.79545  23718403.911    23718412.590
  23073183.111    -9935724.72749  -7726358.28246  23073182.538    23073188.479
  20387035.211   -23949750.25149 -18154579.30548  20387035.209    20387039.615
  23720905.561    -5590329.72849  -4347128.54745  23720904.919    23720913.693
  21820895.658   -11228016.33349  -8731843.02147  21820895.158    21820902.309
 04  7 20  0  7 30.0000000  0  7G 3G27G20G16G13G 8G 1
  23701461.031    -5392104.50149  -4049853.96745  23701461.080    23701469.752
  21815022.936   -12623822.51649  -9825241.20047  21815022.404    21815028.979
  23739827.404    -6511286.08849  -4202147.07845  23739826.420    23739835.379
  23089035.039    -9852423.07849  -7661447.97446  23089034.394    23089040.319
  20382227.651   -23975013.79449 -18174265.17448  20382227.677    20382232.148
  23704708.838    -5675444.45249  -4413451.60145  23704708.122    23704716.791
  21832709.455   -11165934.62049  -8683467.70747  21832708.970    21832716.090
 04  7 20  0  8  0.0000000  0  7G 3G27G20G16G13G 8G 1
  23690911.547    -5447542.29749  -4093052.18345  23690911.594    23690920.133
  21806156.597   -12670415.45949  -9861547.35947  21806156.052    21806162.557
  23761270.235    -6398603.30349  -4114342.47345  23761269.345    23761278.406
  23104950.742    -9768785.01449  -7596275.52046  23104950.196    23104956.125
  20377487.378   -23999923.94749 -18193675.67548  20377487.399    20377491.931
  23688539.066    -5760417.77249  -4479664.46945  23688538.297    23688546.842
  21844578.312   -11103563.46949  -8634866.85547  21844577.843    21844584.885
 04  7 20  0  8 30.0000000  0  7G 3G27G20G16G13G 8G 1
  23680430.693    -5502620.02149  -4135969.84845  23680430.439    23680439.070
  21797326.701   -12716816.69749  -9897704.12847  21797326.165    21797332.583
  23782732.980    -6285816.65949  -4026456.96145  23782732.166    23782741.235
  23120930.003    -9684813.45349  -7530843.17646  23120929.474    23120935.470
  20372814.559   -24024479.83549 -18212810.13148  20372814.534    20372819.107
  23672395.903    -5845249.57649  -4545767.06645  23672395.232    23672403.741
  21856502.279   -11040903.12449  -8586040.66347  21856501.738    21856508.726
 04  7 20  0  9  0.0000000  0  7G 3G27G20G16G13G 8G 1
  23670018.886    -5557334.83649  -4178604.72745  23670018.437    23670027.181
  21788533.293   -12763026.25349  -9933711.52747  21788532.773    21788539.196
  23804215.163    -6172928.83449  -3938492.60645  23804214.335    23804223.369
  23136972.121    -9600510.34949  -7465152.49246  23136971.718    23136977.884
  20368209.565   -24048679.48549 -18231666.99148  20368209.502    20368214.078
  23656279.954    -5929938.96849  -4611758.66445  23656279.279    23656287.698
  21868481.119   -10977953.64549  -8536989.15747  21868480.656    21868487.668
 04  7 20  0  9 30.0000000  0  7G 3G27G20G16G13G 8G 1
  23659676.666    -5611683.31949  -4220954.13445  23659676.307    23659684.975
  21779776.369   -12809043.92349  -9969569.41847  21779775.855    21779782.344
  23825716.023    -6059942.08749  -3850451.14945  23825715.301    23825724.222
  23153077.057    -9515878.24849  -7399205.44646  23153076.708    23153082.859
  20363672.658   -24072521.02549 -18250244.80948  20363672.613    20363677.166
  23640191.156    -6014485.62149  -4677639.07045  23640190.507    23640198.923
  21880515.252   -10914714.77449  -8487712.15747  21880514.635    21880521.651
 04  7 20  0 10  0.0000000  0  7G 3G27G20G16G13G 8G 1
  23649404.746    -5665663.21349  -4263016.32445  23649404.377    23649412.919
  21771055.856   -12854870.21349 -10005278.17247  21771055.362    21771061.960
  23847234.849    -5946859.63849  -3762335.13645  23847234.074    23847242.859
  23169244.143    -9430919.98649  -7333004.24146  23169243.827    23169249.903
  20359204.054   -24096003.67149 -18268542.96548  20359204.006    20359208.577
  23624129.528    -6098888.95049  -4743407.80245  23624128.946    23624137.337
  21892604.144   -10851187.03249  -8438210.06647  21892603.546    21892610.645
 04  7 20  0 10 30.0000000  0  7G 3G27G20G16G13G 8G 1
  23639203.339    -5719272.76649  -4304789.92745  23639202.860    23639211.426
  21762371.640   -12900506.02549 -10040838.51447  21762371.144    21762377.763
  23868771.021    -5833684.50949  -3674146.89245  23868770.493    23868779.561
  23185472.755    -9345638.68349  -7266551.31246  23185472.341    23185478.432
  20354803.862   -24119126.72149 -18286560.92148  20354803.833    20354808.385
  23608095.399    -6183149.27049  -4809065.06745  23608094.686    23608103.029
  21904747.970   -10787371.25049  -8388483.52447  21904747.369    21904754.471
 04  7 20  0 11  0.0000000  0  7G 3G27G20G16G13G 8G 1
  23629072.776    -5772508.51249  -4346272.27045  23629072.514    23629080.926
  21753723.746   -12945950.97249 -10076250.12347  21753723.261    21753729.851
  23890324.921    -5720419.28249  -3585888.45945  23890324.003    23890333.386
  23201762.460    -9260036.42649  -7199848.28846  23201762.024    23201768.065
  20350472.417   -24141888.14649 -18304297.08148  20350472.401    20350477.029
  23592088.495    -6267265.83149  -4874610.33545  23592087.757    23592096.032
  21916946.702   -10723267.27949  -8338532.42247  21916946.064    21916953.112
 04  7 20  0 11 30.0000000  0  7G 3G27G20G16G13G 8G 1
  23619013.907    -5825367.68449  -4387461.17145  23619013.667    23619022.159
  21745112.152   -12991204.88749 -10111512.87347  21745111.682    21745118.276
  23911895.665    -5607066.12449  -3497561.49745  23911894.739    23911903.974
  23218112.603    -9174115.51849  -7132896.98645  23218112.175    23218118.334
  20346210.186   -24164286.39449 -18321750.25648  20346210.152    20346214.746
  23576108.905    -6351237.74049  -4940042.86845  23576108.240    23576116.693
  21929200.149   -10658874.96349  -8288356.63747  21929199.511    21929206.628
 04  7 20  0 12  0.0000000  0  7G 3G27G20G16G13G 8G 1
  23609027.438    -5877847.81549  -4428354.73145  23609026.881    23609035.473
  21736536.823   -13036268.33449 -10146627.20347  21736536.319    21736542.954
  23933482.883    -5493627.96249  -3409168.32545  23933481.795    23933490.911
  23234522.838    -9087878.83549  -7065699.62245  23234522.385    23234528.670
  20342017.173   -24186320.45749 -18338919.64148  20342017.164    20342021.750
  23560157.052    -6435064.58849  -5005362.40445  23560156.392    23560164.919
  21941508.340   -10594194.90649  -8237956.63647  21941507.760    21941514.923
 04  7 20  0 12 30.0000000  0  7G 3G27G20G16G13G 8G 1
  23599113.427    -5929946.15649  -4468950.77945  23599112.695    23599121.400
  21727997.695   -13081141.20649 -10181593.04447  21727997.201    21728003.854
  23955085.153    -5380107.34749  -3320710.90745  23955084.180    23955093.602
  23250992.598    -9001328.73849  -6998258.03145  23250992.333    23250998.643
  20337893.906   -24207988.57149 -18355803.87148  20337893.859    20337898.434
  23544232.963    -6518746.21649  -5070568.76646  23544232.277    23544240.762
  21953871.435   -10529227.28649  -8187332.55347  21953870.732    21953877.898
 04  7 20  0 13  0.0000000  0  7G 3G27G20G16G13G 8G 1
  23589272.010    -5981659.92549  -4509247.19145  23589271.687    23589280.540
  21719494.897   -13125823.51549 -10216410.39047  21719494.437    21719501.089
  23976702.384    -5266506.88649  -3232191.27645  23976701.516    23976711.387
  23267521.880    -8914467.48249  -6930573.95345  23267521.421    23267527.856
  20333840.591   -24229289.12049 -18372401.68848  20333840.535    20333845.050
  23528336.756    -6602281.67149  -5135661.19846  23528336.042    23528344.322
  21966288.966   -10463971.96449  -8136484.29847  21966288.335    21966295.553
 04  7 20  0 13 30.0000000  0  7G 3G27G20G16G13G 8G 1
  23579504.708    -6032987.06949  -4549242.31045  23579504.389    23579513.238
  21711028.271   -13170315.98149 -10251079.80747  21711027.788    21711034.393
  23998334.084    -5152829.67149  -3143611.77745  23998333.259    23998343.341
  23284109.705    -8827298.26549  -6862649.92845  23284109.138    23284115.689
  20329857.345   -24250221.46549 -18388712.59348  20329857.263    20329861.747
  23512468.305    -6685671.24149  -5200639.95446  23512467.547    23512475.587
  21978761.214   -10398429.89349  -8085412.60447  21978760.580    21978767.777
 04  7 20  0 14  0.0000000  0  7G 3G27G20G16G13G 8G 1
  23569811.417    -6083924.47949  -4588933.74245  23569811.199    23569820.033
  21702597.728   -13214618.42049 -10285601.15847  21702597.275    21702603.810
  24019980.428    -5039078.11149  -3054974.39845  24019979.585    24019989.438
  23300755.569    -8739823.42749  -6794487.77645  23300755.113    23300761.749
  20325944.396   -24270784.17449 -18404735.47248  20325944.321    20325948.761
  23496627.706    -6768914.02049  -5265504.37046  23496626.884    23496634.804
  21991288.077   -10332601.07749  -8034117.47946  21991287.468    21991294.578
 04  7 20  0 14 30.0000000  0  7G 3G27G20G16G13G 8G 1
  23560193.001    -6134469.70549  -4628319.56845  23560192.807    23560201.405
  21694203.340   -13258731.11449 -10319974.65047  21694202.876    21694209.315
  24041640.391    -4925255.14849  -2966281.39345  24041639.727    24041649.414
  23317459.247    -8652045.56149  -6726089.46445  23317458.799    23317465.436
  20322102.232   -24290975.58049 -18420469.02448  20322102.081    20322106.473
  23480814.961    -6852009.82149  -5330254.24146  23480814.151    23480822.173
  22003869.428   -10266485.70249  -7982599.06246  22003868.818    22003875.943
 04  7 20  0 15  0.0000000  0  7G 3G27G20G16G13G 8G 1
  23550649.571    -6184620.60249  -4667398.12645  23550649.384    23550658.030
  21685844.980   -13302654.68949 -10354200.77947  21685844.502    21685850.839
  24063313.728    -4811363.77249  -2877535.06845  24063312.934    24063322.145
  23334220.120    -8563967.53049  -6657457.27245  23334219.656    23334226.151
  20318330.707   -24310795.04049 -18435912.74648  20318330.582    20318334.966
  23465030.098    -6934958.80449  -5394889.69946  23465029.337    23465037.520
  22016505.189   -10200084.58049  -7930857.98747  22016504.591    22016511.761
 04  7 20  0 15 30.0000000  0  7G 3G27G20G16G13G 8G 1
  23541181.783    -6234374.71449  -4706167.51845  23541181.509    23541190.186
  21677522.575   -13346389.27549 -10388279.64347  21677522.054    21677528.411
  24084999.494    -4697406.70949  -2788737.54845  24084998.901    24085007.904
  23351037.451    -8475592.22049  -6588593.43945  23351036.904    23351043.403
  20314630.231   -24330240.96049 -18451065.40548  20314630.134    20314634.479
  23449273.565    -7017760.34249  -5459410.27546  23449272.796    23449280.900
  22029195.251   -10133398.20549  -7878894.62647  22029194.636    22029201.841
 04  7 20  0 16  0.0000000  0  7G 3G27G20G16G13G 8G 1
  23531790.054    -6283729.33349  -4744625.61745  23531789.701    23531798.363
  21669236.069   -13389935.03349 -10422211.36247  21669235.511    21669241.964
  24106697.236    -4583386.44349  -2699890.81945  24106696.530    24106705.649
  23367910.778    -8386921.84049  -6519499.67045  23367910.312    23367916.818
  20311001.092   -24349312.20449 -18465926.10448  20311001.007    20311005.358
  23433545.046    -7100413.88349  -5523815.55646  23433544.265    23433552.297
  22041939.659   -10066426.64249  -7826709.03947  22041938.943    22041946.174
 04  7 20  0 16 30.0000000  0  7G 3G27G20G16G13G 8G 1
  23522474.786    -6332681.03149  -4782769.74845  23522474.489    23522483.064
  21660985.490   -13433291.31449 -10455995.44447  21660984.982    21660991.527
  24128406.673    -4469304.85949  -2610996.27845  24128405.633    24128415.137
  23384840.043    -8297958.37949  -6450177.51046  23384839.552    23384846.013
  20307443.664   -24368006.51749 -18480493.09348  20307443.589    20307447.915
  23417844.630    -7182918.45149  -5588104.72546  23417843.915    23417852.045
  22054738.268    -9999169.35749  -7774300.79947  22054737.543    22054744.910
 04  7 20  0 17  0.0000000  0  7G 3G27G20G16G13G 8G 1
  23513236.841    -6381227.79349  -4820598.34845  23513236.405    23513244.913
  21652771.064   -13476458.65149 -10489632.29347  21652770.539    21652777.003
  24150126.689    -4355165.14149  -2522056.43645  24150125.557    24150135.202
  23401824.447    -8208704.71449  -6380629.24345  23401823.993    23401830.323
  20303958.209   -24386322.77749 -18494765.49948  20303958.132    20303962.415
  23402172.791    -7265273.37949  -5652277.28446  23402172.105    23402180.149
  22067591.056    -9931627.21449  -7721670.59647  22067590.395    22067597.812
 04  7 20  0 17 30.0000000  0  7G 3G27G20G16G13G 8G 1
  23504076.146    -6429367.41149  -4858109.69446  23504075.627    23504084.338
  21644592.455   -13519437.52549 -10523122.29347  21644591.941    21644598.347
  24171857.588    -4240970.18749  -2433073.59945  24171856.291    24171865.863
  23418863.663    -8119163.65149  -6310857.01045  23418863.118    23418869.371
  20300544.849   -24404260.15349 -18508742.67148  20300544.785    20300549.066
  23386529.469    -7347478.88249  -5716333.41446  23386528.902    23386536.823
  22080498.100    -9863800.77249  -7668818.85547  22080497.400    22080504.818
 04  7 20  0 18  0.0000000  0  7G 3G27G20G16G13G 8G 1
  23494993.383    -6477096.94149  -4895301.48046  23494992.975    23495001.609
  21636449.636   -13562227.96349 -10556465.46147  21636449.158    21636455.543
  24193598.295    -4126722.52949  -2344049.70745  24193597.301    24193606.271
  23435956.844    -8029337.61049  -6240862.75345  23435956.435    23435962.706
  20297203.920   -24421817.10449 -18522423.41048  20297203.828    20297208.085
  23370914.637    -7429534.55849  -5780272.77846  23370914.113    23370922.182
  22093459.051    -9795689.97749  -7615745.55847  22093458.457    22093465.784
 04  7 20  0 18 30.0000000  0  7G 3G27G20G16G13G 8G 1
  23485989.191    -6524413.60449  -4932171.56545  23485988.788    23485997.421
  21628342.751   -13604829.67749 -10589661.56647  21628342.280    21628348.627
  24215348.765    -4012424.04049  -2254986.18745  24215347.914    24215356.714
  23453103.928    -7939228.54049  -6170647.91945  23453103.554    23453109.885
  20293935.649   -24438991.95149 -18535806.41148  20293935.551    20293939.824
  23355328.396    -7511439.34949  -5844094.57446  23355327.924    23355336.236
  22106474.351    -9727294.85249  -7562450.71446  22106473.696    22106480.943
 04  7 20  0 19  0.0000000  0  7G 3G27G20G16G13G 8G 1
  23477064.012    -6571315.77049  -4968718.65545  23477063.557    23477072.148
  21620271.663   -13647243.52749 -10622711.29147  21620271.158    21620277.494
  24237108.385    -3898078.36649  -2165885.90245  24237107.409    24237116.113
  23470304.253    -7848840.06749  -6100215.36245  23470303.967    23470310.209
  20290740.208   -24455783.97549 -18548891.10648  20290740.103    20290744.401
  23339771.040    -7593193.65449  -5907799.11946  23339770.414    23339778.958
  22119543.392    -9658616.47849  -7508935.14846  22119542.799    22119550.082
 04  7 20  0 19 30.0000000  0  7G 3G27G20G16G13G 8G 1
  23468218.252    -6617801.02549  -5004940.88945  23468217.731    23468226.209
  21612236.234   -13689469.87249 -10655614.89947  21612235.750    21612242.104
  24258875.666    -3783688.45749  -2076751.09445  24258874.941    24258884.363
  23487557.345    -7758174.98449  -6029567.28045  23487557.043    23487563.186
  20287617.801   -24472192.17949 -18561676.72048  20287617.724    20287622.007
  23324242.341    -7674797.24949  -5971386.24546  23324241.714    23324250.179
  22132666.216    -9589655.62249  -7455199.46846  22132665.674    22132672.982
 04  7 20  0 20  0.0000000  0  8G 3G27G20G16G13G 8G19G 1
  23459451.804    -6663867.83149  -5040837.05245  23459451.390    23459459.873
  21604236.371   -13731509.70349 -10688373.17647  21604235.859    21604242.171
  24280651.059    -3669257.60249  -1987584.41945  24280650.226    24280660.069
  23504862.523    -7667236.42049  -5958706.10845  23504862.152    23504868.249
  20284568.576   -24488215.92649 -18574162.75548  20284568.505    20284572.807
  23308742.322    -7756250.60149  -6034856.27646  23308741.665    23308749.933
  24714371.335    -3177746.46849  -2464602.41945  24714370.220    24714379.619
  22145842.701    -9520413.30549  -7401244.46146  22145842.063    22145849.352
 04  7 20  0 20 30.0000000  0  8G 3G27G20G16G13G 8G19G 1
  23450765.888    -6709512.29349  -5076404.10445  23450765.543    23450773.897
  21596272.117   -13773361.80649 -10720985.17547  21596271.622    21596277.964
  24302434.055    -3554787.23049  -1898386.92345  24302433.263    24302443.359
  23522219.470    -7576025.76149  -5887632.89445  23522218.966    23522225.093
  20281592.992   -24503852.65449 -18586347.22048  20281592.955    20281597.200
  23293271.092    -7837551.87149  -6098207.77946  23293270.475    23293278.703
  24698568.736    -3260787.19449  -2529309.32445  24698567.827    24698576.987
  22159072.648    -9450888.56349  -7347069.37646  22159072.134    22159079.500
 04  7 20  0 21  0.0000000  0  8G 3G27G20G16G13G 8G19G 1
  23442160.968    -6754732.02049  -5111640.21545  23442160.450    23442168.858
  21588343.562   -13815026.27249 -10753450.96747  21588343.081    21588349.462
  24324224.824    -3440279.70349  -1809160.56645  24324223.899    24324233.467
  23539627.685    -7484545.43849  -5816349.56545  23539627.155    23539633.358
  20278691.381   -24519100.90249 -18598228.96348  20278691.324    20278695.547
  23277829.026    -7918700.76649  -6161440.56946  23277828.345    23277836.627
  24682776.126    -3343778.51649  -2593977.64245  24682775.180    24682783.959
  22172356.584    -9381081.68249  -7292674.45646  22172355.967    22172363.372
 04  7 20  0 21 30.0000000  0  8G 3G27G20G16G13G 8G19G 1
  23433637.137    -6799525.01649  -5146543.78245  23433636.621    23433644.975
  21580450.652   -13856503.81949 -10785771.10047  21580450.165    21580456.528
  24346021.837    -3325738.26549  -1719907.77845  24346020.810    24346029.898
  23557086.664    -7392798.55949  -5744858.53445  23557086.079    23557092.234
  20275863.792   -24533960.08149 -18609807.53848  20275863.722    20275867.949
  23262415.958    -7999697.08649  -6224554.47246  23262415.215    23262423.460
  24666993.410    -3426717.82649  -2658605.47645  24666992.516    24667001.054
  22185693.960    -9310993.58749  -7238060.41446  22185693.374    22185700.705
 04  7 20  0 22  0.0000000  0  8G 3G27G20G16G13G 8G19G 1
  23425195.150    -6843888.45949  -5181112.64545  23425194.556    23425202.831
  21572593.269   -13897794.31749 -10817945.48347  21572592.785    21572599.154
  24367824.684    -3211165.04649  -1630630.20644  24367823.528    24367832.724
  23574595.985    -7300787.20449  -5673161.40745  23574595.367    23574601.549
  20273110.481   -24548428.52349 -18621081.64048  20273110.438    20273114.678
  23247031.819    -8080540.48049  -6287549.23446  23247031.155    23247039.309
  24651221.054    -3509601.90549  -2723190.30845  24651219.987    24651228.997
  22199084.902    -9240624.29549  -7183227.25146  22199084.273    22199091.591
 04  7 20  0 22 30.0000000  0  8G 3G27G20G16G13G 8G19G 1
  23416835.042    -6887819.92749  -5215344.88945  23416834.623    23416842.825
  21564771.581   -13938897.43849 -10849973.86047  21564771.100    21564777.465
  24389632.552    -3096562.52949  -1541329.78144  24389631.439    24389641.416
  23592155.166    -7208513.79349  -5601260.09345  23592154.471    23592160.709
  20270431.891   -24562504.63749 -18632050.03048  20270431.832    20270436.075
  23231676.986    -8161229.95549  -6350424.03546  23231676.327    23231684.550
  24635459.349    -3592427.34349  -2787729.48345  24635458.178    24635467.893
  22212529.426    -9169973.68549  -7128174.88546  22212528.686    22212536.029
 04  7 20  0 23  0.0000000  0  8G 3G27G20G16G13G 8G19G 1
  23408557.683    -6931316.80549  -5249238.49845  23408557.453    23408565.670
  21556985.505   -13979813.45649 -10881856.44747  21556985.010    21556991.427
  24411445.463    -2981933.26449  -1452008.48744  24411444.668    24411454.902
  23609763.591    -7115980.61649  -5529156.37945  23609762.991    23609769.146
  20267828.221   -24576186.92449 -18642711.54748  20267828.194    20267832.400
  23216351.590    -8241764.90049  -6413178.43746  23216350.964    23216359.074
  24619709.654    -3675191.11649  -2852220.52545  24619708.500    24619718.197
  22226027.069    -9099042.36449  -7072903.75946  22226026.462    22226033.832
 04  7 20  0 23 30.0000000  0  8G 3G27G20G16G13G 8G19G 1
  23400363.674    -6974377.65249  -5282792.34245  23400363.176    23400371.518
  21549234.808   -14020543.45549 -10913594.07747  21549234.335    21549240.756
  24433263.368    -2867280.84349  -1362669.18245  24433262.643    24433272.942
  23627420.718    -7023191.50149  -5456853.18545  23627420.117    23627426.371
  20265299.544   -24589475.19449 -18653066.03348  20265299.545    20265303.749
  23201055.521    -8322146.34749  -6475813.22646  23201054.834    23201062.834
  24603972.606    -3757891.45549  -2916662.13545  24603971.315    24603980.407
  22239577.941    -9027831.92649  -7017415.15446  22239577.391    22239584.832
 04  7 20  0 24  0.0000000  0  8G 3G27G20G16G13G 8G19G 1
  23392252.909    -7016999.73449  -5316004.29845  23392252.411    23392260.696
  21541519.685   -14061087.09549 -10945186.49047  21541519.137    21541525.536
  24455085.641    -2752607.30349  -1273313.41845  24455084.756    24455095.131
  23645126.123    -6930148.35449  -5384352.09045  23645125.670    23645131.801
  20262846.183   -24602367.74349 -18663112.16848  20262846.143    20262850.354
  23185788.728    -8402373.29749  -6538327.61646  23185788.113    23185796.045
  24588247.884    -3840524.52949  -2981051.33045  24588246.821    24588255.363
  22253182.031    -8956342.09849  -6961708.82746  22253181.453    22253188.997
 04  7 20  0 24 30.0000000  0  8G 3G27G20G16G13G 8G19G 1
  23384225.942    -7059180.76749  -5348872.56545  23384225.518    23384233.834
  21533839.966   -14101444.28449 -10976633.62747  21533839.443    21533845.747
  24476911.204    -2637915.40149  -1183943.34244  24476910.217    24476920.150
  23662879.415    -6836853.70349  -5311655.02145  23662879.090    23662885.340
  20260468.364   -24614863.31549 -18672848.97148  20260468.329    20260472.568
  23170551.520    -8482444.85749  -6600720.96646  23170550.861    23170558.904
  24572536.190    -3923087.37549  -3045385.89345  24572535.230    24572544.054
  22266839.243    -8884573.18849  -6905785.05746  22266838.738    22266846.275
 04  7 20  0 25  0.0000000  0  8G 3G27G20G16G13G 8G19G 1
  23376283.659    -7100918.21949  -5381395.19845  23376283.096    23376291.482
  21526195.628   -14141615.22249 -11007935.62447  21526195.115    21526201.393
  24498739.424    -2523207.32949  -1094560.71044  24498738.495    24498748.586
  23680680.286    -6743309.69949  -5238763.63145  23680679.926    23680686.193
  20258166.341   -24626960.48849 -18682275.33748  20258166.293    20258170.541
  23155343.764    -8562360.66549  -6662992.92746  23155343.190    23155351.488
  24556838.552    -4005576.99249  -3109663.35645  24556837.656    24556846.827
  22280549.562    -8812525.60449  -6849644.13846  22280549.047    22280556.485
 04  7 20  0 25 30.0000000  0  8G 3G27G20G16G13G 8G19G 1
  23368425.870    -7142210.49249  -5413570.95345  23368425.346    23368433.810
  21518586.604   -14181600.93349 -11039093.29547  21518586.083    21518592.334
  24520569.524    -2408486.80449  -1005168.34444  24520568.704    24520578.561
  23698527.941    -6649519.84249  -5165680.67645  23698527.551    23698533.980
  20255940.201   -24638658.51349 -18691390.67848  20255940.224    20255944.483
  23140165.807    -8642121.26049  -6725143.94546  23140165.187    23140173.433
  24541155.812    -4087991.04049  -3173881.96045  24541154.762    24541163.743
  22294312.701    -8740200.55149  -6793287.02446  22294312.119    22294319.461
 04  7 20  0 26  0.0000000  0  8G 3G27G20G16G13G 8G19G 1
  23360653.269    -7183054.91549  -5445397.74645  23360652.906    23360661.293
  21511012.887   -14221400.98249 -11070106.29147  21511012.366    21511018.642
  24542402.862    -2293755.67849   -915767.70244  24542401.798    24542410.518
  23716421.767    -6555486.37349  -5092407.86445  23716421.523    23716428.094
  20253790.483   -24649955.92749 -18700193.85348  20253790.413    20253794.673
  23125017.536    -8721725.62549  -6787173.22046  23125016.903    23125025.026
  24525488.010    -4170326.10149  -3238038.96845  24525486.889    24525495.621
  22308128.538    -8667598.00549  -6736713.68546  22308127.965    22308135.252
 04  7 20  0 26 30.0000000  0  8G 3G27G20G16G13G 8G19G 1
  23352966.569    -7223449.56749  -5476874.05745  23352965.999    23352974.472
  21503474.357   -14261015.93149 -11100975.04947  21503473.855    21503480.166
  24564237.143    -2179016.86449   -826361.10944  24564236.082    24564244.618
  23734361.668    -6461212.13349  -5018947.46445  23734361.304    23734367.995
  20251717.084   -24660851.90949 -18708684.22348  20251716.968    20251721.242
  23109898.974    -8801173.78949  -6849080.78546  23109898.311    23109906.376
  24509835.588    -4252579.42949  -3302132.29345  24509834.645    24509843.092
  22321997.021    -8594718.93149  -6679924.85146  22321996.393    22322003.700
 04  7 20  0 27  0.0000000  0  8G 3G27G20G16G13G 8G19G 1
  23345365.489    -7263392.77549  -5507998.60945  23345364.921    23345373.497
  21495970.941   -14300446.46349 -11131700.11747  21495970.459    21495976.737
  24586072.873    -2064273.61749   -736951.09244  24586071.505    24586080.583
  23752346.927    -6366700.21349  -4945301.83345  23752346.433    23752353.088
  20249720.147   -24671345.81149 -18716861.28548  20249720.011    20249724.324
  23094809.952    -8880466.00749  -6910866.82846  23094809.306    23094817.395
  24494198.929    -4334748.43349  -3366159.90745  24494198.149    24494206.790
  22335917.806    -8521564.28449  -6622921.29946  22335917.237    22335924.689
 04  7 20  0 27 30.0000000  0  8G 3G27G20G16G13G 8G19G 1
  23337850.984    -7302881.20149  -5538768.79445  23337850.293    23337858.988
  21488502.808   -14339691.62549 -11162280.73347  21488502.320    21488508.570
  24607908.916    -1949527.35849   -647538.63544  24607907.640    24607917.448
  23770377.007    -6271952.08449  -4871472.15545  23770376.511    23770383.043
  20247800.177   -24681435.26649 -18724723.19648  20247800.060    20247804.385
  23079750.917    -8959600.78649  -6972530.23946  23079750.391    23079758.392
  24478579.268    -4416829.36249  -3430118.91045  24478578.542    24478587.413
  22349891.102    -8448133.44849  -6565702.52346  22349890.703    22349898.221
 04  7 20  0 28  0.0000000  0  8G 3G27G20G16G13G 8G19G 1
  23330423.415    -7341912.80749  -5569183.00645  23330422.823    23330431.411
  21481069.849   -14378751.86349 -11192717.25447  21481069.395    21481075.586
  24629744.518    -1834781.17049   -558126.27644  24629743.384    24629754.082
  23788451.539    -6176970.51649  -4797460.57145  23788450.979    23788457.478
  20245957.346   -24691119.28649 -18732269.18448  20245957.246    20245961.589
  23064722.033    -9038577.97349  -7034070.81146  23064721.456    23064729.374
  24462976.884    -4498819.18249  -3494006.93045  24462976.145    24462985.289
  22363917.034    -8374427.17449  -6508269.10946  22363916.573    22363924.206
 04  7 20  0 28 30.0000000  0  8G 3G27G20G16G13G 8G19G 1
  23323083.605    -7380485.88049  -5599239.89145  23323082.766    23323091.179
  21473672.207   -14417627.48149 -11223009.92147  21473671.676    21473677.760
  24651579.097    -1720037.70349   -468715.91844  24651577.818    24651589.490
  23806569.857    -6081758.12949  -4723269.15645  23806569.256    23806575.754
  20244191.841   -24700396.95749 -18739498.53848  20244191.768    20244196.105
  23049723.269    -9117397.49549  -7095488.53146  23049722.580    23049730.409
  24447392.209    -4580715.02249  -3557821.71745  24447391.494    24447400.863
  22377995.173    -8300446.12249  -6450621.60146  22377994.746    22378002.470
 04  7 20  0 29  0.0000000  0  8G 3G27G20G16G13G 8G19G 1
  23315830.971    -7418597.89549  -5628937.53145  23315830.286    23315838.707
  21466309.546   -14456318.47849 -11253158.72247  21466308.964    21466315.104
  24673413.603    -1605299.30449   -379309.68244  24673412.320    24673423.544
  23824731.517    -5986317.27249  -4648899.72445  23824731.102    23824737.506
  20242503.981   -24709266.94349 -18746410.21548  20242503.896    20242508.228
  23034754.531    -9196058.77449  -7156782.92546  23034753.773    23034761.620
  24431826.314    -4662513.82049  -3621560.85445  24431825.409    24431834.513
  22392125.644    -8226190.59649  -6392760.21346  22392125.194    22392132.932
 04  7 20  0 29 30.0000000  0  8G 3G27G20G16G13G 8G19G 1
  23308666.652    -7456246.12449  -5658273.77945  23308666.146    23308674.309
  21458982.080   -14494824.29949 -11283163.23647  21458981.516    21458987.692
  24695246.303    -1490567.85049   -289908.90944  24695245.286    24695255.564
  23842936.129    -5890650.06049  -4574353.87945  23842935.869    23842942.195
  20240894.035   -24717727.26149 -18753002.66548  20240893.951    20240898.274
  23019815.841    -9274560.74749  -7217953.21946  23019815.243    23019823.009
  24416279.923    -4744211.99449  -3685221.54945  24416278.832    24416287.723
  22406308.342    -8151660.66249  -6334684.99246  22406307.825    22406315.549
 04  7 20  0 30  0.0000000  0  8G 3G27G20G16G13G 8G19G 1
  23301591.329    -7493429.18149  -5687247.53245  23301590.524    23301598.470
  21451689.713   -14533145.93949 -11313024.22347  21451689.155    21451695.316
  24717077.353    -1375846.56849   -200515.96744  24717076.572    24717086.212
  23861183.370    -5794759.50349  -4499634.02745  23861183.127    23861189.607
  20239362.153   -24725777.64249 -18759275.68848  20239362.041    20239366.326
  23004907.489    -9352903.97249  -7278999.79046  23004906.956    23004914.653
  24400752.736    -4825807.10149  -3748801.95645  24400751.792    24400760.559
  22420542.862    -8076857.44649  -6276396.84046  22420542.381    22420550.198
 04  7 20  0 30 30.0000000  0  8G 3G27G20G16G13G 8G19G 1
  23294604.403    -7530144.78849  -5715857.05245  23294603.762    23294611.538
  21444432.375   -14571283.47549 -11342741.75647  21444431.839    21444437.940
  24738906.206    -1261138.21749   -111133.06444  24738905.204    24738914.902
  23879472.681    -5698648.29049  -4424742.24345  23879472.496    23879478.929
  20237908.439   -24733416.87149 -18765228.32948  20237908.318    20237912.637
  22990029.694    -9431088.00249  -7339922.33046  22990029.073    22990036.679
  24385245.651    -4907296.27149  -3812299.84445  24385244.747    24385253.513
  22434829.445    -8001781.47449  -6217896.15146  22434828.961    22434836.673
 04  7 20  0 31  0.0000000  0  8G 3G27G20G16G13G 8G19G 1
  23287706.877    -7566391.57249  -5744101.24845  23287706.277    23287714.003
  21437209.947   -14609237.71449 -11372316.46247  21437209.399    21437215.512
  24760731.386    -1146445.88149    -21762.70744  24760730.453    24760741.108
  23897803.802    -5602319.65149  -4349681.01345  23897803.345    23897809.688
  20236532.992   -24740644.56549 -18770860.29548  20236532.930    20236537.238
  22975182.128    -9509112.97049  -7400720.92246  22975181.433    22975189.012
  24369759.400    -4988676.73049  -3875713.02845  24369758.387    24369767.369
  22449167.807    -7926434.01549  -6159183.91346  22449167.205    22449174.773
 04  7 20  0 31 30.0000000  0  7G 3G27G16G13G 8G19G 1
  23280899.067    -7602166.73549  -5771977.93945  23280898.450    23280906.170
  21430022.450   -14647008.10849 -11401747.91847  21430021.885    21430027.964
  23916175.553    -5505775.21549  -4274451.65145  23916175.257    23916181.741
  20235236.384   -24747458.66749 -18776169.98248  20235236.257    20235240.581
  22960364.831    -9586977.76049  -7461394.67846  22960364.130    22960371.841
  24354294.810    -5069944.97549  -3939038.74845  24354293.644    24354302.155
  22463557.641    -7850814.67949  -6100259.82546  22463557.143    22463564.692
 04  7 20  0 32  0.0000000  0  7G 3G27G16G13G 8G19G 1
  23274181.757    -7637466.47649  -5799484.17145  23274181.110    23274188.698
  21422870.186   -14684593.14649 -11431034.94247  21422869.656    21422875.699
  23934588.359    -5409016.03949  -4199054.90045  23934588.110    23934594.373
  20234018.869   -24753856.53049 -18781155.32648  20234018.770    20234023.110
  22945578.404    -9664680.74749  -7521942.39946  22945577.708    22945585.370
  24338852.389    -5151096.48749  -4002273.47345  24338851.014    24338859.020
  22477999.384    -7774922.59649  -6041123.18746  22477998.935    22478006.642
 04  7 20  0 32 30.0000000  0  7G 3G27G16G13G 8G19G 1
  23267554.658    -7672291.59149  -5826620.58145  23267554.108    23267561.679
  21415752.676   -14721995.71749 -11460179.78347  21415752.183    21415758.214
  23953040.938    -5312047.21049  -4123494.83145  23953040.655    23953047.006
  20232880.292   -24759839.78349 -18785817.59348  20232880.189    20232884.499
  22930822.453    -9742223.96149  -7582365.57046  22930821.683    22930829.347
  24323432.176    -5232130.67049  -4065416.78745  24323430.490    24323438.319
  22492492.647    -7698761.06549  -5981776.58746  22492492.042    22492499.860
 04  7 20  0 33  0.0000000  0  7G 3G27G16G13G 8G19G 1
  23261018.433    -7706639.84449  -5853385.40446  23261017.862    23261025.455
  21408670.042   -14759215.56249 -11489182.23447  21408669.517    21408675.512
  23971532.908    -5214871.12149  -4047773.24545  23971532.415    23971538.952
  20231820.921   -24765406.63749 -18790155.39948  20231820.842    20231825.159
  22916097.133    -9819606.41449  -7642663.50746  22916096.387    22916103.850
  24308034.560    -5313044.13449  -4128466.09645  24308032.979    24308040.950
  22507037.084    -7622330.28149  -5922220.18946  22507036.403    22507044.183
 04  7 20  0 33 30.0000000  0  7G 3G27G16G13G 8G19G 1
  23254573.614    -7740507.91949  -5879776.06046  23254572.974    23254580.570
  21401622.205   -14796251.77349 -11518041.60247  21401621.696    21401627.741
  23990063.731    -5117488.92549  -3971891.06145  23990063.634    23990070.441
  20230841.199   -24770555.20849 -18794167.27348  20230841.100    20230845.435
  22901402.417    -9896827.10949  -7702835.40146  22901401.739    22901409.066
  24292660.601    -5393832.89249  -4191418.22945  24292659.292    24292667.391
  22521632.770    -7545629.61049  -5862453.48846  22521632.148    22521639.915
 04  7 20  0 34  0.0000000  0  7G 3G27G16G13G 8G19G 1
  23248220.400    -7773894.14249  -5905791.25846  23248219.733    23248227.364
  21394609.247   -14833104.76849 -11546758.20547  21394608.751    21394614.830
  24008633.599    -5019903.58949  -3895850.59045  24008633.619    24008640.380
  20229941.219   -24775284.66349 -18797852.55548  20229941.113    20229945.446
  22886738.498    -9973885.90049  -7762881.11046  22886737.882    22886745.247
  24277311.109    -5474494.56649  -4254271.31845  24277309.768    24277318.069
  22536279.576    -7468660.12449  -5802477.33046  22536278.999    22536286.784
 04  7 20  0 34 30.0000000  0  7G 3G27G16G13G 8G19G 1
  23241959.213    -7806796.94849  -5931429.76646  23241958.508    23241966.120
  21387631.049   -14869775.11849 -11575332.48347  21387630.572    21387636.700
  24027241.587    -4922118.00749  -3819654.09145  24027241.438    24027248.411
  20229121.140   -24779594.32749 -18801210.73148  20229121.021    20229125.352
  22872105.373   -10050782.80449  -7822800.67446  22872104.791    22872112.260
  24261986.469    -5555025.91349  -4317022.85345  24261985.068    24261993.393
  22550977.331    -7391422.76149  -5742292.43246  22550976.813    22550984.603
 04  7 20  0 35  0.0000000  0  7G 3G27G16G13G 8G19G 1
  23235790.206    -7839214.60449  -5956690.21046  23235789.557    23235797.280
  21380687.656   -14906262.99149 -11603764.57547  21380687.148    21380693.238
  24045887.274    -4824134.61949  -3743303.45545  24045887.149    24045894.271
  20228381.107   -24783483.00849 -18804240.86448  20228381.013    20228385.329
  22857503.165   -10127517.59449  -7882593.90646  22857502.540    22857510.013
  24246687.292    -5635424.13549  -4379670.66445  24246685.769    24246693.752
  22565726.105    -7313918.13549  -5681899.29346  22565725.474    22565733.207
 04  7 20  0 35 30.0000000  0  7G 3G27G16G13G 8G19G 1
  23229713.995    -7871145.33349  -5981571.24146  23229713.343    23229720.996
  21373778.845   -14942568.81249 -11632054.80347  21373778.351    21373784.371
  24064570.201    -4725956.19649  -3666800.80245  24064570.014    24064576.984
  20227721.336   -24786950.00149 -18806942.41348  20227721.270    20227725.566
  22842931.898   -10204089.96349  -7942260.61346  22842931.348    22842938.662
  24231413.839    -5715686.51849  -4442212.59645  24231412.103    24231420.071
  22580525.329    -7236147.22149  -5621298.61846  22580524.718    22580532.629
 04  7 20  0 36  0.0000000  0  7G 3G27G16G13G 8G19G 1
  23223730.806    -7902586.52149  -6006070.81746  23223730.236    23223737.954
  21366904.872   -14978692.02049 -11660202.74347  21366904.360    21366910.347
  24083289.550    -4627584.72649  -3590147.77745  24083289.496    24083296.449
  20227142.189   -24789993.57149 -18809314.01848  20227142.091    20227146.398
  22828391.708   -10280499.03749  -8001800.06846  22828391.053    22828398.374
  24216166.779    -5795809.42249  -4504645.85845  24216165.098    24216172.991
  22595375.169    -7158110.00349  -5560490.46046  22595374.668    22595382.734
 04  7 20  0 36 30.0000000  0  7G 3G27G16G13G 8G19G 1
  23217841.209    -7933536.20849  -6030187.40946  23217840.584    23217848.421
  21360065.597   -15014632.56749 -11688208.34047  21360065.055    21360071.059
  24102045.247    -4529022.66449  -3513346.22045  24102045.121    24102052.121
  20226643.801   -24792612.57649 -18811354.79948  20226643.726    20226647.995
  22813882.639   -10356744.14949  -8061211.76246  22813881.979    22813889.379
  24200947.027    -5875789.65149  -4566967.93845  24200945.354    24200953.235
  22610275.854    -7079807.11849  -5499475.29146  22610275.372    22610283.381
 04  7 20  0 37  0.0000000  0  7G 3G27G16G13G 8G19G 1
  23212045.297    -7963992.97949  -6053919.92746  23212044.746    23212052.607
  21353260.917   -15050391.46749 -11716072.40047  21353260.395    21353266.378
  24120836.888    -4430272.92649  -3436398.40245  24120836.732    24120843.763
  20226226.259   -24794806.78149 -18813064.56348  20226226.165    20226230.426
  22799404.592   -10432826.15049  -8120496.33546  22799403.892    22799411.447
  24185754.857    -5955624.69449  -4629176.90045  24185753.182    24185761.054
  22625226.905    -7001239.85249  -5438254.09546  22625226.292    22625234.262
 04  7 20  0 37 30.0000000  0  7G 3G27G16G13G 8G19G 1
  23206343.737    -7993954.82349  -6077266.78346  23206343.213    23206351.047
  21346490.909   -15085968.30349 -11743794.59347  21346490.372    21346496.326
  24139663.882    -4331337.71949  -3359306.11345  24139663.429    24139670.575
  20225889.920   -24796574.49049 -18814441.99948  20225889.828    20225894.047
  22784957.745   -10508744.01649  -8179653.05646  22784957.093    22784964.712
  24170590.888    -6035311.15349  -4691270.08145  24170589.130    24170597.201
  22640227.892    -6922408.32449  -5376826.98446  22640227.497    22640235.351
 04  7 20  0 38  0.0000000  0  8G 3G27G16G13G10G 8G19G 1
  23200735.878    -8023423.91049  -6100229.67046  23200735.325    23200743.258
  21339754.728   -15121367.10149 -11771378.05747  21339754.186    21339760.190
  24158524.889    -4232223.29449  -3282074.13645  24158524.321    24158531.280
  20225634.099   -24797918.74649 -18815489.46448  20225633.955    20225638.235
  24613516.280    -1580380.67349  -1218139.93745  24613515.129    24613524.987
  22770541.500   -10584501.40249  -8238684.71346  22770540.902    22770548.522
  24155454.906    -6114850.01349  -4753248.24745  24155453.228    24155461.329
  22655278.591    -6843317.19849  -5315197.59246  22655278.087    22655285.841
 04  7 20  0 38 30.0000000  0  8G 3G27G16G13G10G 8G19G 1
  23195223.117    -8052392.84049  -6122802.80346  23195222.701    23195230.608
  21333053.375   -15156582.56649 -11798818.66047  21333052.855    21333058.888
  24177420.618    -4132926.59749  -3204700.15945  24177419.980    24177426.826
  20225460.198   -24798832.73149 -18816201.65848  20225460.075    20225464.300
  24597233.348    -1665946.58849  -1284814.53744  24597232.560    24597241.437
  22756157.013   -10660092.19949  -8297586.54546  22756156.291    22756163.980
  24140348.607    -6194232.48849  -4815104.55245  24140347.116    24140354.974
  22670379.555    -6763961.60649  -5253362.12046  22670378.993    22670386.726
 04  7 20  0 39  0.0000000  0  8G 3G27G16G13G10G 8G19G 1
  23189805.966    -8080860.18049  -6144985.09246  23189805.502    23189813.440
  21326386.908   -15191614.99649 -11826116.63447  21326386.410    21326392.402
  24196350.271    -4033450.64449  -3127186.51245  24196349.675    24196356.455
  20225368.180   -24799316.18749 -18816578.37148  20225368.039    20225372.345
  24581016.686    -1751166.75649  -1351219.76344  24581015.815    24581023.217
  22741804.078   -10735516.48049  -8356358.66446  22741803.476    22741811.086
  24125272.499    -6273456.00649  -4876836.98645  24125271.252    24125278.986
  22685530.669    -6684342.57649  -5191321.36846  22685530.024    22685537.779
 04  7 20  0 39 30.0000000  0  8G 3G27G16G13G10G 8G19G 1
  23184484.231    -8108825.25249  -6166776.00646  23184483.846    23184491.811
  21319755.032   -15226465.80649 -11853273.09547  21319754.521    21319760.445
  24215313.526    -3933799.01949  -3049535.94945  24215312.918    24215319.498
  20225358.048   -24799369.16649 -18816619.64848  20225357.946    20225362.259
  24564865.948    -1836039.88949  -1417354.51144  24564865.058    24564871.845
  22727482.786   -10810775.11349  -8415001.67246  22727482.132    22727489.755
  24110227.356    -6352518.64549  -4938444.06545  24110226.118    24110233.729
  22700731.553    -6604461.96149  -5129076.78746  22700730.941    22700738.613
 04  7 20  0 40  0.0000000  0  8G 3G27G16G13G10G 8G19G 1
  23179258.707    -8136286.47749  -6188174.31746  23179258.213    23179266.018
  21313157.645   -15261135.08949 -11880288.10847  21313157.138    21313163.142
  24234309.632    -3833974.11049  -2971750.36045  24234309.047    24234315.617
  20225430.089   -24798990.73749 -18816324.76548  20225429.966    20225434.277
  24548781.694    -1920563.05649  -1483216.63145  24548780.932    24548788.453
  22713193.098   -10885867.62649  -8473515.25046  22713192.424    22713200.064
  24095213.178    -6431417.45849  -4999923.49845  24095212.062    24095219.567
  22715982.040    -6524320.50849  -5066628.94546  22715981.363    22715989.182
 04  7 20  0 40 30.0000000  0  8G 3G27G16G13G10G 8G19G 1
  23174129.239    -8163241.80949  -6209178.41446  23174128.725    23174136.490
  21306594.764   -15295622.98149 -11907161.77347  21306594.252    21306600.329
  24253338.243    -3733978.30049  -2893831.60845  24253337.703    24253344.380
  20225584.425   -24798179.69349 -18815692.77648  20225584.279    20225588.633
  24532764.483    -2004734.03249  -1548804.33245  24532763.682    24532771.833
  22698934.972   -10960794.12049  -8531899.45146  22698934.245    22698941.904
  24080230.845    -6510149.37949  -5061272.88545  24080229.684    24080237.225
  22731281.846    -6443919.07249  -5003978.51746  22731281.212    22731289.258
 04  7 20  0 41  0.0000000  0  8G 3G27G16G13G10G 8G19G 1
  23169096.288    -8189689.13249  -6229786.67146  23169095.949    23169103.659
  21300066.460   -15329929.37349 -11933894.01147  21300065.951    21300071.994
  24272399.139    -3633813.72049  -2815781.34545  24272398.528    24272405.220
  20225821.298   -24796934.91849 -18814722.81948  20225821.175    20225825.497
  24516814.364    -2088549.83749  -1614115.32945  24516813.515    24516822.584
  22684708.697   -11035553.67149  -8590153.58346  22684708.023    22684715.549
  24065280.808    -6588710.87949  -5122489.48645  24065279.795    24065287.276
  22746631.066    -6363257.78949  -4941125.61346  22746630.575    22746638.664
 04  7 20  0 41 30.0000000  0  8G 3G27G16G13G10G 8G19G 1
  23164160.532    -8215627.39649  -6249998.24946  23164160.055    23164167.694
  21293572.538   -15364054.76449 -11960485.20647  21293572.067    21293578.116
  24291491.571    -3533483.45049  -2737601.97445  24291490.900    24291497.485
  20226140.790   -24795255.77949 -18813414.39348  20226140.654    20226145.019
  24500932.458    -2172008.33649  -1679147.88145  24500931.658    24500941.001
  22670514.059   -11110146.26749  -8648277.61046  22670513.471    22670521.008
  24050363.967    -6667099.58049  -5183571.43245  24050362.841    24050370.199
  22762029.603    -6282337.93149  -4878071.21546  22762029.166    22762037.103
 04  7 20  0 42  0.0000000  0  8G 3G27G16G13G10G 8G19G 1
  23159321.642    -8241055.40449  -6269812.24246  23159321.186    23159328.841
  21287113.008   -15397999.72649 -11986935.80647  21287112.519    21287118.631
  24310614.906    -3432990.30249  -2659295.68345  24310614.282    24310620.814
  20226542.943   -24793142.01449 -18811767.29648  20226542.906    20226547.268
  24485119.334    -2255107.67149  -1743900.53845  24485118.265    24485127.721
  22656351.247   -11184572.43149  -8706271.94046  22656350.625    22656358.044
  24035480.362    -6745312.81249  -5244516.65945  24035479.325    24035486.339
  22777477.198    -6201160.83849  -4814816.41046  22777476.691    22777484.511
 04  7 20  0 42 30.0000000  0  8G 3G27G16G13G10G 8G19G 1
  23154580.142    -8265971.37949  -6289227.23546  23154579.758    23154587.442
  21280687.870   -15431764.03649 -12013245.64947  21280687.397    21280693.495
  24329768.738    -3332336.42649  -2580864.14945  24329768.232    24329774.766
  20227028.167   -24790592.21249 -18809780.42848  20227028.090    20227032.445
  24469375.247    -2337844.80649  -1808370.93845  24469374.224    24469383.066
  22642220.334   -11258831.19149  -8764135.83646  22642219.658    22642226.959
  24020630.608    -6823347.28749  -5305322.60645  24020629.714    24020636.814
  22792973.718    -6119726.79249  -4751361.39946  22792973.143    22792980.897
 04  7 20  0 43  0.0000000  0  8G 3G27G16G13G10G 8G19G 1
  23149936.466    -8290373.76149  -6308242.02746  23149936.093    23149943.846
  21274297.178   -15465347.67849 -12039414.70047  21274296.681    21274302.718
  24348952.817    -3231524.36349  -2502309.36345  24348952.200    24348958.671
  20227596.418   -24787606.02449 -18807453.52748  20227596.336    20227600.644
  24453700.714    -2420216.84849  -1872556.86145  24453699.566    24453707.530
  22628121.115   -11332922.51749  -8821869.26546  22628120.468    22628127.763
  24005815.693    -6901199.74849  -5365986.70545  24005814.760    24005821.932
  22808518.988    -6038036.50749  -4687706.71746  22808518.332    22808526.178
 04  7 20  0 43 30.0000000  0  8G 3G27G16G13G10G 8G19G 1
  23145390.791    -8314260.54349  -6326855.06846  23145390.490    23145398.357
  21267940.775   -15498750.84649 -12065443.12647  21267940.251    21267946.284
  24368166.558    -3130556.01549  -2423632.79745  24368166.009    24368172.332
  20228248.053   -24784181.65549 -18804785.17948  20228247.965    20228252.319
  24438095.499    -2502221.38749  -1936456.41745  24438094.480    24438102.221
  22614054.007   -11406845.69949  -8879471.66046  22614053.337    22614060.729
  23991036.122    -6978867.23249  -5426506.69345  23991035.052    23991042.174
  22824112.721    -5956090.61649  -4623852.82246  22824112.075    22824120.108
 04  7 20  0 44  0.0000000  0  8G 3G27G16G13G10G 8G19G 1
  23140943.672    -8337630.35349  -6345065.27846  23140943.299    23140951.190
  21261618.679   -15531973.56249 -12091330.93947  21261618.188    21261624.140
  24387409.493    -3029434.05549  -2344836.48945  24387408.758    24387415.204
  20228983.246   -24780318.30349 -18801774.77548  20228983.136    20228987.446
  24422560.713    -2583855.79049  -2000067.60045  24422559.625    24422567.625
  22600018.999   -11480600.38949  -8936942.77846  22600018.244    22600025.620
  23976292.347    -7056346.76349  -5486880.25145  23976291.119    23976298.274
  22839754.788    -5873890.08849  -4559800.49346  22839754.247    22839762.456
 04  7 20  0 44 30.0000000  0  8G 3G27G16G13G10G 8G19G 1
  23136595.286    -8360481.44849  -6362871.28246  23136594.869    23136602.758
  21255330.910   -15565015.80249 -12117078.11947  21255330.401    21255336.311
  24406680.959    -2928160.88149  -2265922.43345  24406680.338    24406687.108
  20229802.052   -24776015.14749 -18798421.66448  20229801.999    20229806.273
  24407096.980    -2665117.53749  -2063388.34545  24407095.890    24407104.405
  22586015.937   -11554186.19449  -8994282.29746  22586015.257    22586022.569
  23961584.828    -7133635.10449  -5547104.79545  23961583.491    23961590.604
  22855445.761    -5791435.37449  -4495550.12646  22855444.954    22855453.215
 04  7 20  0 45  0.0000000  0  8G 3G27G16G13G10G 8G19G 1
  23132345.913    -8382812.26749  -6380271.87646  23132345.402    23132353.308
  21249077.452   -15597877.76849 -12142684.83047  21249076.960    21249082.908
  24425980.719    -2826739.20849  -2186892.57645  24425980.226    24425987.052
  20230704.770   -24771271.56349 -18794725.36448  20230704.715    20230708.945
  24391704.463    -2746004.14149  -2126416.78345  24391703.265    24391712.450
  22572045.116   -11627603.10149  -9051490.19646  22572044.419    22572051.723
  23946914.099    -7210729.44249  -5607178.17745  23946912.838    23946919.812
  22871184.599    -5708727.50549  -4431102.50646  22871183.928    22871192.117
 04  7 20  0 45 30.0000000  0  8G 3G27G16G13G10G 8G19G 1
  23128195.730    -8404620.89749  -6397265.57245  23128195.244    23128203.162
  21242858.424   -15630559.15549 -12168150.82947  21242857.915    21242863.902
  24445308.467    -2725170.49749  -2107748.19945  24445308.016    24445315.180
  20231691.491   -24766086.12749 -18790684.76948  20231691.432    20231695.667
  24376384.056    -2826512.58649  -2189150.56645  24376383.041    24376392.183
  22558106.640   -11700850.20749  -9108565.78846  22558105.958    22558113.275
  23932280.936    -7287626.09849  -5667097.52145  23932279.699    23932286.666
  22886971.415    -5625766.79149  -4366457.86646  22886970.880    22886979.018
 04  7 20  0 46  0.0000000  0  8G 3G27G16G13G10G 8G19G 1
  23124145.168    -8425906.63349  -6413851.82145  23124144.748    23124152.624
  21236673.588   -15663060.87449 -12193476.82847  21236673.047    21236679.054
  24464663.839    -2623458.17649  -2028491.93145  24464663.395    24464670.540
  20232762.339   -24760458.70449 -18786299.76448  20232762.310    20232766.557
  24361136.233    -2906641.14249  -2251588.31945  24361135.267    24361144.052
  22544200.486   -11773927.76649  -9165509.27146  22544199.715    22544206.974
  23917685.709    -7364323.00649  -5726861.23745  23917684.642    23917691.701
  22902806.120    -5542554.83449  -4301617.46446  22902805.618    22902813.658
 04  7 20  0 46 30.0000000  0  8G 3G27G16G13G10G 8G19G 1
  23120194.272    -8446667.92949  -6430029.42445  23120193.793    23120201.845
  21230522.854   -15695382.84349 -12218662.75847  21230522.355    21230528.399
  24484046.063    -2521604.51249  -1949125.46545  24484045.499    24484052.702
  20233917.459   -24754388.57349 -18781569.79548  20233917.400    20233921.645
  24345961.241    -2986387.19749  -2313728.00545  24345960.153    24345968.562
  22530326.469   -11846835.57649  -9222320.49246  22530325.730    22530333.139
  23903129.320    -7440816.71449  -5786466.62245  23903128.239    23903135.361
  22918688.449    -5459092.38249  -4236581.87946  22918687.963    22918696.013
 04  7 20  0 47  0.0000000  0  8G 3G27G16G13G10G 8G19G 1
  23116343.604    -8466903.08649  -6445797.03745  23116343.188    23116351.087
  21224406.374   -15727524.91349 -12243708.51447  21224405.900    21224411.849
  24503454.556    -2419611.62749  -1869650.53145  24503454.032    24503461.372
  20235157.099   -24747874.41649 -18776493.83148  20235157.002    20235161.215
  24330858.715    -3065748.11449  -2375567.56245  24330857.870    24330866.096
  22516484.913   -11919572.98549  -9278998.93246  22516484.222    22516491.594
  23888612.232    -7517104.20649  -5845911.29645  23888611.029    23888618.339
  22934618.465    -5375380.03849  -4171351.53146  22934617.864    22934626.076
 04  7 20  0 47 30.0000000  0  8G 3G27G16G13G10G 8G19G 1
  23112593.657    -8486610.70549  -6461153.57446  23112592.935    23112600.852
  21218324.124   -15759487.37849 -12268614.30947  21218323.630    21218329.564
  24522889.164    -2317481.92249  -1790069.00545  24522888.777    24522896.145
  20236481.342   -24740915.37649 -18771071.20448  20236481.266    20236485.497
  24315830.338    -3144721.65349  -2437105.31445  24315829.462    24315837.653
  22502675.920   -11992139.72349  -9335544.37146  22502675.192    22502682.412
  23874134.798    -7593182.47649  -5905192.94145  23874133.581    23874141.119
  22950596.053    -5291418.67149  -4105927.12746  22950595.314    22950603.567
 04  7 20  0 48  0.0000000  0  8G 3G27G16G13G10G 8G19G 1
  23108943.573    -8505789.28449  -6476097.90546  23108943.282    23108951.262
  21212276.113   -15791269.83749 -12293379.84547  21212275.607    21212281.531
  24542349.301    -2215217.65049  -1710382.61345  24542349.095    24542356.431
  20237890.438   -24733510.52749 -18765301.19648  20237890.360    20237894.579
  24300876.053    -3223304.82949  -2498338.91145  24300875.264    24300883.611
  22488899.429   -12064535.48749  -9391956.59946  22488898.719    22488905.785
  23859698.038    -7669048.18749  -5964308.93045  23859696.845    23859704.179
  22966620.807    -5207208.87349  -4040309.17646  22966619.970    22966628.338
 04  7 20  0 48 30.0000000  0  8G 3G27G16G13G10G 8G19G 1
  23105394.985    -8524437.79749  -6490629.16546  23105394.628    23105402.538
  21206262.183   -15822872.93649 -12318005.62447  21206261.700    21206267.637
  24561834.698    -2112821.51149  -1630593.47645  24561834.506    24561841.857
  20239384.431   -24725659.56349 -18759183.56248  20239384.336    20239388.581
  24285997.037    -3301495.77749  -2559266.86545  24285996.234    24286004.242
  22475155.401   -12136759.98649  -9448235.36746  22475154.724    22475161.889
  23845302.241    -7744698.72549  -6023257.24445  23845300.982    23845308.037
  22982692.359    -5122751.92449  -3974498.65046  22982691.624    22982699.971
 04  7 20  0 49  0.0000000  0  8G 3G27G16G13G10G 8G19G 1
  23101947.407    -8542555.03449  -6504746.45546  23101947.085    23101954.919
  21200282.459   -15854296.87049 -12342491.79547  21200281.950    21200287.864
  24581344.672    -2010295.95549  -1550703.49745  24581344.240    24581351.798
  20240963.391   -24717361.73749 -18752717.73148  20240963.323    20240967.596
  24271193.177    -3379292.16749  -2619887.34145  24271192.223    24271200.204
  22461443.986   -12208813.14749  -9504380.64546  22461443.386    22461450.509
  23830947.869    -7820131.20949  -6082035.68745  23830946.599    23830953.659
  22998810.756    -5038048.88649  -3908496.37346  22998810.165    22998818.379
 04  7 20  0 49 30.0000000  0  8G 3G27G16G13G10G 8G19G 1
  23098601.297    -8560139.35449  -6518448.49746  23098600.841    23098608.637
  21194336.813   -15885541.52549 -12366838.26047  21194336.277    21194342.201
  24600879.087    -1907643.27349  -1470714.45045  24600878.466    24600886.080
  20242627.621   -24708616.39649 -18745903.18148  20242627.521    20242631.759
  24256465.034    -3456691.05449  -2680198.10645  24256464.028    24256471.859
  22447765.450   -12280695.01849  -9560392.44046  22447764.766    22447771.795
  23816635.524    -7895342.60049  -6140641.84545  23816634.248    23816641.388
  23014976.016    -4953100.48349  -3842302.90046  23014975.434    23014983.464
 04  7 20  0 50  0.0000000  0  8G 3G27G16G13G10G 8G19G 1
  23095356.631    -8577189.95749  -6531734.65046  23095356.207    23095363.923
  21188425.133   -15916607.28849 -12391045.31947  21188424.629    21188430.558
  24620437.111    -1804866.10749  -1390628.38445  24620436.466    24620443.906
  20244377.081   -24699422.87449 -18738739.40248  20244377.010    20244381.237
  24241812.843    -3533690.43849  -2740197.55045  24241811.683    24241819.523
  22434119.569   -12352404.51749  -9616269.92146  22434118.853    22434125.840
  23802365.696    -7970330.02249  -6199073.46245  23802364.336    23802371.809
  23031187.663    -4867907.67049  -3775918.96246  23031186.991    23031195.283
 04  7 20  0 50 30.0000000  0  8G 3G27G16G13G10G 8G19G 1
  23092214.084    -8593704.93449  -6544603.42646  23092213.523    23092221.245
  21182547.674   -15947493.84949 -12415112.74547  21182547.118    21182553.059
  24640018.320    -1701966.46049  -1310446.92545  24640017.671    24640025.176
  20246212.032   -24689779.93549 -18731225.42348  20246211.969    20246216.263
  24227236.872    -3610287.56849  -2799883.53245  24227235.684    24227243.418
  22420506.434   -12423941.75549  -9672013.17746  22420505.697    22420512.611
  23788139.285    -8045090.33149  -6257328.13245  23788137.775    23788145.265
  23047445.534    -4782471.03749  -3709345.03046  23047445.036    23047453.650
 04  7 20  0 51  0.0000000  0  8G 3G27G16G13G10G 8G19G 1
  23089173.544    -8609682.45149  -6557053.42546  23089173.008    23089180.817
  21176704.314   -15978200.59649 -12439040.06047  21176703.763    21176709.774
  24659622.463    -1598945.80349  -1230171.08545  24659621.829    24659629.370
  20248132.770   -24679686.28449 -18723360.24448  20248132.729    20248137.042
  24212737.741    -3686479.39649  -2859253.76045  24212736.682    24212744.322
  22406926.214   -12495305.73349  -9727621.43147  22406925.489    22406932.427
  23773956.654    -8119619.75749  -6315402.89445  23773955.254    23773962.497
  23063749.977    -4696790.73049  -3642581.22146  23063749.578    23063758.277
 04  7 20  0 51 30.0000000  0  8G 3G27G16G13G10G 8G19G 1
  23086235.448    -8625121.42149  -6569083.76346  23086235.002    23086242.808
  21170895.062   -16008727.86449 -12462827.52347  21170894.545    21170900.612
  24679249.114    -1495806.90549  -1149803.20745  24679248.482    24679256.240
  20250139.379   -24669141.53049 -18715143.55748  20250139.330    20250143.636
  24198316.016    -3762263.65649  -2918306.32945  24198314.996    24198323.177
  22393379.071   -12566496.07949  -9783094.38047  22393378.417    22393385.357
  23759818.567    -8193915.20549  -6373295.31445  23759817.251    23759824.346
  23080100.809    -4610867.78749  -3575628.34846  23080100.328    23080108.834
 04  7 20  0 52  0.0000000  0  8G 3G27G16G13G10G 8G19G 1
  23083400.131    -8640021.26349  -6580694.00546  23083399.634    23083407.459
  21165120.035   -16039076.31449 -12486475.64147  21165119.493    21165125.505
  24698897.649    -1392552.59149  -1069345.34645  24698897.089    24698904.935
  20252231.840   -24658145.44149 -18706575.18048  20252231.791    20252236.123
  24183972.652    -3837638.61949  -2977040.04145  24183971.764    24183979.746
  22379865.042   -12637513.36249  -9838432.47247  22379864.372    22379871.252
  23745725.301    -8267974.61849  -6431003.81845  23745724.048    23745730.916
  23096497.551    -4524703.83149  -3508487.66446  23096496.928    23096505.225
 04  7 20  0 52 30.0000000  0  8G 3G27G16G13G10G 8G19G 1
  23080667.545    -8654380.92649  -6591883.33746  23080667.027    23080674.912
  21159378.876   -16069246.04149 -12509984.49847  21159378.337    21159384.317
  24718567.596    -1289185.31049   -988799.47245  24718567.182    24718575.038
  20254410.392   -24646697.38649 -18697654.62448  20254410.294    20254414.611
  24169707.829    -3912601.97749  -3035452.95545  24169706.969    24169714.758
  22366384.016   -12708356.65849  -9893634.99247  22366383.305    22366390.250
  23731677.622    -8341795.11949  -6488526.20845  23731676.452    23731683.095
  23112939.534    -4438300.05349  -3441160.13146  23112938.975    23112947.273
 04  7 20  0 53  0.0000000  0  8G 3G27G16G13G10G 8G19G 1
  23078038.084    -8668198.77349  -6602650.45346  23078037.617    23078045.413
  21153671.809   -16099236.59849 -12533353.74347  21153671.288    21153677.200
  24738258.942    -1185706.75749   -908166.87045  24738258.580    24738266.408
  20256675.100   -24634796.20649 -18688380.98148  20256675.046    20256679.366
  24155521.830    -3987150.96149  -3093543.02245  24155520.960    24155528.797
  22352935.928   -12779026.22049  -9948702.13947  22352935.195    22352942.202
  23717676.085    -8415372.99149  -6545859.54145  23717674.985    23717681.642
  23129427.067    -4351656.84749  -3373646.02846  23129426.661    23129434.963
 04  7 20  0 53 30.0000000  0  8G 3G27G16G13G10G 8G19G 1
  23075512.086    -8681473.65049  -6612994.48346  23075511.546    23075519.188
  21147998.862   -16129048.14349 -12556583.50447  21147998.325    21148004.201
  24757971.057    -1082119.34049   -827449.47645  24757970.644    24757978.524
  20259026.158   -24622441.35149 -18678753.82848  20259026.078    20259030.407
  24141414.722    -4061283.14449  -3151308.30545  24141413.858    24141421.928
  22339521.108   -12849521.18549 -10003633.24047  22339520.451    22339527.315
  23703721.352    -8488705.40449  -6603001.59245  23703720.186    23703727.045
  23145960.355    -4264775.06049  -3305946.01846  23145959.855    23145968.100
 04  7 20  0 54  0.0000000  0  7G 3G27G13G10G 8G19G 1
  23073089.401    -8694205.22049  -6622915.16246  23073088.793    23073096.488
  21142359.721   -16158681.62549 -12579674.51147  21142359.219    21142365.152
  20261463.517   -24609632.78549 -18668773.13348  20261463.481    20261467.776
  24127387.593    -4134997.01249  -3208747.61945  24127386.548    24127394.813
  22326139.564   -12919842.03049 -10058428.65247  22326138.875    22326145.613
  23689813.697    -8561790.39849  -6659950.86246  23689812.624    23689819.532
  23162538.631    -4177656.50149  -3238061.51046  23162538.148    23162546.315
 04  7 20  0 54 30.0000000  0  7G 3G27G13G10G 8G19G 1
  23070770.312    -8706392.55249  -6632411.75446  23070769.638    23070777.331
  21136754.558   -16188137.13449 -12602626.84547  21136754.070    21136760.001
  20263987.345   -24596370.29149 -18658438.72748  20263987.254    20263991.526
  24113440.274    -4208289.98349  -3265858.98245  24113439.194    24113447.350
  22312791.238   -12989988.43749 -10113088.13147  22312790.467    22312797.300
  23675953.865    -8634624.93849  -6716704.94745  23675952.690    23675959.261
  23179161.890    -4090302.17449  -3169993.28746  23179161.221    23179169.335
 04  7 20  0 55  0.0000000  0  7G 3G27G13G10G 8G19G 1
  23068555.142    -8718032.81249  -6641482.04946  23068554.572    23068562.144
  21131183.550   -16217413.01449 -12625439.20847  21131183.026    21131188.972
  20266597.944   -24582651.48749 -18647748.75748  20266597.886    20266602.167
  24099573.521    -4281158.48549  -3322639.59745  24099572.533    24099580.622
  22299476.188   -13059958.75849 -10167610.42247  22299475.474    22299482.332
  23662142.343    -8707204.21849  -6773260.11645  23662141.291    23662147.449
  23195829.915    -4002711.29749  -3101740.75445  23195829.182    23195837.352
 04  7 20  0 55 30.0000000  0  7G 3G27G13G10G 8G19G 1
  23066444.336    -8729125.31249  -6650125.52046  23066443.723    23066451.250
  21125646.662   -16246509.33649 -12648111.65347  21125646.130    21125652.052
  20269295.517   -24568475.57249 -18636702.59248  20269295.449    20269299.773
  24085788.175    -4353600.19549  -3379087.59845  24085787.297    24085795.269
  22286194.719   -13129752.41349 -10221995.04547  22286194.079    22286200.990
  23648379.845    -8779525.39849  -6829614.18345  23648378.829    23648385.012
  23212542.649    -3914885.07149  -3033304.82345  23212541.892    23212550.197
 04  7 20  0 56  0.0000000  0  7G 3G27G13G10G 8G19G 1
  23064437.872    -8739669.28249  -6658341.57246  23064437.292    23064444.865
  21120143.742   -16275426.93349 -12670644.82747  21120143.219    21120149.175
  20272080.011   -24553843.01949 -18625300.61348  20272079.951    20272084.232
  24072084.593    -4425613.21349  -3435201.54845  24072083.704    24072091.528
  22272947.051   -13199370.20749 -10276242.62447  22272946.360    22272953.066
  23634667.078    -8851586.01949  -6885765.23345  23634665.972    23634672.247
  23229299.896    -3826825.04849  -2964686.68945  23229299.261    23229307.505
 04  7 20  0 56 30.0000000  0  7G 3G27G13G10G 8G19G 1
  23062535.820    -8749664.48949  -6666130.00746  23062535.189    23062542.758
  21114674.802   -16304166.40749 -12693039.21447  21114674.325    21114680.259
  20274951.430   -24538753.61649 -18613542.64448  20274951.383    20274955.667
  24058462.827    -4497195.86549  -3490980.17245  24058461.944    24058469.640
  22259732.663   -13268812.41449 -10330353.38047  22259731.918    22259738.462
  23621004.451    -8923384.20149  -6941711.77846  23621003.260    23621009.460
  23246101.497    -3738532.93649  -2895887.73645  23246100.919    23246109.237
 04  7 20  0 57  0.0000000  0  7G 3G27G13G10G 8G19G 1
  23060738.480    -8759109.46649  -6673489.70346  23060737.843    23060745.417
  21109239.941   -16332727.13549 -12715294.32047  21109239.448    21109245.371
  20277910.053   -24523206.04649 -18601427.66348  20277909.995    20277914.294
  24044923.569    -4568345.49349  -3546421.38245  24044922.646    24044930.362
  22246551.793   -13338077.29649 -10384325.96746  22246551.064    22246557.661
  23607392.391    -8994915.94649  -6997450.70246  23607391.273    23607397.402
  23262947.173    -3650008.99349  -2826908.12345  23262946.537    23262954.966
 04  7 20  0 57 30.0000000  0  7G 3G27G13G10G 8G19G 1
  23059046.055    -8768003.00049  -6680419.72646  23059045.445    23059052.956
  21103839.016   -16361109.10549 -12737410.13047  21103838.507    21103844.447
  20280955.886   -24507199.98049 -18588955.41248  20280955.856    20280960.162
  24031467.266    -4639059.75349  -3601523.37445  24031466.232    24031473.980
  22233404.574   -13407165.35949 -10438160.77447  22233403.954    22233410.667
  23593831.474    -9066178.48449  -7052979.84246  23593830.511    23593836.678
  23279836.651    -3561254.29949  -2757748.71745  23279835.915    23279844.510
 04  7 20  0 58  0.0000000  0  7G 3G27G13G10G 8G19G 1
  23057458.721    -8776344.55549  -6686919.61446  23057458.124    23057465.523
  21098472.087   -16389312.53249 -12759386.82647  21098471.572    21098477.476
  20284089.037   -24490735.18349 -18576125.71048  20284089.017    20284093.279
  24018094.010    -4709336.42249  -3656284.35345  24018092.861    24018100.816
  22220291.468   -13476076.15049 -10491857.44947  22220290.793    22220297.403
  23580322.331    -9137168.99449  -7108297.02346  23580321.334    23580327.455
  23296769.631    -3472270.00349  -2688410.41645  23296769.022    23296777.742
 04  7 20  0 58 30.0000000  0  7G 3G27G13G10G 8G19G 1
  23055976.453    -8784132.61749  -6692988.23246  23055976.050    23055983.590
  21093139.230   -16417337.07249 -12781224.12647  21093138.694    21093144.516
  20287309.840   -24473810.04649 -18562937.31248  20287309.788    20287314.058
  24004804.296    -4779172.79749  -3710702.28045  24004803.161    24004811.390
  22207212.036   -13544809.21749 -10545415.63846  22207211.308    22207217.787
  23566865.400    -9207883.95549  -7163399.49945  23566864.430    23566870.676
  23313746.436    -3383056.48549  -2618893.50445  23313745.879    23313754.508
 04  7 20  0 59  0.0000000  0  7G 3G27G13G10G 8G19G 1
  23054600.029    -8791366.11849  -6698624.69546  23054599.554    23054606.993
  21087840.385   -16445182.49049 -12802921.85047  21087839.852    21087845.657
  20290618.241   -24456424.04349 -18549389.79048  20290618.217    20290622.485
  23991598.836    -4848566.36049  -3764775.15545  23991597.932    23991606.096
  22194166.354   -13613363.68449 -10598834.67346  22194165.679    22194172.159
  23553461.414    -9278320.35949  -7218284.94745  23553460.639    23553466.958
  23330766.911    -3293614.57249  -2549198.63145  23330766.296    23330774.789
 04  7 20  0 59 30.0000000  0  7G 3G27G13G10G 8G19G 1
  23053329.027    -8798045.17749  -6703829.16545  23053328.562    23053335.878
  21082575.439   -16472849.59749 -12824480.63747  21082574.957    21082580.813
  20294014.306   -24438577.96549 -18535483.77948  20294014.276    20294018.503
  23978478.459    -4917516.04349  -3818502.14845  23978477.405    23978485.132
  22181154.650   -13681740.01849 -10652114.89446  22181154.006    22181160.509
  23540111.149    -9348476.17349  -7272951.72246  23540110.380    23540116.809
  23347830.258    -3203946.28649  -2479327.37245  23347829.654    23347838.139
 04  7 20  1  0  0.0000000  0  7G 3G27G13G10G 8G19G 1
  23052163.665    -8804169.12149  -6708601.05945  23052163.190    23052170.561
  21077344.411   -16500338.94949 -12845900.90647  21077343.869    21077349.810
  20297497.965   -24420271.32249 -18521218.87848  20297497.915    20297502.175
  23965442.526    -4986019.82649  -3871881.64545  23965441.570    23965449.147
  22168177.146   -13749938.20049 -10705256.30047  22168176.430    22168182.873
  23526815.174    -9418348.92049  -7327397.91746  23526814.125    23526820.501
  23364936.248    -3114053.06349  -2409280.78045  23364935.672    23364944.437
 04  7 20  1  0 30.0000000  0  7G 3G27G13G10G 8G19G 1
  23051104.208    -8809736.84049  -6712939.51645  23051103.733    23051111.015
  21072147.280   -16527650.04849 -12867182.28147  21072146.746    21072152.732
  20301069.353   -24401503.47649 -18506594.59548  20301069.312    20301073.597
  23952491.904    -5054075.19249  -3924911.74245  23952490.896    23952498.586
  22155233.453   -13817957.98949 -10758258.68247  22155232.702    22155239.120
  23513573.277    -9487935.21149  -7381620.90246  23513572.173    23513578.688
  23382085.041    -3023935.60549  -2339059.47045  23382084.459    23382093.222
 04  7 20  1  1  0.0000000  0  7G 3G27G13G10G 8G19G 1
  23050150.935    -8814746.86849  -6716843.40945  23050150.314    23050157.596
  21066984.218   -16554782.22349 -12888324.22847  21066983.681    21066989.645
  20304728.735   -24382273.09249 -18491609.89648  20304728.709    20304733.014
  23939627.203    -5121679.16649  -3977590.10945  23939626.231    23939634.060
  22142323.796   -13885798.17949 -10811121.12746  22142323.009    22142329.476
  23500386.185    -9557231.18449  -7435617.71446  23500385.333    23500391.994
  23399276.723    -2933594.06649  -2268663.57645  23399276.098    23399284.719
 04  7 20  1  1 30.0000000  0  7G 3G27G13G10G 8G19G 1
  23049303.634    -8819198.57649  -6720312.26045  23049303.149    23049310.447
  21061855.151   -16581735.71149 -12909326.93047  21061854.602    21061860.520
  20308476.199   -24362580.21849 -18476264.81448  20308476.174    20308480.450
  23926848.968    -5188829.69149  -4029915.13645  23926847.998    23926855.830
  22129448.200   -13953459.06949 -10863843.86646  22129447.432    22129453.947
  23487255.277    -9626234.39349  -7489386.36545  23487254.272    23487260.969
  23416510.694    -2843029.86649  -2198094.18445  23416509.937    23416518.570
 04  7 20  1  2  0.0000000  0  7G 3G27G13G10G 8G19G 1
  23048562.889    -8823091.49149  -6723345.68145  23048562.342    23048569.654
  21056760.056   -16608510.42749 -12930190.34047  21056759.549    21056765.452
  20312311.806   -24342424.00549 -18460558.68748  20312311.739    20312316.072
  23914157.265    -5255524.71049  -4081885.23445  23914156.304    23914164.372
  22116607.084   -14020939.45049 -10916425.93847  22116606.382    22116612.822
  23474180.437    -9694942.04449  -7542924.68846  23474179.604    23474186.212
  23433786.615    -2752244.02149  -2127352.07845  23433785.957    23433794.660
 04  7 20  1  2 30.0000000  0  7G 3G27G13G10G 8G19G 1
  23047928.539    -8826425.41049  -6725943.54145  23047927.912    23047935.218
  21051698.906   -16635107.12149 -12950915.03447  21051698.352    21051704.253
  20316235.510   -24321804.80949 -18444491.79848  20316235.443    20316239.810
  23901552.410    -5321762.69649  -4133499.19445  23901551.581    23901559.712
  22103800.269   -14088240.41349 -10968868.20647  22103799.488    22103805.826
  23461162.603    -9763351.89549  -7596230.98546  23461161.656    23461168.077
  23451104.783    -2661238.16649  -2056438.53245  23451104.078    23451112.721
 04  7 20  1  3  0.0000000  0  7G 3G27G13G10G 8G19G 1
  23047400.632    -8829199.06449  -6728104.80945  23047400.077    23047407.381
  21046671.671   -16661525.14649 -12971500.50447  21046671.133    21046677.072
  20320247.479   -24300721.69049 -18428063.40948  20320247.415    20320251.802
  23889035.216    -5387540.76549  -4184754.75945  23889034.266    23889042.530
  22091027.526   -14155360.85349 -11021169.82147  22091026.741    22091033.213
  23448201.958    -9831460.29049  -7649302.36246  23448201.118    23448207.397
  23468464.133    -2570012.89349  -1985354.01245  23468463.741    23468472.427
 04  7 20  1  3 30.0000000  0  7G 3G27G13G10G 8G19G 1
  23046979.434    -8831411.50349  -6729828.76745  23046979.039    23046986.416
  21041678.428   -16687764.38849 -12991946.66647  21041677.929    21041683.878
  20324347.826   -24279174.18349 -18411273.15548  20324347.777    20324352.148
  23876606.028    -5452856.71949  -4235650.23945  23876605.090    23876612.873
  22078289.209   -14222299.90749 -11073330.10147  22078288.509    22078295.178
  23435299.320    -9899264.29849  -7702136.57946  23435298.390    23435304.761
  23485865.340    -2478569.15149  -1914099.26645  23485864.954    23485873.722
 04  7 20  1  4  0.0000000  0  7G 3G27G13G10G 8G19G 1
  23046665.329    -8833062.74149  -6731115.44045  23046664.826    23046672.165
  21036719.184   -16713825.40849 -13012253.94747  21036718.723    21036724.584
  20328536.545   -24257162.29049 -18394121.04548  20328536.497    20328540.878
  23864265.186    -5517709.05849  -4286184.46245  23864264.124    23864271.521
  22065585.492   -14289058.45049 -11125349.71847  22065584.823    22065591.439
  23422455.056    -9966761.60149  -7754731.81146  23422453.873    23422460.437
  23503308.137    -2386908.71449  -1842675.67245  23503307.448    23503316.283
 04  7 20  1  4 30.0000000  0  7G 3G27G13G10G 8G19G 1
  23046457.915    -8834152.34549  -6731964.46345  23046457.489    23046464.879
  21031793.824   -16739708.52649 -13032422.60147  21031793.313    21031799.165
  20332813.603   -24234686.20349 -18376607.22648  20332813.576    20332817.917
  23852012.872    -5582095.97849  -4336356.02345  23852011.757    23852018.768
  22052916.231   -14355636.27749 -11177228.49647  22052915.504    22052922.078
  23409669.458   -10033949.65549  -7807086.08146  23409668.244    23409675.060
  23520791.863    -2295032.98849  -1771084.31345  23520790.916    23520799.942
 04  7 20  1  5  0.0000000  0  7G 3G27G13G10G 8G19G 1
  23046357.730    -8834678.62249  -6732374.54845  23046357.359    23046364.669
  21026902.517   -16765412.42849 -13052451.61547  21026901.989    21026907.896
  20337179.343   -24211744.26349 -18358730.40048  20337179.304    20337183.637
  23839849.472    -5646014.33349  -4386162.46445  23839848.296    23839855.810
  22040281.581   -14422031.64549 -11228965.12147  22040280.851    22040287.519
  23396943.760   -10100824.20449  -7859196.05346  23396942.454    23396949.265
  23538315.867    -2202941.78749  -1699325.03345  23538315.293    23538324.409
 04  7 20  1  5 30.0000000  0  7G 3G27G13G10G 8G19G 1
  23046364.940    -8834641.05749  -6732345.26545  23046364.465    23046371.778
  21022045.238   -16790937.17249 -13072341.02147  21022044.741    21022050.728
  20341633.857   -24188335.98949 -18340490.20148  20341633.780    20341638.078
  23827775.709    -5709461.88849  -4435602.10445  23827774.625    23827782.130
  22027681.556   -14488244.38449 -11280559.43747  22027680.854    22027687.675
  23384278.067   -10167382.55649  -7911059.60346  23384276.842    23384283.531
  23555880.889    -2110636.26449  -1627398.77045  23555880.463    23555889.703
 04  7 20  1  6  0.0000000  0  7G 3G27G13G10G 8G19G 1
  23046479.333    -8834039.35649  -6731876.39045  23046478.875    23046486.231
  21017222.136   -16816282.77849 -13092090.84248  21017221.670    21017227.617
  20346177.082   -24164461.47449 -18321886.69748  20346176.965    20346181.278
  23815791.902    -5772436.98349  -4484673.58245  23815790.931    23815798.423
  22015116.467   -14554274.39649 -11332011.36447  22015115.773    22015122.550
  23371673.079   -10233622.13049  -7962674.76446  23371671.829    23371678.430
  23573486.593    -2018117.73749  -1555306.51945  23573486.175    23573495.364
 04  7 20  1  6 30.0000000  0  7G 3G27G13G10G 8G19G 1
  23046700.967    -8832873.62049  -6730968.01745  23046700.672    23046708.130
  21012433.005   -16841450.12549 -13111701.75848  21012432.526    21012438.436
  20350808.905   -24140120.95449 -18302920.07148  20350808.818    20350813.101
  23803898.243    -5834938.37049  -4533375.94945  23803897.435    23803904.800
  22002586.151   -14620121.88749 -11383321.05547  22002585.457    22002592.148
  23359129.095   -10299540.74649  -8014039.83446  23359127.942    23359134.394
  23591132.522    -1925388.36049  -1483049.97845  23591132.108    23591141.210
 04  7 20  1  7  0.0000000  0  7G 3G27G13G10G 8G19G 1
  23047030.383    -8831143.35349  -6729619.74145  23047029.833    23047037.419
  21007677.879   -16866438.71349 -13131173.38147  21007677.378    21007683.254
  20355529.567   -24115313.98049 -18283589.97848  20355529.430    20355533.757
  23792095.247    -5896963.52449  -4581707.20645  23792094.336    23792101.838
  21990090.546   -14685786.47649 -11434488.23247  21990089.848    21990096.538
  23346646.817   -10365135.28349  -8065152.39346  23346645.663    23346652.026
  23608818.666    -1832448.63849  -1410629.54845  23608818.144    23608827.132
 04  7 20  1  7 30.0000000  0  7G 3G27G13G10G 8G19G 1
  23047467.048    -8828848.15849  -6727831.27745  23047466.611    23047474.260
  21002956.642   -16891248.99149 -13150506.05047  21002956.126    21002962.021
  20360338.893   -24090040.49149 -18263896.37248  20360338.801    20360343.150
  23780383.354    -5958510.73649  -4629666.04045  23780382.443    23780389.580
  21977629.762   -14751268.20549 -11485512.91347  21977629.024    21977635.784
  23334226.967   -10430403.24349  -8116010.45946  23334225.661    23334231.817
  23626544.655    -1739300.03949  -1338046.32245  23626544.044    23626552.893
 04  7 20  1  8  0.0000000  0  7G 3G27G13G10G 8G19G 1
  23048011.548    -8825987.17349  -6725601.91745  23048011.034    23048018.566
  20998269.418   -16915880.36249 -13169699.31548  20998268.911    20998274.769
  20365237.260   -24064299.74449 -18243838.66848  20365237.130    20365241.467
  23768762.697    -6019577.44249  -4677250.46245  23768761.819    23768768.931
  21965204.074   -14816565.78249 -11536394.11647  21965203.336    21965210.018
  23321869.585   -10495341.47649  -8166611.61546  23321868.287    23321874.247
  23644309.789    -1645943.41249  -1265301.03145  23644309.176    23644318.262
 04  7 20  1  8 30.0000000  0  7G 3G27G13G10G 8G19G 1
  23048663.850    -8822559.34949  -6722930.87545  23048663.313    23048670.811
  20993616.509   -16940332.08649 -13188752.60548  20993615.942    20993621.742
  20370224.620   -24038090.86249 -18223416.17848  20370224.507    20370228.874
  23757233.830    -6080161.23449  -4724458.49945  23757232.939    23757239.694
  21952813.542   -14881678.87849 -11587131.55247  21952812.784    21952819.364
  23309575.563   -10559946.30649  -8216952.96246  23309574.367    23309580.304
  23662114.201    -1552379.20349  -1192393.96845  23662113.829    23662122.909
 04  7 20  1  9  0.0000000  0  7G 3G27G13G10G 8G19G 1
  23049423.944    -8818564.66749  -6719818.12245  23049423.476    23049431.079
  20988997.625   -16964604.46249 -13207666.14048  20988997.060    20989002.844
  20375301.039   -24011414.07249 -18202629.09048  20375300.943    20375305.327
  23745797.430    -6140260.10949  -4771288.75145  23745796.528    23745802.928
  21940458.116   -14946607.18649 -11637724.99147  21940457.318    21940463.784
  23297345.526   -10624215.27649  -8267032.59446  23297344.374    23297350.217
  23679957.984    -1458608.76149  -1119326.21445  23679957.796    23679966.950
 04  7 20  1  9 30.0000000  0  7G 3G27G13G10G 8G19G 1
  23050292.041    -8814002.98549  -6716263.55045  23050291.496    23050299.058
  20984412.825   -16988697.81049 -13226440.16948  20984412.254    20984418.066
  20380466.501   -23984269.30249 -18181477.34148  20380466.417    20380470.809
  23734453.306    -6199872.75149  -4817740.11545  23734452.312    23734458.952
  21928137.663   -15011351.04049 -11688174.71447  21928136.897    21928143.346
  23285179.660   -10688146.00849  -8316848.68746  23285178.547    23285184.425
  23697841.096    -1364633.86749  -1046099.18545  23697840.755    23697849.731
 04  7 20  1 10  0.0000000  0  7G 3G27G13G10G 8G19G 1
  23051267.997    -8808873.62449  -6712266.64745  23051267.590    23051275.102
  20979862.063   -17012611.82949 -13245074.46148  20979861.514    20979867.327
  20385721.072   -23956656.18549 -18159960.64948  20385721.029    20385725.399
  23723202.073    -6258996.96449  -4863810.90344  23723200.969    23723208.238
  21915852.484   -15075909.56749 -11738480.02647  21915851.782    21915858.246
  23273078.912   -10751735.47449  -8366398.83646  23273077.733    23273083.684
  23715763.027    -1270455.33549   -972713.44045  23715762.459    23715771.559
 04  7 20  1 10 30.0000000  0  7G 3G27G13G10G 8G19G 1
  23052352.361    -8803176.22949  -6707827.10245  23052351.848    23052359.346
  20975345.541   -17036346.27949 -13263568.82548  20975344.991    20975350.789
  20391064.831   -23928574.69849 -18138078.99048  20391064.750    20391069.132
  23712044.489    -6317630.68049  -4909499.48444  23712043.524    23712051.395
  21903602.726   -15140282.50949 -11788640.71647  21903602.022    21903608.464
  23261043.691   -10814981.02749  -8415681.01946  23261042.515    23261048.465
  23733722.630    -1176074.29249   -899169.89145  23733722.505    23733731.888
 04  7 20  1 11  0.0000000  0  7G 3G27G13G10G 8G19G 1
  23053544.389    -8796911.14549  -6702945.22445  23053543.993    23053551.654
  20970863.140   -17059901.41349 -13281923.46948  20970862.594    20970868.393
  20396497.680   -23900024.60849 -18115832.18348  20396497.648    20396502.036
  23700980.573    -6375772.48649  -4954804.74144  23700979.423    23700987.386
  21891388.396   -15204469.44249 -11838656.47547  21891387.648    21891394.086
  23249074.240   -10877880.14249  -8464693.25946  23249073.152    23249079.069
  23751720.735    -1081492.23449   -825469.68945  23751720.776    23751730.493
 04  7 20  1 11 30.0000000  0  7G 3G27G13G10G 8G19G 1
  23054844.836    -8790077.70649  -6697620.45045  23054844.393    23054851.984
  20966414.871   -17083277.15449 -13300138.32248  20966414.324    20966420.161
  20402019.902   -23871005.62149 -18093220.00248  20402019.796    20402024.176
  23690010.425    -6433420.16149  -4999724.92744  23690009.446    23690017.065
  21879209.423   -15268470.09949 -11888527.08047  21879208.669    21879215.074
  23237171.632   -10940429.79649  -8513433.17746  23237170.392    23237176.164
  23769757.625     -986710.17149   -751613.65645  23769757.548    23769767.111
 04  7 20  1 12  0.0000000  0  7G 3G27G13G10G 8G19G 1
  23056253.279    -8782676.61149  -6691853.35645  23056252.799    23056260.296
  20962000.530   -17106474.35949 -13318214.06348  20961999.990    20962005.902
  20407631.031   -23841518.72049 -18070243.21548  20407630.961    20407635.377
  23679134.866    -6490572.73949  -5044259.39544  23679133.707    23679141.075
  21867065.696   -15332285.32549 -11938253.19347  21867064.996    21867071.257
  23225335.546   -11002628.17649  -8561899.39546  23225334.276    23225340.152
  23787831.990     -891730.35849   -677603.57845  23787831.925    23787841.294
 04  7 20  1 12 30.0000000  0  7G 3G27G13G10G 8G19G 1
  23057769.755    -8774706.90049  -6685643.20645  23057769.318    23057776.953
  20957620.443   -17129492.03849 -13336149.91548  20957619.922    20957625.797
  20413331.397   -23811563.09849 -18046901.18348  20413331.365    20413335.786
  23668353.574    -6547227.74249  -5088406.04944                  23668352.385
  21854957.653   -15395913.79949 -11987833.78347  21854956.948    21854963.169
  23213566.907   -11064471.91549  -8610089.25346  23213565.733    23213571.605
  23805943.871     -796553.35349   -603439.81045  23805943.708    23805952.897
 04  7 20  1 13  0.0000000  0  8G 3G27G13G10G28G 8G19G 1
  23059394.683    -8766167.44749  -6678989.08845  23059394.373    23059401.915
  20953274.697   -17152329.16849 -13353945.06748  20953274.160    20953280.002
  20419121.270   -23781137.55049 -18023192.97848  20419121.167    20419125.592
                  -6603382.31948  -5132162.74744
                   -434999.59149   -323829.25444                  24186624.241
  21842885.239   -15459354.42249 -12037268.00247  21842884.536    21842890.773
  23201866.527   -11125957.28249  -8657999.85046  23201865.372    23201871.221
  23824093.382     -701179.29249   -529122.48745  23824092.854    23824102.012
 04  7 20  1 13 30.0000000  0  8G 3G27G13G10G28G 8G19G 1
  23061128.193    -8757058.85249  -6671891.46245  23061127.744    23061135.214
  20948963.201   -17174986.46249 -13371600.09448  20948962.685    20948968.495
  20425000.350   -23750242.48049 -17999118.90748  20425000.307    20425004.771
  23647076.635    -6659035.53349  -5175528.92744  23647075.499    23647082.080
  24167241.649     -536807.95049   -403160.26745  24167240.228    24167249.605
  21830848.457   -15522607.49049 -12086556.07847  21830847.769    21830854.113
  23190234.898   -11187082.15049  -8705629.55046  23190233.795    23190239.501
  23842279.550     -605610.13849   -454653.14345  23842279.014    23842288.338
 04  7 20  1 14  0.0000000  0  8G 3G27G13G10G28G 8G19G 1
  23062969.563    -8747381.67749  -6664350.81945  23062969.249    23062976.743
  20944685.748   -17197464.65249 -13389115.55848  20944685.176    20944691.039
  20430968.726   -23718878.92849 -17974679.78948  20430968.605    20430973.072
  23636581.889    -6714186.56749  -5218503.70144  23636581.007    23636587.706
  24147894.759     -638472.39249   -482379.13645  24147894.381    24147903.845
  21818847.363   -15585673.34749 -12135698.26547  21818846.697    21818853.085
  23178672.285   -11247844.78849  -8752976.97446  23178671.059    23178676.717
  23860502.286     -509847.97249   -380033.39745  23860502.018    23860511.530
 04  7 20  1 14 30.0000000  0  8G 3G27G13G10G28G 8G19G 1
  23064919.560    -8737135.37649  -6656366.67545  23064919.089    23064926.540
  20940442.452   -17219763.01449 -13406490.90248  20940441.914    20940447.852
  20437026.231   -23687046.31849 -17949875.17148  20437026.151    20437030.642
  23626183.034    -6768832.66349  -5261085.08544  23626181.925    23626189.091
  24128576.505     -739990.76549   -561484.19445  24128576.395    24128585.448
  21806882.154   -15648551.21849 -12184693.97947  21806881.440    21806887.753
  23167179.068   -11308241.89549  -8800039.59346  23167177.757    23167183.441
  23878761.832     -413893.56049   -305263.85845  23878761.637    23878771.234
 04  7 20  1 15  0.0000000  0  8G 3G27G13G10G28G 8G19G 1
  23066977.514    -8726320.38449  -6647939.41245  23066977.125    23066984.478
  20936233.307   -17241882.13649 -13423726.57848  20936232.778    20936238.704
  20443172.958   -23654745.07449 -17924705.38548  20443172.896    20443177.390
  23615880.458    -6822972.72649  -5303272.14545  23615879.596    23615886.838
  24109286.146     -841362.00849   -640474.58045  24109286.169    24109295.187
  21794952.564   -15711241.73649 -12233543.70447  21794951.869    21794958.126
  23155755.716   -11368271.40449  -8846815.76446  23155754.355    23155760.170
  23897057.755     -317748.63349   -230345.85145  23897057.501    23897067.048
 04  7 20  1 15 30.0000000  0  8G 3G27G13G10G28G 8G19G 1
  23069144.054    -8714935.05249  -6639067.71645  23069143.704    23069151.087
  20932058.556   -17263820.19549 -13440821.16448  20932058.048    20932064.002
  20449409.199   -23621973.59649 -17899169.18548  20449409.139    20449413.651
  23605674.911    -6876603.36849  -5345062.20445  23605674.101    23605681.571
  24090024.583     -942582.58549   -719347.55945  24090024.393    24090033.421
  21783059.176   -15773742.01149 -12282245.20247  21783058.443    21783064.731
  23144402.955   -11427929.05349  -8893302.18246  23144401.685    23144407.608
  23915389.774     -221413.00949   -155279.27345  23915389.580    23915399.180
 04  7 20  1 16  0.0000000  0  8G 3G27G13G10G28G 8G19G 1
  23071419.086    -8702980.04249  -6629752.12645  23071418.659    23071426.007
  20927918.170   -17285577.92549 -13457775.23648  20927917.684    20927923.677
  20455734.805   -23588732.37849 -17873266.95548  20455734.710    20455739.244
  23595566.777    -6929723.42849  -5386454.43645  23595565.909    23595573.232
  24070791.842    -1043651.54349   -798102.39445  24070791.537    24070800.336
  21771201.796   -15836052.87649 -12330799.10447  21771201.081    21771207.377
  23133121.547   -11487213.04349  -8939497.42346  23133120.284    23133126.174
  23933757.930     -124888.61449    -80065.57645  23933757.684    23933767.179
 04  7 20  1 16 30.0000000  0  8G 3G27G13G10G28G 8G19G 1
  23073802.469    -8690455.60049  -6619992.81945  23073802.078    23073809.286
  20923812.124   -17307155.14449 -13474588.65048  20923811.637    20923817.661
  20462149.780   -23555021.55749 -17846998.80248  20462149.708    20462154.216
  23585555.903    -6982331.44849  -5427447.67445  23585555.030    23585561.962
  24051588.476    -1144567.15249   -876737.74245  24051588.002    24051596.780
  21759380.393   -15898174.66749 -12379205.65847  21759379.655    21759385.975
  23121911.827   -11546120.67349  -8985399.39546  23121910.545    23121916.381
  23952161.815      -28176.70849     -4705.80345  23952161.534    23952170.932
 04  7 20  1 17  0.0000000  0  8G 3G27G13G10G28G 8G19G 1
  23076294.331    -8677360.80049  -6609789.08945  23076293.934    23076301.194
  20919740.562   -17328551.15749 -13491260.86048  20919740.095    20919746.094
  20468654.257   -23520840.68549 -17820364.38048  20468654.166    20468658.670
  23575642.521    -7034425.10349  -5468040.07145  23575641.663    23575648.173
  24032414.212    -1245327.33149   -955251.98145  24032413.866    24032422.658
  21747595.306   -15960105.88249 -12427463.71547  21747594.534    21747600.825
  23110774.213   -11604648.45749  -9031005.38946  23110773.025    23110778.898
  23970601.235       68722.03949     70799.58245  23970600.848    23970610.314
 04  7 20  1 17 30.0000000  0  8G 3G27G13G10G28G 8G19G 1
  23078894.744    -8663695.93849  -6599141.14045  23078894.254    23078901.474
  20915703.476   -17349766.03849 -13507791.92448  20915702.990    20915708.977
  20475248.047   -23486189.94549 -17793363.82148  20475247.961    20475252.540
  23565827.477    -7086003.04949  -5508230.64445  23565826.528    23565833.105
  24013270.103    -1345930.45249  -1033643.84445  24013269.470    24013278.350
  21735846.396   -16021846.07849 -12475572.93047  21735845.667    21735851.935
  23099709.299   -11662794.24549  -9076313.74546  23099708.165    23099714.078
  23989075.918      165806.11449    146449.38945  23989075.408    23989085.036
 04  7 20  1 18  0.0000000  0  8G 3G27G13G10G28G 8G19G 1
  23081603.403    -8649461.55649  -6588049.42745  23081602.939    23081610.186
  20911700.906   -17370799.79649 -13524181.86148  20911700.431    20911706.411
  20481931.243   -23451069.59749 -17765997.34048  20481931.174    20481935.716
  23556110.903    -7137063.85949  -5548018.24845  23556109.935    23556116.566
  23994155.946    -1446375.28249  -1111912.35345  23994155.333    23994164.123
  21724133.836   -16083395.74249 -12523533.68647  21724133.116    21724139.476
  23088717.600   -11720555.70449  -9121322.62446  23088716.454    23088722.365
  24007585.666      263073.88449    222242.34045  24007585.074    24007594.664
 04  7 20  1 18 30.0000000  0  8G 3G27G13G10G28G 8G19G 1
  23084420.471    -8634657.55549  -6576513.82945  23084420.088    23084427.303
  20907732.785   -17391652.52149 -13540430.73148  20907732.308    20907738.324
  20488703.848   -23415479.53849 -17738264.84748  20488703.775    20488708.284
  23546492.982    -7187605.77249  -5587401.53545  23546492.032    23546499.142
  23975072.201    -1546660.03049  -1190056.09645  23975071.593    23975080.499
  21712457.749   -16144754.40549 -12571345.60047  21712456.989    21712463.351
  23077799.519   -11777930.08349  -9166029.87446  23077798.413    23077804.267
  24026130.131      360524.11149    298177.45345  24026129.476    24026139.073
 04  7 20  1 19  0.0000000  0  8G 3G27G13G10G28G 8G19G 1
  23087345.891    -8619284.06349  -6564534.48045  23087345.614    23087352.778
  20903799.138   -17412324.06649 -13556538.42548  20903798.671    20903804.687
  20495565.750   -23379420.12749 -17710166.62448  20495565.645    20495570.245
  23536974.287    -7237627.15049  -5626379.20245  23536973.362    23536980.703
  23956019.671    -1646783.11149  -1268073.89045  23956018.903    23956027.734
  21700818.124   -16205921.24549 -12619008.05447  21700817.317    21700823.609
  23066955.745   -11834914.93749  -9210433.59346  23066954.580    23066960.369
  24044708.853      458155.44949    374253.70645  24044708.125    24044717.786
 04  7 20  1 19 30.0000000  0  8G 3G27G13G10G28G 8G19G 1
  23090379.686    -8603341.67049  -6552111.83245  23090379.273    23090386.540
  20899899.941   -17432814.47949 -13572504.97448  20899899.451    20899905.429
  20502516.923   -23342891.49249 -17681702.77648  20502516.833    20502521.432
  23527555.104    -7287126.84849  -5664950.33645  23527554.023    23527561.388
  23936997.876    -1746743.25249  -1345964.69145  23936996.992    23937005.746
  21689214.841   -16266896.59049 -12666521.28947  21689214.030    21689220.244
  23056186.438   -11891507.95349  -9254531.97046  23056185.305    23056191.001
  24063321.496      555966.26349    450469.82545  24063320.880    24063330.481
 04  7 20  1 20  0.0000000  0  8G 3G27G13G10G28G 8G19G 1
  23093521.678    -8586829.89649  -6539245.52445  23093521.318    23093528.580
  20896035.488   -17453122.99249 -13588329.78248  20896034.946    20896040.784
  20509557.482   -23305893.25649 -17652872.99248  20509557.339    20509561.900
  23518235.287    -7336102.64549  -5703113.28545  23518234.245    23518241.760
  23918007.332    -1846538.02249  -1423726.69345  23918006.619    23918015.337
  21677648.105   -16327679.79549 -12713884.80047  21677647.307    21677653.502
  23045492.265   -11947705.92549  -9298322.54046  23045491.049    23045496.824
  24081968.476      653956.00649    526825.37545  24081967.672    24081977.285
 04  7 20  1 20 30.0000000  0  8G 3G27G13G10G28G 8G19G 1
  23096772.040    -8569748.89849  -6525935.65245  23096771.718    23096778.913
  20892205.530   -17473249.74949 -13604012.96148  20892204.987    20892210.741
  20516687.253   -23268425.73449 -17623677.54348  20516687.143    20516691.753
  23509015.249    -7384552.89849  -5740866.69445  23509014.368    23509022.116
  23899048.538    -1946165.84249  -1501358.53545  23899047.923    23899056.662
  21666118.105   -16388269.87149 -12761097.83447  21666117.369    21666123.608
  23034873.684   -12003506.37549  -9341803.36546  23034872.460    23034878.317
  24100649.391      752123.16049    603319.10945  24100648.388    24100657.969
 04  7 20  1 21  0.0000000  0  8G 3G27G13G10G28G 8G19G 1
  23100130.727    -8552099.09949  -6512182.57045  23100130.412    23100137.522
  20888410.140   -17493194.57249 -13619554.37348  20888409.595    20888415.387
  20523906.263   -23230489.29349 -17594116.70148  20523906.185    20523910.837
  23499895.784    -7432476.59549  -5778209.77945  23499894.831    23499902.458
  23880121.720    -2045625.36549  -1578859.27845  23880121.007    23880130.042
  21654625.024   -16448666.73649 -12808160.30647  21654624.256    21654630.550
  23024331.250   -12058906.90449  -9384972.56846  23024330.078    23024335.918
  24119363.600      850466.22949    679949.93145  24119362.782    24119372.148
 04  7 20  1 21 30.0000000  0  8G 3G27G13G10G28G 8G19G 1
  23103597.579    -8533880.89449  -6497986.57045  23103597.212    23103604.390
  20884649.386   -17512957.49649 -13634954.04548  20884648.858    20884654.667
  20531214.546   -23192083.98349 -17564190.50148  20531214.476    20531219.124
  23490876.786    -7479872.06349  -5815141.29845  23490875.675    23490883.219
  23861227.410    -2144915.08149  -1656227.66945  23861226.757    23861235.698
  21643168.490   -16508870.67649 -12855072.44847  21643167.737    21643174.113
  23013865.433   -12113905.25749  -9427828.38146  23013864.233    23013870.054
  24138110.702      948983.64549    756716.63145  24138110.074    24138119.549
 04  7 20  1 22  0.0000000  0  8G 3G27G13G10G28G 8G19G 1
  23107172.583    -8515094.39449  -6483347.74445  23107172.088    23107179.339
  20880923.343   -17532538.11049 -13650211.66348  20880922.788    20880928.559
  20538612.017   -23153209.78849 -17533898.94548  20538611.975    20538616.619
  23481958.346    -7526737.60249  -5851659.85745  23481957.340    23481964.940
  23842365.932    -2244033.05049  -1733462.26445  23842365.135    23842373.900
  21631748.828   -16568880.95949 -12901833.67347  21631748.083    21631754.491
  23003476.703   -12168498.68649  -9470368.67446  23003475.495    23003481.281
  24156890.953     1047674.27849    833618.33245  24156890.284    24156899.854
 04  7 20  1 22 30.0000000  0  8G 3G27G13G10G28G 8G19G 1
  23110855.743    -8495739.86849  -6468266.31245  23110855.208    23110862.402
  20877231.988   -17551936.29849 -13665327.12748  20877231.453    20877237.220
  20546098.743   -23113867.03449 -17503242.27448  20546098.682    20546103.302
  23473141.332    -7573071.96549  -5887764.51245  23473140.373    23473147.569
  23823537.254    -2342977.67549  -1810561.75545  23823536.351    23823544.898
  21620366.219   -16628696.93249 -12948443.51047  21620365.492    21620371.776
  22993165.498   -12222684.45449  -9512591.30746  22993164.234    22993169.984
  24175703.767     1146536.82349    910653.96645  24175703.188    24175712.928
 04  7 20  1 23  0.0000000  0  8G 3G27G13G10G28G 8G19G 1
  23114646.733    -8475817.84649  -6452742.66445  23114646.244    23114653.478
  20873575.312   -17571152.12949 -13680300.48848  20873574.785    20873580.552
  20553674.530   -23074056.21149 -17472220.87148  20553674.477    20553679.082
  23464425.734    -7618873.73249  -5923454.17845  23464424.747    23464432.018
  23804741.578    -2441747.68949  -1887525.23745  23804740.831    23804749.091
  21609020.653   -16688318.56149 -12994901.88947  21609019.907    21609026.106
  22982932.112   -12276460.56049  -9554494.71246  22982930.898    22982936.684
  24194549.096     1245569.43849    987822.10645  24194548.472    24194558.423
 04  7 20  1 23 30.0000000  0  8G 3G27G13G10G28G 8G19G 1
  23118545.610    -8455327.81349  -6436776.41345  23118545.254    23118552.706
  20869953.500   -17590184.62049 -13695130.99548  20869952.982    20869958.744
  20561339.562   -23033776.70049 -17440834.26248  20561339.461    20561344.010
  23455811.714    -7664140.78949  -5958727.16845  23455810.760    23455818.213
  23785979.778    -2540340.72849  -1964350.78845  23785979.140    23785987.270
  21597712.153   -16747744.90549 -13041208.11347  21597711.386    21597717.643
  22972777.352   -12329823.87349  -9596076.47446  22972776.168    22972781.944
  24213426.777     1344771.60849   1065122.35545  24213426.184    24213436.168
 04  7 20  1 24  0.0000000  0  8G 3G27G13G10G28G 8G19G 1
  23122552.716    -8434270.58649  -6420368.19645  23122552.290    23122559.689
  20866366.567   -17609034.00449 -13709818.81848  20866366.035    20866371.808
  20569093.691   -22993028.81649 -17409082.67648  20569093.553    20569098.108
  23447299.588    -7708871.88449  -5993582.53045  23447298.553    23447306.125
  23767251.971    -2638755.48049  -2041037.46045  23767251.344    23767259.460
  21586440.827   -16806976.04049 -13087362.21947  21586440.069    21586446.404
  22962701.714   -12382771.98649  -9637334.69746  22962700.424    22962706.180
  24232336.258     1444141.65049   1142553.42445  24232335.872    24232345.952
 04  7 20  1 24 30.0000000  0  8G 3G27G13G10G28G 8G19G 1
  23126667.639    -8412646.85249  -6403518.54345  23126667.041    23126674.535
  20862814.480   -17627700.26549 -13724363.95348  20862813.934    20862819.778
  20576936.748   -22951813.27149 -17376966.68748  20576936.603    20576941.223
  23438889.510    -7753065.97549  -6028019.45445  23438888.476    23438896.334
  23748558.377    -2736990.64849  -2117584.20645  23748557.686    23748565.886
  21575206.733   -16866011.74549 -13133364.03247  21575205.966    21575212.342
  22952705.378   -12435303.00449  -9678267.91146  22952703.974    22952709.749
  24251277.337     1543677.93049   1220114.02845  24251276.900    24251287.382
 04  7 20  1 25  0.0000000  0  8G 3G27G13G10G28G 8G19G 1
  23130890.209    -8390456.67949  -6386227.52045  23130889.757    23130897.264
  20859297.247   -17646183.07449 -13738766.13948  20859296.739    20859302.650
  20584868.716   -22910130.31349 -17344486.47548  20584868.592    20584873.265
  23430581.798    -7796721.45549  -6062036.67245  23430580.767    23430589.083
  23729899.392    -2835044.10449  -2193989.32545  23729898.683    23729906.883
  21564009.950   -16924851.43749 -13179213.11747  21564009.167    21564015.481
  22942789.019   -12487414.09649  -9718873.89946  22942787.548    22942793.217
  24270249.992     1643379.40749   1297803.39545  24270249.277    24270259.834
 04  7 20  1 25 30.0000000  0  8G 3G27G13G10G28G 8G19G 1
  23135220.512    -8367700.61449  -6368495.54245  23135220.140    23135227.557
  20855815.006   -17664482.39249 -13753025.34148  20855814.490    20855820.411
  20592889.643   -22867980.03649 -17311642.11947  20592889.489    20592894.230
  23422377.265    -7839836.98749  -6095633.16845  23422376.187    23422384.549
  23711274.950    -2932914.60249  -2270251.92645  23711274.357    23711282.519
  21552850.487   -16983494.51649 -13224909.00047  21552849.713    21552856.013
  22932952.827   -12539102.93349  -9759150.86646  22932951.508    22932957.089
  24289253.741     1743244.36349   1375620.11145  24289253.129    24289263.403
 04  7 20  1 26  0.0000000  0  8G 3G27G13G10G28G 8G19G 1
  23139658.593    -8344378.90249  -6350322.78445  23139658.187    23139665.425
  20852367.694   -17682597.84949 -13767141.27648  20852367.177    20852373.146
  20600999.393   -22825362.90949 -17278433.99647  20600999.285    20601004.097
  23414275.668    -7882411.20349  -6128807.86345  23414274.575    23414282.990
  23692685.730    -3030600.42649  -2346370.59745  23692685.226    23692693.237
  21541728.442   -17041940.99749 -13270451.68947  21541727.672    21541733.971
  22923197.504   -12590366.94349  -9799096.78346  22923196.262    22923201.827
  24308288.656     1843271.68549   1453563.34645  24308288.062    24308298.210
 04  7 20  1 26 30.0000000  0  8G 3G27G13G10G28G 8G19G 1
  23144203.877    -8320493.03449  -6331710.42445  23144203.362    23144210.727
  20848955.302   -17700529.92649 -13781114.31548  20848954.789    20848960.766
  20609197.829   -22782279.75949 -17244862.73847  20609197.729    20609202.578
  23406277.360    -7924443.46549  -6161560.23545  23406276.262    23406284.237
  23674131.943    -3128100.76249  -2422344.73445  23674131.431    23674139.512
  21530643.842   -17100190.90149 -13315841.20447  21530643.106    21530649.378
  22913523.377   -12641204.53149  -9838710.44546  22913522.139    22913527.730
  24327353.829     1943459.30949   1531631.48945  24327353.313    24327363.608
 04  7 20  1 27  0.0000000  0  8G 3G27G13G10G28G 8G19G 1
  23148856.550    -8296042.39749  -6312658.00345  23148856.140    23148863.361
  20845578.083   -17718277.58949 -13794943.65848  20845577.537    20845583.461
  20617485.188   -22738729.88049 -17210927.79547  20617485.062    20617489.864
  23398382.573    -7965931.65849  -6193888.66945  23398381.478    23398389.007
  23655614.090    -3225413.04949  -2498172.34745  23655613.430    23655621.565
  21519596.818   -17158243.20449 -13361076.74147  21519596.084    21519602.355
  22903930.755   -12691612.47149  -9877989.32446  22903929.730    22903935.376
  24346449.380     2043806.50649   1609823.98745  24346448.785    24346459.245
 04  7 20  1 27 30.0000000  0  8G 3G27G13G10G28G 8G19G 1
  23153616.823    -8271027.41949  -6293165.81745  23153616.385    23153623.515
  20842235.917   -17735840.52449 -13808629.05648  20842235.401    20842241.329
  20625861.193   -22694713.78749 -17176629.56147  20625861.083    20625865.882
  23390591.259    -8006874.54749  -6225792.17845  23390590.271    23390597.580
  23637132.376    -3322535.82249  -2573852.26745  23637131.535    23637139.546
  21508587.415   -17216097.35549 -13406157.86547  21508586.715    21508593.018
  22894420.631   -12741588.47949  -9916931.60946  22894419.583    22894425.249
  24365574.945     2144311.97649   1688139.82745  24365574.274    24365584.757
 04  7 20  1 28  0.0000000  0  8G 3G27G13G10G28G 8G19G 1
  23158484.261    -8245449.23449  -6273234.78145  23158483.736    23158490.936
  20838928.975   -17753218.89949 -13822170.64648  20838928.440    20838934.349
  20634325.804   -22650232.13949 -17141968.56747  20634325.683    20634330.477
  23382904.040    -8047271.04249  -6257269.94445  23382903.143    23382910.092
  23618686.494    -3419467.74549  -2649383.47945  23618685.755    23618693.809
  21497615.934   -17273752.90849 -13451084.24347  21497615.231    21497621.459
  22884993.201   -12791130.26349  -9955535.56846  22884992.060    22884997.673
  24384730.126     2244973.92149   1766577.55945  24384729.584    24384739.996
 04  7 20  1 28 30.0000000  0  8G 3G27G13G10G28G 8G19G 1
  23163458.776    -8219307.78949  -6252864.84545  23163458.312    23163465.561
  20835657.228   -17770412.10249 -13835567.94748  20835656.675    20835662.590
  20642878.950   -22605285.02349 -17106944.86747  20642878.862    20642883.581
  23375321.010    -8087119.63349  -6288320.76745  23375320.113    23375327.024
  23600277.604    -3516206.81549  -2724764.47445  23600276.859    23600284.767
  21486682.236   -17331209.65549 -13495855.70447  21486681.560    21486687.851
  22875648.873   -12840235.35549  -9993799.24246  22875647.629    22875653.270
  24403915.225     2345791.28649   1845136.40845  24403914.531    24403924.756
 04  7 20  1 29  0.0000000  0  8G 3G27G13G10G28G 8G19G 1
  23168540.268    -8192604.10649  -6232056.80445  23168539.884    23168547.052
  20832420.693   -17787420.25549 -13848821.05248  20832420.136    20832426.047
  20651520.545   -22559873.04149 -17071558.93547  20651520.470    20651525.201
  23367842.415    -8126419.42949  -6318943.96545  23367841.570    23367848.536
  23581905.525    -3612751.99449  -2799994.35945  23581904.778    23581912.827
  21475786.491   -17388467.18649 -13540471.94547  21475785.793    21475792.029
  22866388.016   -12888901.77649 -10031721.08946  22866386.710    22866392.355
  24423129.732     2446762.30449   1923814.98945  24423129.118    24423139.011
 04  7 20  1 29 30.0000000  0  8G 3G27G13G10G28G 8G19G 1
  23173728.688    -8165339.12949  -6210811.38245  23173728.292    23173735.425
  20829219.331   -17804243.21649 -13861929.85048  20829218.792    20829224.684
  20660250.437   -22513997.15449 -17035811.51447  20660250.346    20660255.102
  23360468.713    -8165169.33049  -6349138.66745  23360467.785    23360474.712
  23563570.719    -3709101.79449  -2875072.02645  23563570.050    23563578.033
  21464928.619   -17445525.73949 -13584933.13247  21464927.880    21464934.097
  22857210.825   -12937127.15049 -10069299.26646  22857209.674    22857215.233
  24442373.358     2547885.47349   2002612.15845  24442372.517    24442382.473
 04  7 20  1 30  0.0000000  0  8G 3G27G13G10G28G 8G19G 1
  23179023.764    -8137513.36549  -6189128.96745  23179023.286    23179030.625
  20826053.292   -17820880.71049 -13874894.12748  20826052.804    20826058.642
  20669068.619   -22467656.82349 -16999702.18747  20669068.592    20669073.329
  23353199.606    -8203368.25149  -6378904.03545  23353198.697    23353205.734
  23545273.477    -3805254.53249  -2949996.10445  23545272.677    23545280.473
  21454108.626   -17502384.53049 -13629238.65647  21454107.910    21454114.223
  22848118.212   -12984909.34349 -10106532.09446  22848116.938    22848122.537
  24461644.555     2649159.28149   2081526.72745  24461643.976    24461654.818
 04  7 20  1 30 30.0000000  0  8G 3G27G13G10G28G 8G19G 1
  23184425.631    -8109126.28949  -6167009.19545  23184425.206    23184432.530
  20822922.815   -17837331.46649 -13887712.89348  20822922.341    20822928.180
  20677975.287   -22420852.11049 -16963231.00947  20677975.276    20677979.975
  23346035.962    -8241013.75949  -6408238.18746  23346035.026    23346042.132
  23527014.133    -3901207.54349  -3024764.57745  23527013.388    23527020.863
  21443327.125   -17559041.82049 -13673387.17247  21443326.424    21443332.712
  22839110.484   -13032245.03249 -10143417.01346  22839109.313    22839114.813
  24480944.140     2750583.45049   2160558.50145  24480943.826    24480955.187
 04  7 20  1 31  0.0000000  0  8G 3G27G13G10G28G 8G19G 1
  23189934.158    -8080179.75549  -6144453.47345  23189933.593    23189940.853
  20819827.684   -17853596.33349 -13900386.81848  20819827.204    20819833.079
  20686970.068   -22373584.38749 -16926399.04247  20686970.039    20686974.734
  23338977.477    -8278105.94549  -6437141.16946  23338976.542    23338983.604
  23508792.840    -3996960.62849  -3099377.27045  23508792.072    23508799.530
  21432583.818   -17615498.83449 -13717379.62147  21432583.081    21432589.381
  22830188.089   -13079132.93749 -10179953.00646  22830186.891    22830192.233
  24500273.419     2852155.50749   2239705.39544  24500272.564    24500283.644
 04  7 20  1 31 30.0000000  0  8G 3G27G13G10G28G 8G19G 1
  23195548.743    -8050675.09349  -6121462.83146  23195548.145    23195555.504
  20816767.922   -17869675.51849 -13912916.05848  20816767.452    20816773.290
  20696052.810   -22325854.46349 -16889206.91847  20696052.801    20696057.504
  23332024.606    -8314643.96549  -6465612.32846  23332023.706    23332030.510
  23490609.703    -4092512.58749  -3173833.24645  23490608.970    23490616.726
  21421878.596   -17671755.15549 -13761215.69547  21421877.843    21421884.150
  22821351.208   -13125571.35249 -10216138.73246  22821349.938    22821355.206
  24519630.616     2953873.41049   2318965.93444  24519629.612    24519639.687
 04  7 20  1 32  0.0000000  0  7G 3G27G13G10G28G 8G19
  23201269.666    -8020611.15249  -6098036.39446  23201269.155    23201276.565
  20813743.971   -17885566.92749 -13925298.97748  20813743.455    20813749.287
  20705223.800   -22277661.01649 -16851653.60847  20705223.742    20705228.408
  23325177.598    -8350625.11349  -6493649.54146  23325176.606    23325183.429
  23472465.522    -4187860.05149  -3248129.85145  23472464.790    23472472.700
  21411211.969   -17727808.42449 -13804893.54547  21411211.247    21411217.489
  22812600.533   -13171556.22349 -10251971.03646  22812599.336    22812604.507
 04  7 20  1 32 30.0000000  0  7G 3G27G13G10G28G 8G19
  23207097.433    -7989986.19449  -6074172.80546  23207096.882    23207104.305
  20810756.175   -17901267.78749 -13937533.41048  20810755.664    20810761.499
  20714483.233   -22229002.30049 -16813737.75147  20714483.182    20714487.906
  23318437.298    -8386045.65749  -6521249.94346  23318436.353    23318443.012
  23454361.102    -4282999.02649  -3322264.03545  23454360.464    23454368.191
  21400584.560   -17783656.18949 -13848411.25847  21400583.784    21400589.910
  22803937.174   -13217082.62249 -10287446.09746  22803935.884    22803941.037
 04  7 20  1 33  0.0000000  0  7G 3G27G13G10G28G 8G19
  23213030.800    -7958806.05949  -6049876.62746  23213030.293    23213037.707
  20807803.742   -17916782.95949 -13949623.15348  20807803.238    20807809.003
  20723830.205   -22179883.77849 -16775463.60547  20723830.141    20723834.921
  23311802.912    -8420909.85549  -6548416.83246  23311801.856    23311808.505
  23436295.771    -4377933.03049  -3396238.45645  23436295.151    23436302.740
  21389995.274   -17839303.12249 -13891772.48947  21389994.505    21390000.584
  22795360.202   -13262153.63849 -10322566.32146  22795359.042    22795364.203
 04  7 20  1 33 30.0000000  0  7G 3G27G13G10G28G 8G19
  23219069.831    -7927070.58549  -6025147.71146  23219069.393    23219076.788
  20804886.781   -17932111.53749 -13961567.49248  20804886.257    20804892.039
  20733264.598   -22130305.55949 -16736831.25247  20733264.540    20733269.364
  23305274.552    -8455215.80149  -6575148.69746  23305273.466    23305280.273
  23418269.777    -4472660.09149  -3470051.64346  23418269.071    23418276.678
  21379444.404   -17894748.02349 -13934976.28547  21379443.669    21379449.807
  22786870.572   -13306766.56749 -10357329.60246  22786869.458    22786874.536
 04  7 20  1 34  0.0000000  0  7G 3G27G13G10G28G 8G19
  23225214.558    -7894780.09549  -5999986.29546  23225214.089    23225221.412
  20802005.579   -17947252.40149 -13973365.56648  20802005.072    20802010.855
  20742786.643   -22080267.09049 -16697840.26447  20742786.578    20742791.382
  23298852.778    -8488961.97749  -6601444.39946  23298851.751    23298858.724
  23400283.362    -4567177.99749  -3543701.84646  23400282.760    23400290.305
  21368932.269   -17949989.82549 -13978021.82547  21368931.477    21368937.587
  22778468.891   -13350918.32249 -10391733.53146  22778467.565    22778472.719
 04  7 20  1 34 30.0000000  0  7G 3G27G13G10G28G 8G19
  23231464.661    -7861935.86049  -5974393.40546  23231464.152    23231471.462
  20799160.098   -17962205.62649 -13985017.43248  20799159.562    20799165.381
  20752396.090   -22029769.09549 -16658491.20347  20752396.035    20752400.866
  23292537.687    -8522147.63049  -6627303.31146  23292536.652    23292543.832
  23382337.303    -4661485.31449  -3617187.97146  23382336.725    23382344.098
  21358458.777   -18005027.72949 -14020908.48447  21358458.037    21358464.132
  22770155.114   -13394606.99549 -10425776.62946  22770153.880    22770159.118
 04  7 20  1 35  0.0000000  0  7G 3G27G13G10G28G 8G19
  23237820.075    -7828538.46949  -5948369.49746  23237819.432    23237826.847
  20796350.375   -17976970.61149 -13996522.62248  20796349.847    20796355.694
  20762092.794   -21978812.42949 -16618784.73347  20762092.772    20762097.613
  23286329.339    -8554771.62149  -6652724.59146  23286328.341    23286335.671
  23364431.603    -4755580.35249  -3690508.70746  23364430.991    23364438.348
  21348024.142   -18059861.82849 -14063636.33647  21348023.441    21348029.512
  22761929.955   -13437830.31449 -10459457.10146  22761928.735    22761933.950
 04  7 20  1 35 30.0000000  0  7G 3G27G13G10G28G 8G19
  23244280.462    -7794588.54549  -5921915.01746  23244279.920    23244287.253
  20793576.654   -17991546.51549 -14007880.47248  20793576.137    20793581.974
  20771876.980   -21927396.86449 -16578720.68547  20771876.899    20771881.697
  23280228.196    -8586832.31049  -6677706.92046  23280227.235    23280234.809
  23346566.573    -4849461.11449  -3763662.44646  23346565.950    23346573.438
  21337628.612   -18114491.03149 -14106204.53047  21337627.838    21337633.868
  22753793.892   -13480585.50149 -10492772.81346  22753792.687    22753797.874
 04  7 20  1 36  0.0000000  0  7G 3G27G13G10G28G 8G19
  23250845.961    -7760086.70649  -5895030.48646  23250845.525    23250852.744
  20790838.937   -18005933.28249 -14019090.94348  20790838.422    20790844.253
  20781748.120   -21875523.76549 -16538300.11747  20781748.065    20781752.829
  23274234.397    -8618329.13749  -6702249.88046  23274233.434    23274241.242
  23328742.610    -4943126.38449  -3836648.26846  23328741.888    23328749.428
  21327272.031   -18168914.85249 -14148612.69347  21327271.297    21327277.398
  22745747.202   -13522870.80549 -10525722.35846  22745745.988    22745751.240
 04  7 20  1 36 30.0000000  0  7G 3G27G13G10G28G 8G19
  23257516.262    -7725034.51549  -5867717.12346  23257515.807    23257522.971
  20788137.204   -18020131.17249 -14030154.23448  20788136.692    20788142.460
  20791706.437   -21823192.94549 -16497522.88347  20791706.351    20791711.087
  23268348.072    -8649261.66849  -6726353.10746  23268347.129    23268354.849
  23310959.999    -5036575.14349  -3909465.41346  23310959.238    23310966.634
  21316954.540   -18223133.53249 -14190860.99847  21316953.800    21316959.950
  22737790.295   -13564684.44049 -10558304.37546  22737789.086    22737794.353
 04  7 20  1 37  0.0000000  0  7G 3G27G13G10G28G 8G19
  23264291.018    -7689433.33749  -5839975.97446  23264290.466    23264297.714
  20785471.337   -18034140.01149 -14041070.21348  20785470.828    20785476.631
  20801751.536   -21770405.72349 -16456390.01847  20801751.457    20801756.189
  23262569.434    -8679629.18049  -6750016.06246  23262568.419    23262576.044
  23293218.764    -5129805.96249  -3982112.69546  23293218.060    23293225.232
  21306676.212   -18277146.73649 -14232949.20347  21306675.455    21306681.514
  22729923.463   -13606024.79649 -10590517.59946  22729922.282    22729927.521
 04  7 20  1 37 30.0000000  0  7G 3G27G13G10G28G 8G19
  23271170.163    -7653283.21649  -5811807.07346  23271169.584    23271176.804
  20782841.724   -18047958.55849 -14051837.92348  20782841.218    20782847.036
  20811883.377   -21717162.18849 -16414901.57747  20811883.363    20811888.086
  23256898.442    -8709429.99049  -6773237.43746  23256897.515    23256905.139
  23275519.258    -5222816.89949  -4054588.64046  23275518.544    23275525.612
  21296437.141   -18330953.19649 -14274876.29547  21296436.394    21296442.547
  22722147.361   -13646888.96449 -10622359.75846  22722145.996    22722151.353
 04  7 20  1 38  0.0000000  0  7G 3G27G13G10G28G 8G19
  23278153.617    -7616584.88849  -5783210.97846  23278153.040    23278160.291
  20780248.444   -18061586.46949 -14062457.08348  20780247.894    20780253.773
  20822102.039   -21663463.21849 -16373058.24847  20822101.969    20822106.675
  23251335.715    -8738663.28449  -6796016.60046  23251334.676    23251342.194
  23257861.782    -5315606.19849  -4126891.88946  23257861.088    23257868.158
  21286237.509   -18384552.64549 -14316642.08647  21286236.765    21286243.017
  22714462.047   -13687274.70849 -10653829.13146  22714460.866    22714466.156
 04  7 20  1 38 30.0000000  0  7G 3G27G13G10G28G 8G19
  23285241.288    -7579339.55149  -5754188.63546  23285240.653    23285247.941
  20777691.439   -18075023.50949 -14072927.51448  20777690.944    20777696.797
  20832407.223   -21609309.20349 -16330860.33747  20832407.175    20832411.858
  23245880.831    -8767328.07749  -6818352.79346  23245879.902    23245887.418
  23240246.875    -5408172.59549  -4199021.46246  23240246.293    23240253.202
  21276077.430   -18437944.37849 -14358246.01747  21276076.688    21276082.956
  22706868.232   -13727180.03249 -10684924.13346  22706867.023    22706872.282
 04  7 20  1 39  0.0000000  0  7G 3G27G13G10G28G 8G19
  23292432.388    -7541548.51149  -5724741.10346  23292431.955    23292439.422
  20775170.845   -18088269.50949 -14083249.07548  20775170.329    20775176.158
  20842798.849   -21554700.87649 -16288308.42347  20842798.791    20842803.531
  23240534.324    -8795424.24449  -6840245.90146  23240533.363    23240540.920
  23222674.614    -5500514.72149  -4270976.24346  23222674.137    23222680.929
  21265957.013   -18491128.04849 -14399687.82747  21265956.255    21265962.384
  22699366.236   -13766603.35749 -10715643.54546  22699364.977    22699370.235
 04  7 20  1 39 30.0000000  0  7G 3G27G13G10G28G 8G19
  23299727.465    -7503212.62749  -5694868.99246  23299727.064    23299734.477
  20772686.669   -18101324.03349 -14093421.43348  20772686.149    20772691.989
  20853276.803   -21499638.85549 -16245402.97247  20853276.747    20853281.523
  23235296.106    -8822950.58149  -6861694.98346  23235295.190    23235302.867
  23205145.439    -5592630.91049  -4342754.96946  23205144.902    23205151.880
  21255876.159   -18544103.21249 -14440967.16447  21255875.384    21255881.448
  22691956.321   -13805542.31149 -10745985.54346  22691955.166    22691960.322
 04  7 20  1 40  0.0000000  0  7G 3G27G13G10G28G 8G19
  23307126.150    -7464333.19349  -5664573.34846  23307125.652    23307133.027
  20770238.975   -18114186.94849 -14103444.48948  20770238.433    20770244.265
  20863840.900   -21444124.24549 -16202144.85747  20863840.854    20863845.649
  23230166.437    -8849906.53249  -6882699.63145  23230165.481    23230173.349
  23187659.472    -5684520.26349  -4414356.96346  23187658.878    23187665.854
  21245834.963   -18596869.63649 -14482083.83547  21245834.205    21245840.264
  22684638.947   -13843995.31249 -10775948.88246  22684637.782    22684642.933
 04  7 20  1 40 30.0000000  0  7G 3G27G13G10G28G 8G19
  23314627.639    -7424911.76449  -5633855.37446  23314627.239    23314634.787
  20767827.616   -18126858.35749 -14113318.31248  20767827.093    20767832.962
  20874490.920   -21388158.16249 -16158534.94447  20874490.851    20874495.707
  23225145.512    -8876291.97749  -6903259.67245  23225144.567    23225152.357
  23170216.957    -5776181.80749  -4485781.47246  23170216.243    23170222.960
  21235833.488   -18649427.38249 -14523037.90247  21235832.749    21235838.862
  22677414.372   -13881960.77949 -10805532.33446  22677413.153    22677418.364
 04  7 20  1 41  0.0000000  0  7G 3G27G13G10G28G 8G19
  23322232.361    -7384948.73849  -5602715.34546  23322231.955    23322239.541
  20765453.004   -18139337.06149 -14123041.97948  20765452.506    20765458.371
  20885226.877   -21331740.62249 -16114573.25047  20885226.788    20885231.650
  23220233.485    -8902105.41449  -6923374.03345  23220232.487    23220240.333
  23152817.786    -5867613.02749  -4557026.48746  23152817.229    23152823.998
  21225872.067   -18701775.07649 -14563828.30947  21225871.335    21225877.423
  22670282.943   -13919436.03649 -10834733.81146  22670281.820    22670287.032
 04  7 20  1 41 30.0000000  0  7G 3G27G13G10G28G 8G19
  23329939.975    -7344445.80049  -5571154.62846  23329939.409    23329946.969
  20763115.055   -18151623.06449 -14132615.48448  20763114.565    20763120.423
  20896048.411   -21274872.84249 -16070260.71547  20896048.367    20896053.276
  23215430.345    -8927346.47849  -6943042.38845  23215429.253    23215437.072
  23135462.893    -5958813.00949  -4628091.31346  23135462.313    23135469.260
  21215950.638   -18753912.65749 -14604454.98147  21215949.894    21215955.984
  22663245.208   -13956419.65449 -10863552.18946  22663244.033    22663249.320
 04  7 20  1 42  0.0000000  0  7G 3G27G13G10G28G 8G19
  23337749.823    -7303404.11849  -5539174.11046  23337749.442    23337756.932
  20760813.838   -18163716.24049 -14142038.73548  20760813.348    20760819.163
  20906955.637   -21217555.50449 -16025597.88247  20906955.526    20906960.420
  23210736.160    -8952014.67849  -6962264.34746  23210735.093    23210742.688
  23118152.332    -6049780.51649  -4698974.97346  23118151.687    23118158.842
  21206069.211   -18805839.81249 -14644917.67747  21206068.454    21206074.580
  22656301.410   -13992909.76849 -10891986.01847  22656300.160    22656305.444
 04  7 20  1 42 30.0000000  0  7G 3G27G13G10G28G 8G19
  23345662.349    -7261824.29749  -5506774.25146  23345661.835    23345669.380
  20758549.462   -18175615.63949 -14151310.98748  20758548.946    20758554.779
  20917948.254   -21159788.97849 -15980585.02547  20917948.096    20917953.033
  23206151.021    -8976109.02849  -6981039.16346  23206150.057    23206157.682
  23100886.235    -6140513.59349  -4769675.97346  23100885.700    23100892.899
  21196227.985   -18857555.29349 -14685215.44347  21196227.287    21196233.385
  22649451.902   -14028904.05149 -10920033.48347  22649450.721    22649455.913
 04  7 20  1 43  0.0000000  0  7G 3G27G13G10G28G 8G19
  23353676.632    -7219707.86049  -5473956.27145  23353676.287    23353683.922
  20756321.960   -18187321.07749 -14160432.10448  20756321.478    20756327.348
  20929026.053   -21101574.68049 -15935223.26847  20929025.967    20929030.878
  23201675.253    -8999629.11549  -6999366.47146  23201674.275    23201681.915
  23083665.050    -6231011.32349  -4840193.58346  23083664.522    23083671.500
  21186427.269   -18909058.87649 -14725348.08747  21186426.512    21186432.532
  22642697.171   -14064400.97049 -10947693.39347  22642695.868    22642701.099
 04  7 20  1 43 30.0000000  0  7G 3G27G13G10G28G 8G19
  23361793.008    -7177056.14249  -5440721.17945  23361792.637    23361800.252
  20754131.409   -18198832.76949 -14169402.24648  20754130.904    20754136.737
  20940189.033   -21042913.21649 -15889513.06547  20940188.879    20940193.795
  23197308.918    -9022574.74049  -7017246.18246  23197307.948    23197315.560
  23066489.067    -6321272.41949  -4910526.79046  23066488.353    23066495.135
  21176666.725   -18960350.61549 -14765315.66547  21176665.989    21176672.004
  22636037.216   -14099398.92549 -10974964.49147  22636035.978    22636041.121
 04  7 20  1 44  0.0000000  0  7G 3G27G13G10G28G 8G19
  23370011.069    -7133870.56049  -5407070.09345  23370010.619    23370018.313
  20751977.842   -18210149.94449 -14178220.81448  20751977.315    20751983.124
  20951436.835   -20983805.36549 -15843455.03347  20951436.742    20951441.663
  23193052.013    -9044945.25949  -7034677.75946  23193051.015    23193058.556
  23049358.146    -6411295.51249  -4980674.55146  23049357.472    23049364.164
  21166946.609   -19011430.03649 -14805117.79547  21166945.888    21166951.913
  22629472.717   -14133895.91349 -11001845.22346  22629471.453    22629476.451
 04  7 20  1 44 30.0000000  0  7G 3G27G13G10G28G 8G19
  23378330.525    -7090151.93449  -5373003.64245  23378330.059    23378337.782
  20749861.420   -18221271.96549 -14186887.31748  20749860.910    20749866.683
  20962769.459   -20924251.83449 -15797049.71547  20962769.387    20962774.395
  23188904.636    -9066739.95249  -7051660.63146  23188903.646    23188911.160
  23032272.790    -6501078.90149  -5050635.55046  23032272.240    23032278.948
  21157267.138   -19062296.15749 -14844753.71247  21157266.399    21157272.434
  22623003.832   -14167890.00249 -11028334.10346  22623002.552    22623007.499
 04  7 20  1 45  0.0000000  0  7G 3G27G13G10G28G 8G19
  23386751.098    -7045901.65249  -5338522.92145  23386750.580    23386758.379
  20747782.116   -18232198.59049 -14195401.56148  20747781.620    20747787.425
  20974186.714   -20864253.69149 -15750297.95247  20974186.613    20974191.659
  23184866.967    -9087958.06949  -7068194.23046  23184865.952    23184873.567
  23015233.246    -6590621.31949  -5120408.73846  23015232.726    23015239.541
  21147628.357   -19112948.44549 -14884223.00447  21147627.602    21147633.629
  22616630.935   -14201379.42249 -11054429.71146  22616629.693    22616634.620
 04  7 20  1 45 30.0000000  0  7G 3G27G13G10G28G 8G19
  23395272.301    -7001121.17249  -5303629.06345  23395272.000    23395279.841
  20745740.003   -18242929.46549 -14203763.27948  20745739.543    20745745.386
  20985688.484   -20803811.66549 -15703200.31047  20985688.380    20985693.432
  23180939.047    -9108599.34549  -7084278.33146  23180938.090    23180945.693
  22998239.945    -6679921.32649  -5189993.07646  22998239.331    22998246.154
  21138030.323   -19163386.44649 -14923525.32847  21138029.567    21138035.573
  22610354.354   -14234362.33849 -11080130.66746  22610353.178    22610358.152
 04  7 20  1 46  0.0000000  0  7G 3G27G13G10G28G 8G19
  23403894.533    -6955811.30449  -5268322.68345  23403894.221    23403902.042
  20743735.435   -18253463.62249 -14211971.71048  20743734.941    20743740.800
  20997274.628   -20742926.22749 -15655757.14747  20997274.549    20997279.532
  23177121.131    -9128662.93449  -7099912.28646  23177120.144    23177127.672
  22981292.958    -6768977.19449  -5259387.19446  22981292.413    22981299.295
  21128473.198   -19213609.22149 -14962659.93747  21128472.473    21128478.470
  22604174.562   -14266836.64949 -11105435.28846  22604173.457    22604178.422
 04  7 20  1 46 30.0000000  0  7G 3G27G13G10G28G 8G19
  23412617.078    -6909974.68649  -5232605.85645  23412616.683    23412624.541
  20741768.042   -18263802.07449 -14220027.64548  20741767.573    20741773.492
  21008944.764   -20681599.72949 -15607970.30147  21008944.670    21008949.632
  23173413.053    -9148149.54749  -7115096.66546  23173412.050    23173419.399
  22964392.602    -6857788.96449  -5328591.08746  22964392.082    22964398.935
  21118956.987   -19263617.36649 -15001627.30347  21118956.211    21118962.191
  22598091.950   -14298801.82449 -11130343.17346  22598090.727    22598095.583
 04  7 20  1 47  0.0000000  0  7G 3G27G13G10G28G 8G19
  23421439.495    -6863612.31549  -5196479.36145  23421439.086    23421447.176
  20739838.207   -18273943.83149 -14227930.31548  20739837.699    20739843.580
  21020698.752   -20619832.28849 -15559839.86947  21020698.683    21020703.679
  23169814.818    -9167058.37049  -7129830.79646  23169813.821    23169821.221
  22947539.256    -6946354.85849  -5397603.37546  22947538.590    22947545.445
  21109481.647   -19313410.26449 -15040426.95347  21109480.891    21109486.901
  22592106.438   -14330255.90149 -11154852.80346  22592105.231    22592110.087
 04  7 20  1 47 30.0000000  0  7G 3G27G13G10G28G 8G19
  23430361.747    -6816724.85849  -5159943.69245  23430361.418    23430369.536
  20737946.005   -18283887.79849 -14235678.85448  20737945.449    20737951.290
  21032536.591   -20557624.53049 -15511366.32847  21032536.498    21032541.467
  23166326.693    -9185388.49749  -7144113.98146  23166325.706    23166333.112
  22930732.812    -7034672.67649  -5466422.34846  22930732.155    22930739.013
  21100047.562   -19362986.61149 -15079057.85747  21100046.861    21100052.785
  22586218.605   -14361196.35449 -11178962.21146  22586217.417    22586222.307
 04  7 20  1 48  0.0000000  0  7G 3G27G13G10G28G 8G19
  23439383.893    -6769313.92149  -5123000.12146  23439383.502    23439391.716
  20736091.340   -18293633.87749 -14243273.20448  20736090.843    20736096.667
  21044457.894   -20494977.66349 -15462550.62247  21044457.785    21044462.775
  23162948.727    -9203139.86949  -7157946.22646  23162947.715    23162955.106
  22913973.826    -7122741.37249  -5535047.22346  22913973.206    22913979.878
  21090654.787   -19412346.19149 -15117519.85347  21090654.054    21090659.935
  22580428.906   -14391622.03549 -11202670.49547  22580427.645    22580432.485
 04  7 20  1 48 30.0000000  0  7G 3G27G13G10G28G 8G19
  23448505.212    -6721381.25549  -5085650.02446  23448504.788    23448513.085
  20734274.364   -18303182.19849 -14250713.44948  20734273.831    20734279.712
  21056462.455   -20431893.03149 -15413393.79747  21056462.404    21056467.424
  23159680.801    -9220312.53249  -7171327.50346  23159679.787    23159687.232
  22897262.376    -7210560.25249  -5603477.41646  22897261.686    22897268.311
  21081303.341   -19461488.49249 -15155812.54547  21081302.588    21081308.466
  22574737.274   -14421531.75049 -11225976.74147  22574735.986    22574740.830
 04  7 20  1 49  0.0000000  0  7G 3G27G13G10G28G 8G19
  23457725.617    -6672927.82949  -5047894.12346  23457725.165    23457733.497
  20732495.189   -18312531.62549 -14257998.72148  20732494.663    20732500.545
  21068550.393   -20368370.89549 -15363896.06147  21068550.256    21068555.321
  23156523.037    -9236905.55249  -7184257.11746  23156522.043    23156529.732
  22880598.805    -7298127.45949  -5671711.50246  22880598.112    22880604.724
  21071993.309   -19510412.88749 -15193935.43547  21071992.523    21071998.466
  22569144.155   -14450923.12049 -11248879.08547  22569142.987    22569147.857
 04  7 20  1 49 30.0000000  0  7G 3G27G13G10G28G 8G19
  23467044.735    -6623955.14349  -5009733.60346  23467044.353    23467052.685
  20730754.026   -18321681.58449 -14265128.57348  20730753.478    20730759.380
  21080721.297   -20304412.18749 -15314058.13847  21080721.200    21080726.263
  23153475.748    -9252918.73049  -7196734.89146  23153474.753    23153482.517
  22863983.365    -7385441.51449  -5739748.33946  22863982.694    22863989.333
  21062724.778   -19559118.85049 -15231888.12747  21062724.010    21062729.984
  22563650.179   -14479794.49249 -11271376.23947  22563648.941    22563653.840
 04  7 20  1 50  0.0000000  0  7G 3G27G13G10G28G 8G19
  23476462.471    -6574465.51949  -4971170.30346  23476462.004    23476470.315
  20729050.690   -18330632.39549 -14272103.23648  20729050.197    20729056.146
  21092974.925   -20240019.00149 -15263881.67047  21092974.847    21092979.905
  23150538.764    -9268352.40549  -7208761.14246  23150537.757    23150545.431
  22847416.194    -7472501.85249  -5807587.45746  22847415.604    22847422.324
  21053497.858   -19607606.28849 -15269670.54247  21053497.117    21053503.095
  22558255.206   -14508144.93449 -11293467.47347  22558253.966    22558258.944
 04  7 20  1 50 30.0000000  0  7G 3G27G13G10G28G 8G19
  23485978.196    -6524459.72749  -4932204.77746  23485977.766    23485986.097
  20727385.501   -18339383.11149 -14278921.98048  20727385.000    20727390.973
  21105311.151   -20175191.68549 -15213366.91947  21105311.107    21105316.101
  23147712.282    -9283205.85249  -7220335.24346  23147711.343    23147718.902
  22830897.643    -7559306.77849  -5875227.56646  22830897.139    22830903.783
  21044312.723   -19655874.62949 -15307282.23047  21044312.006    21044317.947
  22552959.749   -14535972.66149 -11315151.40747  22552958.512    22552963.518
 04  7 20  1 51  0.0000000  0  7G 3G27G13G10G28G 8G19
  23495591.798    -6473940.04449  -4892838.81646  23495591.350    23495599.704
  20725758.274   -18347934.06149 -14285585.06048  20725757.786    20725763.752
  21117729.794   -20109931.65249 -15162514.98647  21117729.670    21117734.657
  23144996.253    -9297479.45549  -7231457.55446  23144995.233    23145002.718
  22814428.025    -7645855.67049  -5942668.17946  22814427.411    22814433.870
  21035169.429   -19703923.29149 -15344722.73247  21035168.676    21035174.615
  22547763.902   -14563276.66649 -11336427.24647  22547762.679    22547767.690
 04  7 20  1 51 30.0000000  0  7G 3G27G13G10G28G 8G19
  23505302.766    -6422907.71449  -4853073.36745  23505302.438    23505310.701
  20724169.312   -18356284.28849 -14292091.73748  20724168.826    20724174.775
  21130230.491   -20044239.87049 -15111326.61847  21130230.436    21130235.435
  23142390.636    -9311172.98149  -7242127.83046  23142389.587    23142397.009
  22798007.457    -7732146.93949  -6009908.03446  22798006.709    22798013.197
  21026068.034   -19751751.68449 -15381991.60047  21026067.237    21026073.119
  22542668.150   -14590054.95449 -11357293.43746  22542666.926    22542671.889
 04  7 20  1 52  0.0000000  0  7G 3G27G13G10G28G 8G19
  23515111.316    -6371363.83449  -4812909.34545  23515110.907    23515119.131
  20722618.644   -18364433.04249 -14298441.41748  20722618.160    20722624.083
  21142813.330   -19978116.91449 -15059802.27447  21142813.225    21142818.263
  23139895.235    -9324285.90949  -7252345.67546  23139894.215    23139901.697
  22781635.890    -7818179.05449  -6076945.97046  22781635.202    22781641.779
  21017008.645   -19799359.04649 -15419088.23247  21017007.858    21017013.735
  22537672.859   -14616305.75149 -11377748.59146  22537671.545    22537676.504
 04  7 20  1 52 30.0000000  0  7G 3G27G13G10G28G 8G19
  23525016.960    -6319309.81749  -4772347.80245  23525016.510    23525024.501
  20721106.506   -18372379.64349 -14304633.58648  20721105.987    20721111.869
  21155478.050   -19911563.65749 -15007942.62547  21155477.937    21155483.016
  23137510.400    -9336817.71149  -7262110.68646  23137509.416    23137517.016
  22765314.120    -7903950.23749  -6143780.58546  22765313.392    22765319.824
  21007991.448   -19846744.32449 -15456011.81347  21007990.701    21007996.621
  22532778.059   -14642027.50949 -11397791.49046  22532776.813    22532781.725
 04  7 20  1 53  0.0000000  0  7G 3G27G13G10G28G 8G19
  23535019.199    -6266747.54849  -4731390.20545  23535018.766    23535026.626
  20719632.777   -18380124.00949 -14310668.15748  20719632.267    20719638.178
  21168224.225   -19844581.78349 -14955748.99147  21168224.163    21168229.274
  23135236.032    -9348768.94149  -7271423.29746  23135235.030    23135242.754
  22749041.903    -7989459.93849  -6210411.45846  22749041.227    22749047.769
  20999016.546   -19893907.83549 -15492762.58547  20999015.804    20999021.724
  22527984.304   -14667219.24049 -11417421.39046  22527982.972    22527987.832
 04  7 20  1 53 30.0000000  0  7G 3G27G13G10G28G 8G19
  23545117.858    -6213678.34749  -4690037.61145  23545117.555    23545125.341
  20718197.711   -18387665.32649 -14316544.51148  20718197.221    20718203.105
  21181051.861   -19777171.97549 -14903221.89647  21181051.823    21181056.992
  23133072.248    -9360138.86649  -7280282.97846  23133071.198    23133079.127
  22732819.866    -8074706.54449  -6276837.31146  22732819.267    22732825.810
  20990084.121   -19940848.01149 -15529339.34747  20990083.378    20990089.293
  22523291.646   -14691878.99549 -11436636.75746  22523290.361    22523295.193
 04  7 20  1 54  0.0000000  0  7G 3G27G13G10G28G 8G19
  23555312.755    -6160104.74449  -4648291.97145  23555312.226    23555320.070
  20716801.176   -18395003.99349 -14322262.96048  20716800.707    20716806.578
  21193960.567   -19709336.13949 -14850362.83347  21193960.527    21193965.764
  23131019.159    -9370928.38249  -7288690.37746  23131018.139    23131025.965
  22716648.328    -8159689.62649  -6343057.82346  22716647.562    22716653.988
  20981194.103   -19987565.39749 -15565742.49847  20981193.352    20981199.293
  22518700.232   -14716006.41249 -11455437.31446  22518698.999    22518703.862
 04  7 20  1 54 30.0000000  0  7G 3G27G13G10G28G 8G19
  23565603.127    -6106028.61249  -4606154.72545  23565602.553    23565610.527
  20715443.316   -18402139.60849 -14327823.18148  20715442.837    20715448.734
  21206950.151   -19641075.63849 -14797172.86647  21206950.114    21206955.339
  23129076.425    -9381137.54349  -7296645.55646  23129075.355    23129083.162
  22700526.909    -8244407.81249  -6409071.91946  22700526.243    22700532.612
  20972346.447   -20034059.83149 -15601971.91747  20972345.707    20972351.644
  22514210.663   -14739600.02349 -11473821.90846  22514209.307    22514214.182
 04  7 20  1 55  0.0000000  0  7G 3G27G13G10G28G 8G19
  23575988.848    -6051450.92249  -4563626.67345  23575988.363    23575996.320
  20714124.225   -18409071.27349 -14333224.48648  20714123.770    20714129.682
  21220020.405   -19572391.25649 -14743652.59847  21220020.385    21220025.608
  23127244.126    -9390766.05349  -7304148.30146  23127243.122    23127250.829
  22684456.148    -8328859.86249  -6474878.64546  22684455.498    22684461.794
  20963541.478   -20080329.94249 -15638026.53147  20963540.773    20963546.665
  22509822.853   -14762658.04649 -11491789.16446  22509821.485    22509826.437
 04  7 20  1 55 30.0000000  0  7G 3G27G13G10G28G 8G19
  23586469.797    -5996373.05549  -4520708.82945  23586469.328    23586477.121
  20712844.183   -18415798.03649 -14338466.12448  20712843.707    20712849.641
  21233171.238   -19503283.59149 -14689802.51747  21233171.161    21233176.360
  23125522.550    -9399813.60249  -7311198.33046  23125521.485    23125529.123
  22668436.478    -8413043.88749  -6540476.50746  22668435.719    22668442.140
  20954779.434   -20126374.95249 -15673905.75247  20954778.708    20954784.557
  22505537.127   -14785178.76049 -11509337.74646  22505535.882    22505540.838
 04  7 20  1 56  0.0000000  0  7G 3G27G13G10G28G 8G19
  23597045.646    -5940797.11649  -4477402.94045  23597045.146    23597052.940
  20711603.080   -18422319.81649 -14343548.03448  20711602.636    20711608.582
  21246402.320   -19433754.36649 -14635623.93647  21246402.212    21246407.397
  23123911.202    -9408280.32949  -7317795.78446  23123910.220    23123917.888
  22652467.851    -8496959.24049  -6605865.05946  22652467.064    22652473.573
  20946060.267   -20172194.53049 -15709609.30347  20946059.525    20946065.408
  22501354.036   -14807161.34449 -11526467.00447  22501352.758    22501357.694
 04  7 20  1 56 30.0000000  0  7G 3G27G13G10G28G 8G19
  23607715.871    -5884724.58449  -4433710.07045  23607715.499    23607723.224
  20710401.299   -18428635.83449 -14348469.61148  20710400.778    20710406.682
  21259713.364   -19363804.47749 -14581117.56747  21259713.267    21259718.448
  23122410.740    -9416166.10549  -7323940.54146  23122409.768    23122417.182
  22636550.478    -8580604.46649  -6671043.09846  22636549.793    22636556.437
  20937384.027   -20217788.08249 -15745136.73447  20937383.311    20937389.237
  22497273.586   -14828604.24249 -11543175.71947  22497272.263    22497277.255
 04  7 20  1 57  0.0000000  0  7G 3G27G13G10G28G 8G19
  23618480.245    -5828158.02049  -4389632.21845  23618479.787    23618487.481
  20709238.555   -18434746.30949 -14353231.02048  20709238.033    20709243.878
  21273104.091   -19293435.78149 -14526284.85347  21273103.986    21273109.231
  23121020.603    -9423471.93549  -7329633.38246  23121019.551    23121026.826
  22620684.796    -8663979.16549  -6736010.34446  22620684.076    22620690.728
  20928750.953   -20263155.37949 -15780487.86147  20928750.198    20928756.126
  22493295.983   -14849506.71649 -11559463.34247  22493294.636    22493299.668
 04  7 20  1 57 30.0000000  0  7G 3G27G13G10G28G 8G19
  23629338.366    -5771098.58949  -4345170.33645  23629337.850    23629345.553
  20708115.099   -18440650.28549 -14357831.52248  20708114.571    20708120.391
  21286574.335   -19222648.90249 -14471126.28147  21286574.261    21286579.540
  23119740.777    -9430197.11749  -7334873.77946  23119739.747    23119747.019
  22604870.970    -8747081.44449  -6800765.30146  22604870.304    22604876.900
  20920161.080   -20308295.42849 -15815661.90747  20920160.334    20920166.241
  22489421.451   -14869867.13249 -11575328.58647  22489420.158    22489425.210
 04  7 20  1 58  0.0000000  0  8G 3G31G27G13G10G28G 8G19
  23640289.788    -5713547.78949  -4300325.55445  23640289.328    23640297.065
                  -1554355.77149  -1188907.15543
  20707030.962   -18446347.24549 -14362270.71148  20707030.451    20707036.311
  21300124.026   -19151445.21749 -14415642.92847  21300123.901    21300129.211
  23118571.484    -9436342.10949  -7339662.06446  23118570.456    23118577.570
  22589109.198    -8829910.25649  -6865307.19446  22589108.535    22589114.956
  20911614.592   -20353207.55349 -15850658.34847  20911613.831    20911619.702
  22485650.281   -14889684.28649 -11590770.50846  22485649.009    22485654.117
 04  7 20  1 58 30.0000000  0  8G 3G31G27G13G10G28G 8G19
  23651334.445    -5655507.99549  -4255099.73945  23651333.933    23651341.666
                  -1669224.89849  -1278415.03643
  20705986.285   -18451837.04249 -14366548.47948  20705985.784    20705991.635
  21313752.629   -19079826.18249 -14359835.92047  21313752.576    21313757.910
  23117512.461    -9441907.32949  -7343998.62046  23117511.440    23117518.358
  22573399.477    -8912465.00049  -6929635.52046  22573398.841    22573405.145
  20903111.445   -20397891.62749 -15885477.08947  20903110.708    20903116.578
  22481982.728   -14908957.16449 -11605788.32546  22481981.478    22481986.608
 04  7 20  1 59  0.0000000  0  7G 3G27G13G10G28G 8G19
  23662471.833    -5596980.30449  -4209493.74745  23662471.452    23662479.017
  20704981.252   -18457118.50349 -14370663.90948  20704980.740    20704986.579
  21327460.170   -19007792.70849 -14303705.98147  21327460.097    21327465.444
  23116563.705    -9446892.50449  -7347883.14746  23116562.727    23116569.845
  22557742.215    -8994743.85249  -6993748.83746  22557741.630    22557747.944
  20894651.982   -20442346.37749 -15920117.14747  20894651.224    20894657.075
  22478419.063   -14927684.38649 -11620380.96546  22478417.776    22478422.937
 04  7 20  1 59 30.0000000  0  8G 3G31G27G13G10G28G 8G19
  23673701.712    -5537967.32849  -4163509.63645  23673701.358    23673708.854
                  -1899126.62649  -1457558.91044                  24561404.606
  20704015.813   -18462191.83749 -14374617.15848  20704015.328    20704021.154
  21341246.235   -18935346.59849 -14247254.49347  21341246.143    21341251.482
  23115725.245    -9451298.54449  -7351316.41846  23115724.297    23115731.595
  22542137.645    -9076746.26449  -7057646.74146  22542137.063    22542143.378
  20886236.015   -20486572.18449 -15954578.79547  20886235.280    20886241.198
  22474959.197   -14945865.16949 -11634547.80046  22474958.041    22474963.250
 04  7 20  2  0  0.0000000  0  8G 3G31G27G13G10G28G 8G19
  23685022.969    -5478473.64749  -4117150.95145  23685022.630    23685030.062
  24539509.386    -2014157.13949  -1547192.89144  24539507.632    24539517.871
  20703089.596   -18467059.32649 -14378410.00148  20703089.100    20703094.867
  21355110.074   -18862492.06649 -14190484.76647  21355109.955    21355115.265
  23114996.478    -9455128.52049  -7354300.81146  23114995.502    23115002.919
  22526585.458    -9158473.84649  -7121330.51746  22526584.800    22526591.040
  20877863.327   -20530570.99949 -15988863.56347  20877862.576    20877868.491
  22471603.139   -14963501.17949 -11648290.14446  22471602.014    22471607.195
 04  7 20  2  0 30.0000000  0  8G 3G31G27G13G10G28G 8G19
  23696435.889    -5418499.11449  -4070417.57645  23696435.449    23696442.832
  24517609.712    -2129236.02049  -1636864.48344  24517610.072    24517616.047
  20702203.065   -18471718.30049 -14382040.36948  20702202.563    20702208.240
  21369051.743   -18789228.31549 -14133396.16147  21369051.643    21369056.897
  23114377.623    -9458380.64449  -7356834.92146  23114376.640    23114384.221
  22511086.015    -9239923.64349  -7184797.83746  22511085.350    22511091.608
  20869534.375   -20574340.00549 -16022969.26647  20869533.662    20869539.514
  22468351.342   -14980589.56249 -11661605.75646  22468350.175    22468355.316
 04  7 20  2  1  0.0000000  0  8G 3G31G27G13G10G28G 8G19
  23707940.052    -5358043.59249  -4023309.41445  23707939.745    23707947.118
  24495702.639    -2244358.62149  -1726570.22744  24495702.698    24495709.563
  20701356.669   -18476166.43649 -14385506.44748  20701356.119    20701361.781
  21383071.463   -18715554.66149 -14075988.16047  21383071.318    21383076.564
  23113869.252    -9461053.07849  -7358917.33346  23113868.192    23113875.792
  22495639.864    -9321092.55049  -7248046.27146  22495639.253    22495645.675
  20861249.592   -20617876.83349 -16056894.04647  20861248.878    20861254.699
  22465204.389   -14997127.03249 -11674492.08246  22465203.164    22465208.315
 04  7 20  2  1 30.0000000  0  8G 3G31G27G13G10G28G 8G19
  23719535.580    -5297108.35349  -3975827.42745  23719535.277    23719542.730
  24473787.404    -2359521.55149  -1816307.36244  24473786.222    24473795.500
  20700550.561   -18480402.37549 -14388807.17648  20700550.018    20700555.729
  21397168.937   -18641471.81249 -14018261.29847  21397168.808    21397174.093
  23113470.983    -9463145.58649  -7360547.87746  23113469.977    23113477.517
  22480247.628    -9401978.69849  -7311074.38746  22480247.009    22480253.525
  20853009.195   -20661180.48149 -16090637.13647  20853008.453    20853014.345
  22462162.549   -15013111.82249 -11686947.73546  22462161.349    22462166.476
 04  7 20  2  2  0.0000000  0  8G 3G31G27G13G10G28G 8G19
  23731221.962    -5235696.71749  -3927974.24845  23731221.537    23731229.005
  24451865.144    -2474723.50749  -1906074.92944  24451863.917    24451873.829
  20699784.700   -18484427.02049 -14391943.26748  20699784.158    20699789.879
  21411343.828   -18566982.56549 -13960217.75847  21411343.675    21411348.948
  23113182.864    -9464660.09149  -7361728.02646  23113181.788    23113189.278
  22464909.388    -9482582.52849  -7373882.51446  22464908.668    22464914.979
  20844813.007   -20704251.54849 -16124198.99847  20844812.287    20844818.204
  22459225.750   -15028544.37749 -11698973.08747  22459224.622    22459229.758
 04  7 20  2  2 30.0000000  0  8G 3G31G27G13G10G28G 8G19
  23742998.564    -5173810.05049  -3879750.91345  23742998.204    23743005.748
  24429936.206    -2589961.26049  -1995870.40744  24429935.208    24429945.535
  20699059.129   -18488239.47749 -14394914.01448  20699058.610    20699064.394
  21425595.858   -18492087.74649 -13901858.18947  21425595.689    21425600.960
  23113004.652    -9465596.42549  -7362457.63846  23113003.590    23113011.034
  22449624.981    -9562902.36549  -7436469.33946  22449624.318    22449630.542
  20836661.322   -20747088.77349 -16157578.64047  20836660.620    20836666.530
  22456394.364   -15043423.12649 -11710566.88947  22456393.302    22456398.373
 04  7 20  2  3  0.0000000  0  8G 3G31G27G13G10G28G 8G19
  23754865.328    -5111450.93249  -3831159.40845  23754864.749    23754872.195
  24408001.330    -2705232.76349  -2085692.19445  24407999.793    24408010.329
  20698374.005   -18491839.93549 -14397719.56948  20698373.474    20698379.288
  21439924.578   -18416789.71749 -13843184.43147  21439924.459    21439929.754
  23112936.368    -9465955.70849  -7362737.60246  23112935.308    23112942.642
  22434394.660    -9642937.79649  -7498834.54746  22434393.992    22434400.168
  20828553.984   -20789692.90249 -16190776.65047  20828553.253    20828559.201
  22453668.454   -15057747.93649 -11721729.03847  22453667.330    22453672.360
 04  7 20  2  3 30.0000000  0  8G 3G31G27G13G10G28G 8G19
  23766821.319    -5048621.38749  -3782201.31345  23766820.823    23766828.247
  24386059.900    -2820535.20249  -2175538.09445  24386058.723    24386069.415
  20697729.374   -18495227.63849 -14400359.34348  20697728.830    20697734.664
  21454329.998   -18341089.22649 -13784197.06947  21454329.857    21454335.156
  23112977.646    -9465737.97949  -7362567.93746  23112976.630    23112984.100
  22419218.616    -9722687.95649  -7560977.47946  22419217.909    22419224.071
  20820491.342   -20832062.08249 -16223791.59047  20820490.664    20820496.576
  22451048.168   -15071517.82649 -11732458.78447  22451047.033    22451052.005
 04  7 20  2  4  0.0000000  0  8G 3G31G27G13G10G28G 8G19
  23778866.686    -4985322.42149  -3732877.50445  23778866.254    23778873.685
  24364112.648    -2935864.88849  -2265405.24844  24364111.937    24364122.761
  20697125.414   -18498401.12149 -14402832.18848  20697124.929    20697130.787
  21468811.643   -18264987.33549 -13724896.93347  21468811.571    21468816.875
  23113128.960    -9464943.23449  -7361948.64146  23113127.994    23113135.338
  22404097.171    -9802150.75949  -7622896.49246  22404096.567    22404102.701
  20812473.663   -20874195.39449 -16256622.73248  20812472.975    20812478.833
  22448533.805   -15084730.76849 -11742754.55146  22448532.684    22448537.625
 04  7 20  2  4 30.0000000  0  8G 3G31G27G13G10G28G 8G19
  23791001.087    -4921556.88449  -3683190.09345  23791000.573    23791007.790
  24342160.884    -3051219.76649  -2355292.01044  24342160.233    24342171.355
  20696562.306   -18501360.79649 -14405138.43548  20696561.768    20696567.639
  21483369.421   -18188485.90549 -13665285.47247  21483369.313    21483374.598
  23113389.827    -9463572.68849  -7360880.68746  23113388.774    23113396.181
  22389030.627    -9881326.02049  -7684591.41846  22389030.007    22389036.058
  20804500.888   -20916092.91949 -16289270.14847  20804500.144    20804505.955
  22446125.406   -15097386.72949 -11752616.30246  22446124.351    22446129.249
 04  7 20  2  5  0.0000000  0  8G 3G31G27G13G10G28G 8G19
  23803223.815    -4857327.42449  -3633141.21945  23803223.061    23803230.249
  24320205.246    -3166597.71549  -2445196.72844  24320204.423    24320215.408
  20696039.848   -18504106.50749 -14407277.95248  20696039.270    20696045.157
  21498002.829   -18111587.09649 -13605364.35647  21498002.693    21498007.984
  23113760.121    -9461627.43949  -7359364.91446  23113759.057    23113766.448
  22374019.060    -9960213.04449  -7746061.74446  22374018.319    22374024.347
  20796572.943   -20957754.56149 -16321733.76747  20796572.213    20796578.011
  22443823.058   -15109485.41549 -11762043.81746  22443822.005    22443826.989
 04  7 20  2  5 30.0000000  0  8G 3G31G27G13G10G28G 8G19
  23815534.169    -4792635.43349  -3582731.93745  23815533.509    23815540.676
  24298245.859    -3281995.82449  -2535117.14444  24298244.576    24298255.454
  20695558.179   -18506637.52449 -14409250.17548  20695557.634    20695563.509
  21512711.533   -18034292.19049 -13545134.59647  21512711.410    21512716.721
  23114239.668    -9459107.76449  -7357401.55346  23114238.586    23114246.003
  22359062.300   -10038810.91349  -7807306.75846  22359061.614    22359067.769
  20788690.026   -20999179.72749 -16354013.11947  20788689.270    20788695.034
  22441627.009   -15121025.77849 -11771036.27746  22441625.946    22441630.910
 04  7 20  2  6  0.0000000  0  8G 3G31G27G13G10G28G 8G19
  23827932.766    -4727482.88349  -3531963.72845  23827931.885    23827938.926
  24276283.031    -3397410.95249  -2625050.79945  24276282.149    24276292.273
  20695117.566   -18508953.06149 -14411054.49748  20695116.989    20695122.913
  21527495.427   -17956602.38649 -13484597.11147  21527495.375    21527500.683
  23114828.326    -9456014.07449  -7354990.88946  23114827.218    23114834.628
  22344160.639   -10117118.31649  -7868325.42946  22344160.080    22344166.411
  20780852.278   -21040367.39349 -16386107.40047  20780851.496    20780857.314
  22439537.407   -15132006.71749 -11779592.82046  22439536.332    22439541.198
 04  7 20  2  6 30.0000000  0  8G 3G31G27G13G10G28G 8G19
  23840417.980    -4661872.26149  -3480838.57645  23840417.193    23840424.094
  24254317.589    -3512840.62849  -2714995.79345  24254316.696    24254326.450
  20694717.952   -18511052.80449 -14412690.66448  20694717.415    20694723.351
  21542354.226   -17878519.19149 -13423753.10347  21542354.168    21542359.477
  23115525.988    -9452347.34149  -7352133.71146  23115524.856    23115532.273
  22329314.639   -10195134.31949  -7929117.03546  22329314.038    22329320.333
  20773059.665   -21081317.21149 -16418016.34947  20773058.961    20773064.870
  22437554.292   -15142427.53449 -11787712.92346  22437553.275    22437558.207
 04  7 20  2  7  0.0000000  0  8G 3G31G27G13G10G28G 8G19
  23852990.196    -4595804.33649  -3429357.11945  23852989.210    23852996.597
  24232350.106    -3628280.96449  -2804949.11345  24232349.094    24232358.944
  20694359.820   -18512935.16649 -14414157.44948  20694359.263    20694365.139
  21557287.728   -17800043.33449 -13362603.11147  21557287.670    21557293.017
  23116332.884    -9448106.79749  -7348829.41046  23116331.796    23116339.256
  22314524.500   -10272856.96649  -7989680.04546  22314523.896    22314530.099
  20765312.708   -21122027.60249 -16449738.72247  20765312.004    20765317.977
  22435678.216   -15152286.65649 -11795395.34146  22435677.174    22435682.070
 04  7 20  2  7 30.0000000  0  8G 3G31G27G13G10G28G 8G19
  23865648.427    -4529281.87949  -3377521.45145  23865647.916    23865655.609
  24210380.515    -3743729.86149  -2894909.13245  24210379.445    24210389.525
  20694042.949   -18514600.35549 -14415454.99948  20694042.393    20694048.304
  21572295.506   -17721177.02949 -13301148.88147  21572295.401    21572300.794
  23117248.810    -9443293.86249  -7345079.09646  23117247.663    23117255.169
  22299790.196   -10350286.20349  -8050014.43246  22299789.567    22299795.594
  20757611.400   -21162498.45749 -16481274.44947  20757610.655    20757616.546
  22433909.159   -15161583.98149 -11802639.99046  22433907.909    22433912.777
 04  7 20  2  8  0.0000000  0  8G 3G31G27G13G10G28G 8G19
  23878393.521    -4462306.83349  -3325333.12745  23878392.882    23878400.570
  24188409.430    -3859184.24049  -2984873.45845  24188408.504    24188419.292
  20693767.535   -18516047.40049 -14416582.57248  20693767.013    20693772.922
  21587377.311   -17641921.29349 -13239391.19447  21587377.240    21587382.619
  23118273.457    -9437909.03249  -7340883.13046  23118272.403    23118279.900
  22285112.014   -10427420.54649  -8110119.03246  22285111.319    22285117.318
  20749955.889   -21202728.57149 -16512622.59147  20749955.145    20749960.975
  22432246.932   -15170318.27249 -11809445.91246  22432245.780    22432250.692
 04  7 20  2  8 30.0000000  0  8G 3G31G27G13G10G28G 8G19
  23891224.409    -4394881.95249  -3272794.30045  23891223.550    23891231.379
  24166438.199    -3974642.17849  -3074840.54045  24166437.443    24166448.186
  20693533.595   -18517276.67349 -14417540.45448  20693533.065    20693539.025
  21602532.724   -17562278.70249 -13177332.09247  21602532.738    21602538.077
  23119406.697    -9431953.80249  -7336242.67646  23119405.668    23119413.070
  22270490.006   -10504259.95249  -8169993.80946  22270489.261    22270495.105
  20742346.165   -21242718.29349 -16543783.41047  20742345.393    20742351.141
  22430691.986   -15178489.90849 -11815813.41946  22430690.756    22430695.710
 04  7 20  2  9  0.0000000  0  8G 3G31G27G13G10G28G 8G19
  23904140.309    -4327009.54349  -3219906.70945  23904139.229    23904147.137
  24144466.988    -4090100.96349  -3164808.25045  24144466.494    24144476.983
  20693341.251   -18518287.80949 -14418328.35648  20693340.688    20693346.621
  21617761.801   -17482250.48949 -13114972.49547  21617761.705    21617766.953
  23120648.348    -9425428.94149  -7331158.36446  23120647.339    23120654.723
  22255924.055   -10580803.79249  -8229638.30346  22255923.375    22255929.180
  20734782.104   -21282467.30849 -16574756.66147  20734781.340    20734787.135
  22429244.076   -15186098.28449 -11821742.01946  22429242.908    22429247.899
 04  7 20  2  9 30.0000000  0  8G 3G31G27G13G10G28G 8G19
  23917140.623    -4258690.52749  -3166671.12645  23917139.859    23917147.716
  24122496.682    -4205556.47049  -3254773.42045  24122496.153    24122506.408
  20693190.765   -18519078.83049 -14418944.73948  20693190.193    20693196.118
  21633063.989   -17401837.57849 -13052313.12747  21633063.891    21633069.108
  23121998.413    -9418334.19649  -7325629.97346  23121997.415    23122004.710
  22241414.763   -10657049.87549  -8289050.77846  22241414.150    22241419.984
  20727264.235   -21321973.91349 -16605541.03447  20727263.494    20727269.256
  22427903.853   -15193141.47349 -11827230.21246  22427902.586    22427907.578
 04  7 20  2 10  0.0000000  0  8G 3G31G27G13G10G28G 8G19
  23930225.777    -4189928.18049  -3113090.09945  23930225.000    23930232.832
  24100527.082    -4321007.05749  -3344734.73245  24100526.583    24100536.301
  20693081.917   -18519650.33149 -14419390.07048  20693081.388    20693087.371
  21648438.822   -17321042.38249 -12989355.86247  21648438.698    21648444.021
  23123456.702    -9410671.21749  -7319658.81046  23123455.694    23123462.861
  22226962.492   -10732998.03349  -8348231.09247  22226961.745    22226967.622
  20719792.633   -21361237.74349 -16636136.22047  20719791.877    20719797.598
  22426671.045   -15199619.75349 -11832278.21346  22426669.810    22426674.733
 04  7 20  2 10 30.0000000  0  8G 3G31G27G13G10G28G 8G19
  23943394.523    -4120724.60449  -3059165.29545  23943393.993    23943401.839
  24078559.151    -4436449.79049  -3434689.95345  24078558.670    24078567.866
  20693015.031   -18520001.50349 -14419663.72048  20693014.554    20693020.544
  21663886.083   -17239866.23349 -12926101.75347  21663885.994    21663891.444
  23125022.950    -9402440.91949  -7313245.58146  23125021.891    23125028.946
  22212566.876   -10808647.39649  -8407178.59747  22212566.141    22212572.031
  20712367.142   -21400258.74849 -16666542.19047  20712366.387    20712372.132
  22425545.965   -15205532.63049 -11836885.63947  22425544.619    22425549.565
 04  7 20  2 11  0.0000000  0  8G 3G31G27G13G10G28G 8G19
  23956647.365    -4051081.08149  -3004897.64045  23956646.809    23956654.531
  24056593.306    -4551881.10549  -3524636.25845  24056592.838    24056601.759
  20692990.375   -18520131.35749 -14419764.91048  20692989.861    20692995.847
  21679405.556   -17158310.43949 -12862551.80747  21679405.520    21679411.067
  23126696.875    -9393643.52449  -7306390.47046  23126695.901    23126702.974
  22198228.148   -10883996.57749  -8465892.19346  22198227.477    22198233.420
  20704988.126   -21439035.71949 -16696758.00647  20704987.385    20704993.131
  22424528.484   -15210878.86449 -11841051.53847  22424527.233    22424532.209
 04  7 20  2 11 30.0000000  0  8G 3G31G27G13G10G28G 8G19
  23969983.225    -3981000.25349  -2950289.23845  23969982.886    23969990.378
  24034629.940    -4667298.19649  -3614571.51245  24034629.364    24034638.504
  20693007.888   -18520039.27349 -14419693.15948  20693007.379    20693013.345
  21694997.042   -17076376.46349 -12798707.17547  21694997.016    21695002.575
  23128478.752    -9384279.89449  -7299094.14446  23128477.788    23128484.977
  22183946.861   -10959044.84649  -8524371.29146  22183946.214    22183952.011
  20697655.901   -21477567.32949 -16726782.62947  20697655.102    20697660.834
  22423619.055   -15215657.88549 -11844775.42947  22423617.822    22423622.743
 04  7 20  2 12  0.0000000  0  8G 3G31G27G13G10G28G 8G19
  23983402.184    -3910484.01949  -2895341.55745  23983401.756    23983409.192
  24012669.424    -4782698.31249  -3704493.56945  24012669.055    24012678.540
  20693067.812   -18519724.65149 -14419448.00648  20693067.258    20693073.236
  21710660.332   -16994065.86749 -12734569.09947  21710660.253    21710665.772
  23130368.316    -9374350.68249  -7291357.08446  23130367.309    23130374.509
  22169723.278   -11033790.99149  -8582614.98147  22169722.600    22169728.192
  20690370.205   -21515853.47849 -16756615.98547  20690369.455    20690375.199
  22422817.606   -15219869.32049 -11848057.05947  22422816.387    22422821.307
 04  7 20  2 12 30.0000000  0  8G 3G31G27G13G10G28G 8G19
  23996903.262    -3839534.90749  -2840056.58745  23996902.900    23996910.468
  23990713.019    -4898078.88449  -3794400.35945  23990712.626    23990722.340
  20693170.049   -18519187.38849 -14419029.37048  20693169.527    20693175.496
  21726394.796   -16911380.71549 -12670139.16247  21726394.770    21726400.212
  23132365.188    -9363857.29249  -7283180.41346  23132364.157    23132371.323
  22155557.105   -11108234.46049  -8640622.81547  22155556.418    22155562.089
  20683131.373   -21553893.73349 -16786257.72847  20683130.647    20683136.352
  22422124.211   -15223512.92149 -11850896.21947  22422123.057    22422127.934
 04  7 20  2 13  0.0000000  0  8G 3G31G27G13G10G28G 8G19
  24010486.129    -3768154.68549  -2784435.66245  24010486.007    24010493.768
  23968761.071    -5013436.60649  -3884289.35445  23968760.781    23968770.388
  20693314.916   -18518426.21049 -14418436.24448  20693314.387    20693320.346
  21742200.322   -16828322.22849 -12605418.31947  21742200.328    21742205.821
  23134469.381    -9352800.12749  -7274564.44846  23134468.341    23134475.345
  22141448.640   -11182374.11149  -8698393.92747  22141447.955    22141453.754
  20675939.473   -21591687.37249 -16815707.30547  20675938.716    20675944.438
  22421539.187   -15226587.59649 -11853292.05547  22421537.982    22421542.869
 04  7 20  2 13 30.0000000  0  9G 3G31G27G29G13G10G28G 8G19
  24024150.877    -3696346.52349  -2728481.29945  24024150.586    24024158.589
  23946814.235    -5128769.28149  -3974158.79345  23946813.865    23946823.302
  20693502.274   -18517441.36949 -14417668.84048  20693501.767    20693507.758
                   -628948.41049   -477626.03243
  21758076.479   -16744892.63349 -12540408.28847  21758076.467    21758081.974
  23136680.279    -9341181.02049  -7265510.59946  23136679.290    23136686.247
  22127398.074   -11256209.74749  -8755928.13647  22127397.372    22127403.351
  20668794.581   -21629233.80149 -16844964.24947  20668793.852    20668799.550
  22421062.162   -15229093.87649 -11855244.98447  22421061.042    22421065.914
 04  7 20  2 14  0.0000000  0  9G 3G31G27G29G13G10G28G 8G19
  24037896.706    -3624112.12949  -2672194.76245  24037896.380    24037904.356
  23924872.453    -5244073.91049  -4064006.37945  23924871.966    23924881.281
  20693732.460   -18516231.98049 -14416726.45948  20693731.917    20693737.875
                   -730201.55349   -350527.00943
  21774023.077   -16661093.23149 -12475110.09347  21774022.998    21774028.510
  23138998.010    -9329000.60449  -7256019.39446  23138997.036    23139003.992
  22113405.690   -11329740.36049  -8813224.66847  22113404.978    22113410.941
  20661696.930   -21666532.33849 -16874028.02847  20661696.175    20661701.865
  22420693.683   -15231030.84449 -11856754.28647  22420692.517    22420697.270
 04  7 20  2 14 30.0000000  0  9G 3G31G27G29G13G10G28G 8G19
  24051723.456    -3551453.96349  -2615578.02845  24051722.908    24051730.707
  23902936.773    -5359347.35949  -4153829.67245  23902936.103    23902945.242
  20694005.405   -18514797.38249 -14415608.58848  20694004.869    20694010.878
                   -831377.90349   -429360.21943
  21790039.651   -16576925.99649 -12409525.26847  21790039.509    21790045.054
  23141422.252    -9316260.08349  -7246091.70946  23141421.278    23141428.365
  22099471.561   -11402965.18349  -8870282.91347  22099470.775    22099476.673
  20654646.577   -21703582.18749 -16902898.02747  20654645.806    20654651.492
  22420433.507   -15232398.00549 -11857819.59447  22420432.328    22420437.080
 04  7 20  2 15  0.0000000  0  9G 3G31G27G29G13G10G28G 8G19
  24065629.816    -3478375.12749  -2558633.53445  24065629.282    24065637.391
  23881006.967    -5474587.92549  -4243627.35345  23881006.115    23881015.502
  20694321.146   -18513138.17149 -14414315.69948  20694320.620    20694326.628
                   -932476.35149   -508132.56643
  21806125.569   -16492393.24949 -12343655.63847  21806125.533    21806131.142
  23143952.882    -9302961.24249  -7235728.97346  23143951.935    23143959.148
  22085595.419   -11475884.10149  -8927102.80047  22085594.721    22085600.571
  20647643.442   -21740383.82449 -16931574.61548  20647642.674    20647648.344
  22420281.560   -15233196.27549 -11858441.60847  22420280.443    22420285.182
 04  7 20  2 15 30.0000000  0  9G 3G31G27G29G13G10G28G 8G19
  24079615.947    -3404876.40149  -2501361.82445  24079615.628    24079623.544
  23859084.017    -5589791.19049  -4333396.00645  23859083.280    23859092.962
  20694680.026   -18511252.10349 -14412846.03848  20694679.492    20694685.521
                  -1033493.32449   -380517.22043
  21822281.061   -16407495.79949 -12277501.81147  21822281.019    21822286.620
  23146590.037    -9289103.72249  -7224930.93846  23146589.030    23146596.205
  22071777.892   -11548494.99749  -8983682.67347  22071777.207    22071782.990
  20640687.938   -21776935.03749 -16960056.07348  20640687.170    20640692.883
  22420238.358   -15233423.82749 -11858618.89947  22420237.163    22420241.820
 04  7 20  2 16  0.0000000  0  9G 3G31G27G29G13G10G28G 8G19
  24093681.929    -3330960.23449  -2443764.86245  24093681.490    24093689.140
  23837168.901    -5704954.93649  -4423133.82545  23837168.251    23837177.987
  20695082.143   -18509138.98049 -14411199.44848  20695081.613    20695087.670
                  -1134426.94849   -459165.38443
  21838505.614   -16322235.17149 -12211065.00147  21838505.567    21838511.258
  23149333.199    -9274688.96849  -7213698.66946  23149332.151    23149339.220
  22058019.110   -11620797.38049  -9040022.15047  22058018.452    22058024.207
  20633780.116   -21813235.72749 -16988342.31448  20633779.372    20633785.067
  22420303.570   -15233080.55549 -11858351.40447  22420302.467    22420307.152
 04  7 20  2 16 30.0000000  0  9G 3G31G27G29G13G10G28G 8G19
  24107826.764    -3256628.80249  -2385844.28345  24107826.349    24107833.792
  23815262.464    -5820074.86749  -4512837.51145  23815261.827    23815271.049
  20695527.694   -18506797.74949 -14409375.11748  20695527.165    20695533.162
                  -1235274.84349   -537746.38443
  21854799.039   -16236612.92949 -12144346.41147  21854799.007    21854804.728
  23152182.183    -9259717.96849  -7202032.96846  23152181.098    23152188.161
  22044319.359   -11692790.19349  -9096120.40247  22044318.646    22044324.429
  20626920.244   -21849284.62349 -17016432.34548  20626919.481    20626925.184
  22420477.779   -15232165.59449 -11857638.43447  22420476.597    22420481.236
 04  7 20  2 17  0.0000000  0  8G 3G31G27G13G10G28G 8G19
  24122051.573    -3181877.52449  -2327596.58845  24122051.102    24122058.796
  23793366.269    -5935142.08349  -4602500.12545  23793365.356    23793374.280
  20696018.017   -18504220.95949 -14407367.23048  20696017.515    20696023.521
  21871162.330   -16150623.96349 -12077342.07547  21871162.170    21871167.913
  23155138.079    -9244184.75949  -7189929.17946  23155136.922    23155144.118
  22030680.118   -11764465.58149  -9151971.30747  22030679.348    22030685.050
  20620109.756   -21885074.03049 -17044320.18548  20620108.996    20620114.693
  22420762.068   -15230671.94949 -11856474.54047  22420760.830    22420765.426
 04  7 20  2 17 30.0000000  0  8G 3G31G27G13G10G28G 8G19
  24136353.875    -3106718.32049  -2269031.00945  24136353.489    24136361.236
  23771478.516    -6050163.08849  -4692126.73445  23771477.629    23771486.319
  20696551.531   -18501417.46349 -14405182.69048  20696551.026    20696557.012
  21887593.142   -16064279.51249 -12010060.72747  21887593.005    21887598.754
  23158198.702    -9228099.91349  -7177395.55046  23158197.683    23158204.960
  22017099.481   -11835832.33249  -9207581.69447  22017098.690    22017104.364
  20613347.030   -21920612.56549 -17072012.54348  20613346.267    20613351.973
  22421154.571   -15228608.75249 -11854866.84847  22421153.458    22421158.051
 04  7 20  2 18  0.0000000  0  8G 3G31G27G13G10G28G 8G19
  24150735.027    -3031145.25149  -2210142.93145  24150734.614    24150742.277
  23749601.639    -6165126.65149  -4781708.54345  23749600.614    23749609.592
  20697129.722   -18498378.76549 -14402814.87648  20697129.255    20697135.257
  21904092.826   -15977573.05749 -11942497.30747  21904092.752    21904098.401
  23161365.888    -9211456.44049  -7164426.63646  23161364.930    23161372.116
  22003579.111   -11906881.69949  -9262944.81047  22003578.320    22003584.030
  20606633.576   -21955891.62249 -17099502.71648  20606632.815    20606638.588
  22421657.223   -15225967.88949 -11852809.01247  22421656.011    22421660.551
 04  7 20  2 18 30.0000000  0  9G 3G31G27G29G13G10G28G 8G19
  24165190.668    -2955181.15149  -2150950.12445  24165190.197    24165197.839
  23727732.143    -6280050.44549  -4871259.40745  23727731.264    23727740.174
  20697749.002   -18495124.51049 -14400279.09748  20697748.507    20697754.519
                  -1637750.00149   -441057.35943
  21920657.139   -15890526.95249 -11874669.21247  21920657.075    21920662.720
  23164635.456    -9194276.02049  -7151039.30946  23164634.367    23164641.353
  21990115.387   -11977633.26549  -9318075.83347  21990114.571    21990120.446
  20599965.748   -21990931.11949 -17126806.21848  20599965.041    20599970.811
  22422265.711   -15222769.55449 -11850316.79947  22422264.589    22422269.188
 04  7 20  2 19  0.0000000  0  8G 3G31G27G13G10G28G 8G19
  24179724.737    -2878803.64549  -2091435.24545  24179724.285    24179732.126
  23705875.305    -6394906.68149  -4960757.62945  23705874.336    23705883.625
  20698414.119   -18491629.55949 -14397555.76848  20698413.596    20698419.573
  21937290.404   -15803118.45349 -11806558.73347  21937290.360    21937296.027
  23168011.423    -9176535.21749  -7137215.33246  23168010.330    23168017.313
  21976713.231   -12048061.76549  -9372955.13947  21976712.439    21976718.280
  20593348.506   -22025705.57749 -17153903.19648  20593347.752    20593353.475
  22422985.280   -15218988.93249 -11847370.84847  22422984.041    22422988.692
 04  7 20  2 19 30.0000000  0  8G 3G31G27G13G10G28G 8G19
  24194334.694    -2802028.78649  -2031610.68045  24194334.182    24194342.004
  23684028.855    -6509706.63749  -5050211.99045  23684028.398    23684037.777
  20699122.479   -18487907.13849 -14394655.18348  20699121.966    20699127.945
  21953989.703   -15715363.21849 -11738178.05647  21953989.629    21953995.412
  23171491.120    -9158249.08549  -7122966.43646  23171490.051    23171497.170
  21963370.146   -12118180.12349  -9427592.76847  21963369.376    21963375.140
  20586779.094   -22060227.97249 -17180803.75848  20586778.320    20586784.082
  22423812.903   -15214639.42549 -11843981.62047  22423811.658    22423816.334
 04  7 20  2 20  0.0000000  0  8G 3G31G27G13G10G28G 8G19
  24209019.185    -2724861.68949  -1971480.51145  24209018.725    24209026.355
  23662193.979    -6624449.42749  -5139621.84745  23662193.535    23662202.599
  20699873.811   -18483958.90549 -14391578.64848  20699873.306    20699879.253
  21970754.156   -15627265.07349 -11669530.19847  21970754.163    21970760.044
  23175073.869    -9139421.30949  -7108295.47946  23175072.821    23175079.994
  21950085.725   -12187990.02149  -9481990.03847  21950085.002    21950090.713
  20580257.336   -22094499.99649 -17207509.23448  20580256.585    20580262.308
  22424748.264   -15209723.41949 -11840150.94747  22424747.140    22424751.833
 04  7 20  2 20 30.0000000  0  8G 3G31G27G13G10G28G 8G19
  24223779.629    -2647295.54949  -1911039.38345  24223779.097    24223786.511
  23640372.273    -6739123.20249  -5228977.86745  23640371.611    23640380.521
  20700669.920   -18479775.09149 -14388318.53848  20700669.445    20700675.388
  21987585.368   -15538816.94149 -11600609.61747  21987585.351    21987591.215
  23178761.099    -9120044.06049  -7093196.32046  23178760.078    23178767.490
  21936861.895   -12257481.71549  -9536139.34947  21936861.197    21936866.817
  20573785.046   -22128512.28349 -17234012.31048  20573784.256    20573790.023
  22425793.385   -15204231.75349 -11835871.72346  22425792.157    22425796.926
 04  7 20  2 21  0.0000000  0  8G 3G31G27G13G10G28G 8G19
  24238615.138    -2569334.01649  -1850290.16945  24238614.706    24238622.239
  23618564.330    -6853726.21649  -5318278.78445  23618563.638    23618572.291
  20701510.722   -18475356.54349 -14384875.52348  20701510.253    20701516.243
  22004482.591   -15450021.86049 -11531418.69846  22004482.593    22004488.303
  23182552.424    -9100120.18649  -7077671.24546  23182551.394    23182558.896
  21923698.461   -12326655.73449  -9590041.13347  21923697.740    21923703.331
  20567361.978   -22162265.44749 -17260313.48548  20567361.192    20567366.963
  22426947.666   -15198165.76949 -11831144.98046  22426946.428    22426951.224
 04  7 20  2 21 30.0000000  0  8G 3G31G27G13G10G28G 8G19
  24253525.220    -2490979.85349  -1789234.97845  24253524.944    24253532.710
  23596770.201    -6968255.84549  -5407522.50145  23596769.377    23596777.975
  20702396.371   -18470702.86549 -14381249.28448  20702395.859    20702401.822
  22021445.311   -15360882.19849 -11461959.26646  22021445.321    22021450.974
  23186447.533    -9079651.47249  -7061721.60946  23186446.536    23186453.999
  21910595.413   -12395511.97849  -9643695.29947  21910594.751    21910600.349
  20560988.389   -22195758.73549 -17286412.14548  20560987.654    20560993.319
  22428211.142   -15191525.66849 -11825970.85746  22428209.983    22428214.732
 04  7 20  2 22  0.0000000  0  8G 3G31G27G13G10G28G 8G19
  24268509.673    -2412235.84249  -1727876.04545  24268509.430    24268517.313
  23574990.263    -7082709.73249  -5496707.20745  23574989.395    23574998.125
  20703326.670   -18465814.03549 -14377439.81248  20703326.156    20703332.142
  22038473.193   -15271400.21049 -11392233.10046  22038473.162    22038478.859
  23190446.117    -9058639.53249  -7045348.69146  23190445.079    23190452.285
  21897552.932   -12464050.08149  -9697101.55447  21897552.330    21897557.874
  20554664.479   -22228991.40449 -17312307.72748  20554663.693    20554669.345
  22429583.762   -15184312.08749 -11820349.87846  22429582.593    22429587.520
 04  7 20  2 22 30.0000000  0  8G 3G31G27G13G10G28G 8G19
  24283568.084    -2333104.54749  -1666215.33645  24283567.746    24283575.615
  23553225.051    -7197084.79349  -5585830.50845  23553224.273    23553233.155
  20704301.895   -18460689.30449 -14373446.52148  20704301.360    20704307.389
  22055565.942   -15181577.78649 -11322241.64046  22055565.879    22055571.479
  23194547.479    -9037085.82749  -7028553.61246  23194546.479    23194553.730
  21884571.249   -12532269.28249  -9750259.31447  21884570.667    21884576.132
  20548389.998   -22261963.79749 -17338000.49148  20548389.226    20548394.938
  22431065.564   -15176524.73849 -11814281.80346  22431064.487    22431069.403
 04  7 20  2 23  0.0000000  0  8G 3G31G27G13G10G28G 8G19
  24298699.671    -2253588.50449  -1604254.78945  24298699.221    24298706.987
  23531475.103    -7311378.59949  -5674890.47045  23531474.460    23531483.774
  20705321.985   -18455328.50349 -14369269.27948  20705321.464    20705327.468
  22072723.055   -15091416.89949 -11251986.45146  22072722.952    22072728.558
  23198751.799    -9014992.37549  -7011337.94346  23198750.779    23198758.125
  21871650.307   -12600169.27849  -9803168.35647  21871649.683    21871655.060
  20542165.263   -22294675.01049 -17363489.75248  20542164.496    20542170.164
  22432656.676   -15168164.15849 -11807767.04846  22432655.386    22432660.357
 04  7 20  2 23 30.0000000  0  8G 3G31G27G13G10G28G 8G19
  24313903.932    -2173690.13049  -1541996.34945  24313903.415    24313911.123
  23509741.659    -7425587.92449  -5763884.64345  23509741.045    23509750.271
  20706387.232   -18449731.03349 -14364907.61648  20706386.677    20706392.654
  22089944.159   -15000919.36649 -11181468.93546  22089944.130    22089949.729
  23203058.573    -8992359.92649  -6993702.28646  23203057.588    23203064.982
  21858790.137   -12667749.44449  -9855828.16547  21858789.515    21858795.044
  20535990.288   -22327124.64049 -17388775.17448  20535989.520    20535995.232
  22434356.498   -15159230.26049 -11800805.56846  22434355.429    22434360.411
 04  7 20  2 24  0.0000000  0  8G 3G31G27G13G10G28G 8G19
  24329180.475    -2093412.33849  -1479442.24045  24329179.828    24329187.458
  23488025.006    -7539710.22449  -5852810.99845  23488024.239    23488033.306
  20707497.517   -18443896.44049 -14360361.18048  20707496.948    20707502.928
  22107228.742   -14910088.01749 -11110691.29846  22107228.784    22107234.354
  23207467.603    -8969190.65349  -6975648.32846  23207466.586    23207473.954
  21845990.884   -12735009.61149  -9908238.63447  21845990.285    21845995.871
  20529865.234   -22359312.04549 -17413856.25848  20529864.480    20529870.161
  22436165.701   -15149723.58549 -11793397.75746  22436164.517    22436169.484
 04  7 20  2 24 30.0000000  0  8G 3G31G27G13G10G28G 8G19
  24344528.579    -2012757.50749  -1416594.35745  24344527.795    24344535.648
  23466325.602    -7653742.49349  -5941667.20945  23466324.851    23466333.542
  20708652.992   -18437824.28249 -14355629.62848  20708652.428    20708658.420
  22124576.657   -14818924.32849 -11039654.70046  22124576.704    22124582.316
  23211978.291    -8945486.15049  -6957177.29046  23211977.352    23211984.792
  21833252.859   -12801948.92949  -9960399.09247  21833252.204    21833257.720
  20523790.317   -22391236.20749 -17438732.22548  20523789.536    20523795.222
  22438083.762   -15139644.06749 -11785543.57846  22438082.579    22438087.531
 04  7 20  2 25  0.0000000  0  8G 3G31G27G13G10G28G 8G19
  24359947.860    -1931727.78449  -1353454.35345  24359947.149    24359955.160
  23444643.904    -7767681.47849  -6030450.71845  23444643.052    23444651.460
  20709853.871   -18431513.37649 -14350712.04448  20709853.357    20709859.294
  22141987.699   -14727429.83949 -10968360.33346  22141987.581    22141993.270
  23216590.823    -8921247.40349  -6938289.97046  23216589.779    23216597.279
  21820576.013   -12868566.53049 -10012308.86047  21820575.270    21820580.735
  20517765.528   -22422896.21649 -17463402.35548  20517764.777    20517770.501
  22440110.905   -15128991.44649 -11777242.82146  22440109.705    22440114.581
 04  7 20  2 25 30.0000000  0  8G 3G31G27G13G10G28G 8G19
  24375438.073    -1850325.35049  -1290023.90545  24375437.525    24375445.523
  23422980.188    -7881523.82549  -6119158.91345  23422979.430    23422987.816
  20711100.393   -18424962.88749 -14345607.76248  20711099.884    20711105.793
  22159461.172   -14635606.14649 -10896809.45946  22159461.094    22159466.786
  23221304.648    -8896475.86249  -6918987.48746  23221303.726    23221311.137
  21807960.360   -12934861.55949 -10063967.28147  21807959.654    21807965.267
  20511791.299   -22454291.01049 -17487865.82548  20511790.553    20511796.257
  22442246.914   -15117765.74849 -11768495.52546  22442245.777    22442250.768
 04  7 20  2 26  0.0000000  0  8G 3G31G27G13G10G28G 8G19
  24390999.165    -1768552.89049  -1226305.12845  24390998.363    24391006.259
  23401335.574    -7995266.68049  -6207789.57545  23401334.724    23401343.123
  20712392.625   -18418172.33549 -14340316.42248  20712392.129    20712397.977
  22176996.919   -14543455.57449 -10825003.86446  22176996.795    22177002.500
  23226119.734    -8871172.99749  -6899271.00746  23226118.752    23226126.049
  21795406.118   -13000833.43449 -10115373.88847  21795405.455    21795411.294
  20505867.610   -22485420.01749 -17512122.18448  20505866.874    20505872.628
  22444492.044   -15105967.22149 -11759301.85746  22444490.992    22444495.941
 04  7 20  2 26 30.0000000  0  8G 3G31G27G13G10G28G 8G19
  24406629.957    -1686413.32649  -1162300.30345  24406629.132    24406636.837
  23379710.430    -8108907.63849  -6296340.87745  23379709.445    23379717.780
  20713730.561   -18411141.59249 -14334837.91948  20713730.033    20713735.859
  22194594.531   -14450980.17549 -10752945.17346  22194594.312    22194599.990
  23231035.313    -8845341.25549  -6879142.38946  23231034.339    23231041.721
  21782913.429   -13066482.39949 -10166528.87947  21782912.813    21782918.572
  20499994.514   -22516283.16449 -17536171.39048  20499993.810    20499999.605
  22446846.223   -15093596.62849 -11749662.41746  22446845.003    22446849.981
 04  7 20  2 27  0.0000000  0  8G 3G31G27G13G10G28G 8G19
  24422330.111    -1603908.32449  -1098010.73745  24422329.303    24422337.090
  23358105.332    -8222442.97649  -6384809.85845  23358104.252    23358112.667
  20715114.459   -18403869.37949 -14329171.25748  20715113.905    20715119.758
  22212253.495   -14358181.46349 -10680634.53846  22212253.317    22212258.983
  23236051.586    -8818981.36949  -6858602.22246  23236050.537    23236057.991
  21770482.689   -13131806.79949 -10217430.96847  21770482.069    21770487.606
  20494172.279   -22546879.31849 -17560012.54048  20494171.560    20494177.386
  22449309.159   -15080653.42449 -11739576.79946  22449308.038    22449312.972
 04  7 20  2 27 30.0000000  0  8G 3G31G27G13G10G28G 8G19
  24438099.148    -1521040.91149  -1033438.72445  24438098.387    24438106.285
  23336520.761    -8335870.00649  -6473194.46045  23336519.773    23336528.038
  20716544.322   -18396355.31649 -14323316.14348  20716543.745    20716549.615
  22229973.680   -14265061.62149 -10608073.67346  22229973.450    22229979.174
  23241167.843    -8792095.08249  -6837651.87946  23241166.855    23241174.333
  21758113.745   -13196806.38549 -10268079.94947  21758113.072    21758118.556
  20488401.005   -22577207.63149 -17583644.98448  20488400.256    20488406.098
  22451881.210   -15067138.04049 -11729045.32346  22451879.958    22451884.809
 04  7 20  2 28  0.0000000  0  9G 3G31G27G29G13G10G28G 8G19
  24453937.032    -1437813.03049   -968585.82645  24453936.102    24453944.238
  23314956.935    -8449185.28849  -6561491.98045  23314956.292    23314964.638
  20718020.404   -18388598.31749 -14317271.73048  20718019.873    20718025.747
                  -1042178.26149   -794605.11743
  22247754.676   -14171622.29649 -10535263.86146  22247754.450    22247760.200
  23246384.164    -8764683.79849  -6816292.44746  23246383.124    23246390.529
  21745806.663   -13261480.30849 -10318475.17647  21745805.972    21745811.509
  20482680.909   -22607266.96949 -17607067.83048  20482680.136    20482685.963
  22454561.768   -15053050.70449 -11718068.17546  22454560.661    22454565.586
 04  7 20  2 28 30.0000000  0  9G 3G31G27G29G13G10G28G 8G19
  24469843.093    -1354227.48149   -903454.24145  24469841.930    24469850.257
  23293415.136    -8562385.96549  -6649700.15045  23293414.635    23293423.373
  20719542.755   -18380597.98349 -14311037.70348  20719542.249    20719548.210
                  -1140311.90249   -673753.89743
  22265595.993   -14077865.56449 -10462206.71346  22265595.779    22265601.588
  23251699.983    -8736749.30049  -6794525.30046  23251698.964    23251706.270
  21733561.592   -13325828.07049 -10368616.24547  21733560.909    21733566.502
  20477012.052   -22637056.88349 -17630280.74248  20477011.310    20477017.097
  22457351.392   -15038391.48949 -11706645.40146  22457350.210    22457355.125
 04  7 20  2 29  0.0000000  0  9G 3G31G27G29G13G10G28G 8G19
  24485816.426    -1270287.20349   -838046.26245  24485815.143    24485823.335
  23271895.708    -8675470.02349  -6737817.46245  23271895.303    23271904.290
  20721111.431   -18372354.40749 -14304614.14148  20721110.943    20721116.890
                  -1238304.91749   -750112.48443
  22283497.132   -13983794.06349 -10388904.29746  22283497.056    22283502.950
  23257115.014    -8708293.67749  -6772352.10046  23257113.945    23257121.207
  21721378.480   -13389850.18849 -10418503.57547  21721377.843    21721383.434
  20471394.531   -22666576.97149 -17653283.40648  20471393.789    20471399.605
  22460249.502   -15023161.53149 -11694777.89046  22460248.344    22460253.226
 04  7 20  2 29 30.0000000  0  9G 3G31G27G29G13G10G28G 8G19
  24501856.329    -1185994.47049   -772363.64845  24501855.369    24501863.427
  23250399.686    -8788433.29649  -6825840.65545  23250399.213    23250408.066
  20722726.567   -18363866.35549 -14298000.07648  20722726.135    20722732.130
                  -1336154.55549   -826358.89543
  22301458.192   -13889409.30949 -10315357.79546  22301457.971    22301463.877
  23262628.823    -8679318.35049  -6749773.94946  23262627.808    23262635.096
  21709257.639   -13453545.33749 -10468136.10847  21709257.044    21709262.604
  20465828.429   -22695826.64949 -17676075.36248  20465827.712    20465833.527
  22463256.239   -15007360.74849 -11682465.58446  22463255.072    22463260.026
 04  7 20  2 30  0.0000000  0  9G 3G31G27G29G13G10G28G 8G19
  24517963.083    -1101351.69649   -706408.30345  24517962.458    24517970.347
  23228927.025    -8901273.22149  -6913767.72845  23228926.548    23228934.971
  20724388.440   -18355133.38449 -14291195.16148  20724387.965    20724394.005
  24138207.936    -1433858.41949   -902491.68744  24138207.187    24138212.918
  22319478.186   -13794713.47949 -10241568.90446  22319477.967    22319483.902
  23268241.094    -8649825.29149  -6726792.39446  23268240.103    23268247.452
  21697199.157   -13516913.12249 -10517513.57447  21697198.532    21697204.025
  20460314.095   -22724804.72749 -17698655.68448  20460313.390    20460319.150
  22466371.615   -14990989.69949 -11669708.91446  22466370.415    22466375.295
 04  7 20  2 30 30.0000000  0  9G 3G31G27G29G13G10G28G 8G19
  24534136.313    -1016361.11249   -640181.89745  24534135.511    24534143.770
  23207478.219    -9013986.81249  -7001596.36345  23207477.739    23207485.799
  20726097.072   -18346154.38349 -14284198.53548  20726096.632    20726102.641
  24119643.965    -1531414.01949   -978508.97245  24119644.248    24119649.654
  22337557.076   -13699708.16349 -10167538.84946  22337556.901    22337562.851
  23273951.548    -8619815.75249  -6703408.34946  23273950.559    23273958.176
  21685203.062   -13579952.73149 -10566635.30747  21685202.447    21685207.945
  20454851.594   -22753510.20149 -17721023.58248  20454850.891    20454856.625
  22469595.411   -14974048.36949 -11656507.87546  22469594.214    22469599.036
 04  7 20  2 31  0.0000000  0  9G 3G31G27G29G13G10G28G 8G19
  24550375.288     -931025.37449   -573686.53845  24550374.589    24550382.949
  23186054.153    -9126570.23749  -7089323.57445  23186053.590    23186061.515
  20727852.643   -18336928.87049 -14277009.82448  20727852.187    20727858.221
  24101108.713    -1628819.17649  -1054409.05645  24101109.669    24101113.944
  22355694.540   -13604395.41849 -10093269.24346  22355694.385    22355700.279
  23279760.279    -8589291.38149  -6679623.15246  23279759.328    23279766.882
  21673269.529   -13642663.64049 -10615500.91047  21673268.908    21673274.438
  20449441.173   -22781942.22949 -17743178.39948  20449440.487    20449446.149
  22472927.734   -14956537.21249 -11642862.81846  22472926.487    22472931.283
 04  7 20  2 31 30.0000000  0  9G 3G31G27G29G13G10G28G 8G19
  24566679.034     -845347.12349   -506924.24945  24566678.193    24566686.961
  23164655.180    -9239021.21249  -7176947.56045  23164654.753    23164662.752
  20729655.280   -18327456.22049 -14269628.53548  20729654.789    20729660.761
  24082602.262    -1726071.49549  -1130190.06445  24082602.302    24082608.170
  22373890.196   -13508777.07949 -10018761.49446  22373890.028    22373895.825
  23285666.604    -8558254.32249  -6655438.46146  23285665.510    23285672.986
  21661398.702   -13705045.35949 -10664110.00447  21661398.096    21661403.583
  20444082.920   -22810100.26449 -17765119.72448  20444082.196    20444087.832
  22476368.376   -14938456.53249 -11628773.97646  22476367.135    22476371.896
 04  7 20  2 32  0.0000000  0  9G 3G31G27G29G13G10G28G 8G19
  24583047.787     -759328.08649   -439896.42745  24583046.981    24583055.782
  23143282.393    -9351335.68349  -7264465.20645  23143281.919    23143290.079
  20731505.173   -18317735.12349 -14262053.65448  20731504.658    20731510.568
  24064125.175    -1823167.88949  -1205849.54645  24064124.494    24064131.460
  22392143.724   -13412854.80649  -9944016.92146  22392143.521    22392149.349
  23291670.016    -8526705.68849  -6630855.14246  23291668.953    23291676.470
  21649590.801   -13767096.79249 -10712461.72147  21649590.111    21649595.542
  20438777.062   -22837982.78849 -17786846.36548  20438776.340    20438782.037
  22479917.525   -14919805.97449 -11614241.06046  22479916.218    22479920.932
 04  7 20  2 32 30.0000000  0  9G 3G31G27G29G13G10G28G 8G19
  24599481.110     -672970.97049   -372605.16345  24599480.384    24599488.853
  23121936.258    -9463511.07749  -7351874.47845  23121935.687    23121943.936
  20733402.434   -18307765.14049 -14254284.83748  20733401.895    20733407.764
  24045678.223    -1920106.53549  -1281386.15645  24045677.434    24045684.728
  22410454.401   -13316630.79449  -9869037.23646  22410454.286    22410460.266
  23297770.468    -8494647.43849  -6605874.71846  23297769.459    23297776.963
  21637845.659   -13828817.85549 -10760556.01347  21637844.952    21637850.379
  20433523.737   -22865589.30849 -17808357.94148  20433523.016    20433528.707
  22483574.729   -14900586.62549 -11599264.93346  22483573.496    22483578.214
 04  7 20  2 33  0.0000000  0  8G31G27G29G13G10G28G 8G19
  23100617.035    -9575544.63549  -7439173.22745  23100616.356    23100624.777
  20735347.033   -18297545.94449 -14246321.82948  20735346.528    20735352.366
  24027262.018    -2016885.21849  -1356798.07445  24027261.144    24027268.400
  22428821.919   -13220107.70549  -9793824.50646  22428821.900    22428828.021
  23303967.570    -8462081.80149  -6580498.93746  23303966.530    23303974.068
  21626163.360   -13890208.39549 -10808392.75847  21626162.639    21626168.136
  20428323.082   -22892919.38349 -17829654.10748  20428322.327    20428327.951
  22487340.109   -14880799.26149 -11583846.22446  22487338.899    22487343.629
 04  7 20  2 33 30.0000000  0  8G31G27G29G13G10G28G 8G19
  23079325.683    -9687430.82249  -7526357.14645  23079324.936    23079333.480
  20737339.736   -18287074.50449 -14238162.26547  20737339.189    20737345.028
  24008877.006    -2113499.24949  -1432081.68345  24008876.160    24008883.013
  22447246.727   -13123284.71249  -9718378.07446  22447246.694    22447252.888
  23310261.363    -8429008.32249  -6554727.41646  23310260.233    23310267.660
  21614544.575   -13951265.15949 -10855969.42847  21614543.873    21614549.391
  20423175.456   -22919969.83449 -17850732.36748  20423174.731    20423180.414
  22491214.088   -14860442.08249 -11567983.47346  22491212.817    22491217.417
 04  7 20  2 34  0.0000000  0  8G31G27G29G13G10G28G 8G19
  23058062.354    -9799169.98649  -7613426.48345  23058061.566    23058070.008
  20739379.969   -18276353.43049 -14229808.18947  20739379.386    20739385.139
  23990523.032    -2209949.64749  -1507237.81545  23990522.537    23990528.636
  22465727.652   -13026167.38049  -9642702.29646  22465727.630    22465733.897
  23316650.582    -8395431.95249  -6528564.06846  23316649.570    23316656.956
  21602988.752   -14011991.27849 -10903288.46247  21602988.083    21602993.536
  20418080.659   -22946743.10249 -17871594.65748  20418079.937    20418085.577
  22495195.532   -14839518.81649 -11551679.63846  22495194.341    22495198.984
 04  7 20  2 34 30.0000000  0  8G31G27G29G13G10G28G 8G19
  23036827.845    -9910758.13149  -7700378.17145  23036826.927    23036835.164
  20741467.857   -18265381.36149 -14221258.52447  20741467.281    20741473.058
  23972200.700    -2306233.19249  -1582263.90945  23972200.481    23972206.430
  22484264.404   -12928756.91649  -9566798.08846  22484264.417    22484270.615
  23323135.399    -8361353.92249  -6502009.78946  23323134.410    23323141.758
  21591496.198   -14072385.56049 -10950348.91247  21591495.479    21591500.847
  20413038.814   -22973238.10749 -17892240.11248  20413038.078    20413043.699
  22499284.802   -14818029.18249 -11534934.47646  22499283.700    22499288.331
 04  7 20  2 35  0.0000000  0  8G31G27G29G13G10G28G 8G19
  23015622.384   -10022192.84249  -7787210.30045  23015621.557    23015629.656
  20743603.584   -18254158.11749 -14212513.14247  20743603.022    20743608.787
  23953910.644    -2402348.04049  -1657158.57945  23953910.453    23953916.380
  22502856.458   -12831055.83549  -9490667.44846  22502856.436    22502862.498
  23329715.347    -8326776.75849  -6475066.56246  23329714.334    23329721.632
  21580066.646   -14132448.15549 -10997150.90047  21580065.891    21580071.285
  20408050.093   -22999453.91949 -17912668.00948  20408049.351    20408055.046
  22503481.729   -14795974.25149 -11517748.80346  22503480.655    22503485.207
 04  7 20  2 35 30.0000000  0  8G31G27G29G13G10G28G 8G19
  22994446.801   -10133470.54549  -7873920.08245  22994446.037    22994453.930
  20745787.296   -18242682.59049 -14203571.17747  20745786.731    20745792.488
  23935653.065    -2498291.50549  -1731919.70845  23935652.812    23935658.935
  22521503.417   -12733065.75749  -9414311.60346  22521503.338    22521509.430
  23336389.914    -8291701.58849  -6447735.31046  23336388.855    23336396.330
  21568700.273   -14192178.18049 -11043693.75147  21568699.540    21568704.997
  20403114.697   -23025389.42449 -17932877.49548  20403113.978    20403119.707
  22507786.097   -14773354.47149 -11500123.00446  22507785.035    22507789.614
 04  7 20  2 36  0.0000000  0  8G31G27G29G13G10G28G 8G19
  22973301.912   -10244587.99549  -7960504.97645  22973301.056    22973308.835
  20748019.216   -18230953.96749 -14194431.99447  20748018.626    20748024.410
  23917428.950    -2594060.89749  -1806545.19845  23917428.548    23917434.744
  22540204.690   -12634788.87449  -9337732.25646  22540204.671    22540210.812
  23343158.764    -8256130.58849  -6420017.67546  23343157.838    23343165.244
  21557397.355   -14251574.84249 -11089976.83447  21557396.685    21557402.164
  20398232.728   -23051044.07149 -17952868.12248  20398232.028    20398237.850
  22512198.083   -14750169.95749 -11482057.15546  22512196.931    22512201.560
 04  7 20  2 36 30.0000000  0  8G31G27G29G13G10G28G 8G19
  22952187.840   -10355542.60749  -8046963.01646  22952187.032    22952194.886
  20750299.181   -18218972.10349 -14185095.48248  20750298.637    20750304.476
  23899238.428    -2689654.34949  -1881033.60945  23899237.972    23899243.993
  22558960.267   -12536227.68449  -9260931.38446  22558960.187    22558966.331
  23350021.805    -8220066.01349  -6391915.45546  23350020.777    23350028.127
  21546157.994   -14310638.35749 -11136000.32647  21546157.316    21546162.768
  20393404.371   -23076417.17849 -17972639.36848  20393403.660    20393409.548
  22516717.011   -14726422.04749 -11463552.30346  22516715.962    22516720.525
 04  7 20  2 37  0.0000000  0  8G31G27G29G13G10G28G 8G19
  22931105.526   -10466330.76749  -8133291.32946  22931104.767    22931112.609
  20752627.743   -18206735.39649 -14175560.39848  20752627.205    20752633.033
  23881081.631    -2785068.95649  -1955382.62345  23881081.132    23881087.333
  22577769.727   -12437383.38449  -9183909.90946  22577769.655    22577775.893
  23356978.278    -8183509.43249  -6363429.85046  23356977.281    23356984.499
  21534982.214   -14369367.52149 -11181763.28347  21534981.523    21534986.947
  20388629.900   -23101507.11549 -17992189.96048  20388629.206    20388635.083
  22521343.378   -14702110.79749 -11444608.46946  22521342.279    22521346.833
 04  7 20  2 37 30.0000000  0  8G31G27G29G13G10G28G 8G19
  22910055.441   -10576949.16949  -8219487.38446  22910054.749    22910062.557
  20755004.830   -18194243.52149 -14165826.47648  20755004.319    20755010.187
  23862959.283    -2880302.17749  -2029590.26045  23862958.777    23862964.973
  22596632.677   -12338258.13349  -9106669.50446  22596632.737    22596638.937
  23364028.212    -8146462.54849  -6334562.17146  23364027.181    23364034.338
  21523870.046   -14427762.11449 -11227265.52747  21523869.346    21523874.780
  20383909.514   -23126313.20049 -18011519.36748  20383908.803    20383914.636
  22526076.844   -14677236.85149 -11425226.18446  22526075.653    22526080.309
 04  7 20  2 38  0.0000000  0  8G31G27G29G13G10G28G 8G19
  22889038.293   -10687394.64949  -8305548.70946  22889037.599    22889045.499
  20757430.708   -18181495.37449 -14155892.86248  20757430.240    20757436.123
  23844871.818    -2975351.34649  -2103654.49045  23844871.430    23844877.388
  22615548.987   -12238853.91149  -9029211.73546  22615548.871    22615555.090
  23371170.791    -8108927.49749  -6305314.11746  23371169.786    23371177.093
  21512821.700   -14485821.35449 -11272506.46747  21512821.024    21512826.397
  20379243.215   -23150834.94549 -18030627.20848  20379242.484    20379248.347
  22530917.096   -14651800.83549 -11405405.91146  22530915.981    22530920.571
 04  7 20  2 38 30.0000000  0  8G31G27G29G13G10G28G 8G19
  22868054.655   -10797663.53949  -8391472.42046  22868053.856    22868062.012
  20759905.515   -18168489.92849 -14145758.75548  20759905.067    20759910.977
  23826819.865    -3070213.83549  -2177573.21745  23826819.498    23826825.556
  22634518.011   -12139172.44249  -8951537.92146  22634517.710    22634523.987
  23378406.005    -8070905.53449  -6275686.65646  23378405.047    23378412.607
  21501837.395   -14543544.47949 -11317485.48647  21501836.698    21501841.984
  20374631.366   -23175070.68449 -18049512.19348  20374630.617    20374636.512
  22535864.238   -14625802.96349 -11385147.84246  22535863.236    22535867.700
 04  7 20  2 39  0.0000000  0  8G31G27G29G13G10G28G 8G19
  22847105.215   -10907753.75949  -8477256.90846  22847104.260    22847112.375
  20762429.392   -18155227.35649 -14135424.29448  20762428.889    20762434.809
  23808803.866    -3164888.03149  -2251345.25045  23808803.289    23808809.416
  22653538.676   -12039216.60049  -8873650.29046  22653538.572    22653544.936
  23385733.493    -8032399.71149  -6245682.15646  23385732.464    23385740.089
  21490916.923   -14600932.05049 -11362203.05047  21490916.198    21490921.467
  20370073.906   -23199020.18349 -18068174.13248  20370073.142    20370079.086
  22540918.252   -14599244.67249 -11364453.06646  22540917.147    22540921.614
 04  7 20  2 39 30.0000000  0  8G31G27G29G13G10G28G 8G19
  22826190.205   -11017662.04249  -8562899.59046  22826189.318    22826197.312
  20765002.223   -18141706.88349 -14124888.86648  20765001.708    20765007.659
  23790824.056    -3259371.16649  -2324968.44845  23790823.686    23790829.973
  22672611.266   -11938988.24549  -8795550.29846  22672611.238    22672617.675
  23393152.836    -7993412.07949  -6215302.19046  23393151.788    23393159.281
  21480060.329   -14657983.57249 -11406658.74747  21480059.634    21480064.912
  20365571.028   -23222682.75149 -18086612.49148  20365570.279    20365576.250
  22546078.674   -14572126.84149 -11343322.29146  22546077.496    22546082.036
 04  7 20  2 40  0.0000000  0  8G31G27G29G13G10G28G 8G19
  22805310.235   -11127385.47449  -8648398.24246  22805309.563    22805317.377
  20767624.278   -18127927.98149 -14114152.07147  20767623.763    20767629.692
  23772881.307    -3353661.33849  -2398441.26645  23772880.947    23772887.363
  22691735.751   -11838489.53949  -8717239.68646  22691735.528    22691741.893
  23400663.449    -7953944.62849  -6184548.39446  23400662.259    23400669.662
  21469267.775   -14714698.83249 -11450852.42947  21469267.076    21469272.322
  20361122.794   -23246058.16549 -18104827.08248  20361122.068    20361128.019
  22551345.233   -14544450.39949 -11321756.23846  22551344.099    22551348.663
 04  7 20  2 40 30.0000000  0  8G31G27G29G13G10G28G 8G19
  22784466.221   -11236920.57449  -8733750.14946  22784465.713    22784473.404
  20770295.621   -18113889.66949 -14103213.13747  20770295.164    20770301.040
  23754975.834    -3447755.54049  -2471761.38645  23754975.543    23754982.050
  22710911.242   -11737722.85649  -8638720.28846  22710910.943    22710917.052
  23408264.645    -7913999.42349  -6153422.25945  23408263.605    23408270.856
  21458539.286   -14771077.18649 -11494783.58147  21458538.583    21458543.781
  20356729.617   -23269144.51049 -18122816.43048  20356728.880    20356734.806
  22556718.045   -14516215.83349 -11299755.29346  22556716.990    22556721.514
 04  7 20  2 41  0.0000000  0  8G31G27G29G13G10G28G 8G19
  22763658.664   -11346265.01049  -8818953.52046  22763658.167    22763665.776
  20773016.444   -18099591.93449 -14092072.05747  20773015.950    20773021.816
  23737107.984    -3541652.10149  -2544927.49245  23737107.702    23737114.331
  22730137.023   -11636690.47949  -8559993.84746  22730136.914    22730142.840
  23415956.294    -7873579.27149  -6121926.08145  23415955.162    23415962.651
  21447874.763   -14827118.95149 -11538452.45847  21447874.106    21447879.227
  20352391.397   -23291941.99149 -18140580.69348  20352390.683    20352396.528
  22562197.052   -14487424.67749 -11277320.61346  22562195.777    22562200.335
 04  7 20  2 41 30.0000000  0  8G31G27G29G13G10G28G 8G19
  22742888.017   -11455415.04349  -8904005.38846  22742887.438    22742895.181
  20775786.812   -18085033.77649 -14080728.04447  20775786.282    20775792.155
  23719278.332    -3635348.07849  -2617937.28545  23719278.056    23719284.581
  22749413.012   -11535394.28449  -8481061.82046  22749413.059    22749418.966
  23423737.964    -7832685.71249  -6090060.97645  23423736.866    23423744.392
  21437274.500   -14882823.25249 -11581858.36647  21437273.904    21437279.010
  20348108.414   -23314449.17649 -18158118.75348  20348107.718    20348113.540
  22567781.597   -14458077.20249 -11254452.46346  22567780.382    22567785.048
 04  7 20  2 42  0.0000000  0  8G31G27G29G13G10G28G 8G19
  22722154.834   -11564366.60949  -8988902.63246  22722154.340    22722162.286
  20778607.039   -18070213.01949 -14069179.40747  20778606.550    20778612.443
  23701487.248    -3728840.07749  -2690788.12645  23701487.072    23701493.466
  22768739.111   -11433835.43749  -8401925.10746  22768739.100    22768745.256
  23431609.582    -7791319.80349  -6057827.82645  23431608.575    23431616.047
  21426738.863   -14938188.65749 -11625000.21247  21426738.218    21426743.364
  20343881.093   -23336664.20849 -18175429.16848  20343880.335    20343886.144
  22573471.902   -14428173.29849 -11231150.71446  22573470.851    22573475.577
 04  7 20  2 42 30.0000000  0  9G31G27G29G26G13G10G28G 8G19
  22701460.037   -11673117.56249  -9073643.54346  22701459.527    22701467.634
  20781477.111   -18055130.24449 -14057426.59547  20781476.673    20781482.634
  23683735.359    -3822126.36349  -2763478.68345  23683735.222    23683741.372
                  -1504859.52649  -1152745.99443
  22788114.442   -11332016.97349  -8322586.08246  22788114.457    22788120.874
  23439570.498    -7749484.62649  -6025229.02045  23439569.603    23439577.261
  21416267.426   -14993215.88949 -11667878.54847  21416266.817    21416272.035
  20339709.316   -23358587.24949 -18192512.06148  20339708.563    20339714.296
  22579268.005   -14397714.93949 -11207416.94146  22579266.878    22579271.614
 04  7 20  2 43  0.0000000  0  9G31G27G29G26G13G10G28G 8G19
  22680804.137   -11781665.53549  -9158226.28046  22680803.526    22680811.446
  20784397.138   -18039785.63649 -14045469.75947  20784396.692    20784402.657
  23666023.377    -3915205.69549  -2836007.94645  23666022.785    23666028.695
                  -1608387.56149  -1233417.04944                  24291809.368
  22807538.846   -11229941.62349  -8243046.91346  22807538.819    22807545.387
  23447620.253    -7707183.19649  -5992266.88245  23447619.390    23447626.970
  21405860.295   -15047905.52849 -11710493.82247  21405859.662    21405864.886
  20335593.104   -23380218.22849 -18209367.36348  20335592.342    20335598.101
  22585169.321   -14366703.80249 -11183252.40246  22585168.063    22585172.841
 04  7 20  2 43 30.0000000  0  9G31G27G29G26G13G10G28G 8G19
  22660187.363   -11890008.49149  -9242649.26446  22660186.669    22660194.371
  20787366.903   -18024179.40649 -14033309.06147  20787366.436    20787372.459
  23648350.659    -4008076.16249  -2908374.48445  23648349.879    23648355.764
  24272136.335    -1711741.97549  -1313952.84444  24272137.939    24272142.108
  22827011.471   -11127612.71149  -8163310.15246  22827011.449    22827018.019
  23455758.336    -7664418.72849  -5958943.95645  23455757.328    23455764.865
  21395517.252   -15102258.47449 -11752846.73247  21395516.632    21395521.815
  20331532.409   -23401557.66049 -18225995.48948  20331531.614    20331537.275
  22591175.366   -14335141.88349 -11158658.69546  22591174.076    22591178.876
 04  7 20  2 44  0.0000000  0  9G31G27G29G26G13G10G28G 8G19
  22639610.105   -11998141.85049  -9326908.88646  22639609.575    22639617.134
  20790386.895   -18008309.59149 -14020942.97447  20790386.365    20790392.360
  23630717.958    -4100734.22849  -2980575.51445  23630717.495    23630723.591
  24252502.769    -1814918.56249  -1394350.11444  24252502.662    24252508.491
  22846532.332   -11025031.03549  -8083376.46946  22846532.265    22846538.524
  23463984.017    -7621192.26549  -5925261.02446  23463983.093    23463990.579
  21385238.726   -15156272.68749 -11794935.70547  21385238.048    21385243.217
  20327527.555   -23422603.01849 -18242394.47248  20327526.746    20327532.419
  22597286.227   -14303028.75049 -11133635.46846  22597284.975    22597289.798
 04  7 20  2 44 30.0000000  0  9G31G27G29G26G13G10G28G 8G19
  22619073.242   -12106062.38449  -9411002.70246  22619072.782    22619080.226
  20793457.206   -17992175.27449 -14008370.77847  20793456.639    20793462.654
  23613126.616    -4193177.45449  -3052609.16645  23613125.993    23613132.137
  24232903.043    -1917914.58349  -1474606.61944  24232902.561    24232909.640
  22866101.056   -10922198.52249  -8003247.33546  22866100.748    22866106.744
  23472297.037    -7577505.88549  -5891219.71846  23472296.237    23472303.963
  21375024.628   -15209947.92249 -11836760.55047  21375023.949    21375029.126
  20323578.955   -23443352.73649 -18258563.08748  20323578.160    20323583.863
  22603501.724   -14270365.36949 -11108183.48946  22603500.592    22603505.457
 04  7 20  2 45  0.0000000  0  9G31G27G29G26G13G10G28G 8G19
  22598577.803   -12213765.86149  -9494927.41646  22598577.361    22598584.747
  20796578.094   -17975774.72349 -13995591.12747  20796577.539    20796583.528
  23595576.511    -4285401.88249  -3124472.31945  23595576.173    23595582.488
  24213338.471    -2020726.42449  -1554719.70244  24213337.556    24213346.094
  22885716.724   -10819116.44049  -7922923.72346  22885716.528    22885722.598
  23480697.579    -7533360.73849  -5856820.92746  23480696.702    23480704.456
  21364875.319   -15263282.84149 -11878320.19747  21364874.635    21364879.830
  20319686.813   -23463805.73649 -18274500.49448  20319686.044    20319691.805
  22609822.310   -14237151.27749 -11082302.36246  22609821.107    22609825.867
 04  7 20  2 45 30.0000000  0  9G31G27G29G26G13G10G28G 8G19
  22578124.357   -12321249.32449  -9578680.67346  22578123.780    22578131.276
  20799749.806   -17959107.24349 -13982603.47847  20799749.263    20799755.245
  23578068.788    -4377405.36049  -3196163.29845  23578068.443    23578074.838
  24193809.799    -2123351.63949  -1634687.35044  24193808.694    24193817.224
  22905379.235   -10715787.03349  -7842407.35346  22905379.356    22905385.710
  23489185.081    -7488759.30549  -5822066.57846  23489184.186    23489191.750
  21354790.783   -15316277.12349 -11919614.40547  21354790.136    21354795.329
  20315851.340   -23483961.08249 -18290205.96548  20315850.569    20315856.385
  22616247.323   -14203388.00249 -11055993.31146  22616246.028    22616250.835
 04  7 20  2 46  0.0000000  0  9G31G27G29G26G13G10G28G 8G19
  22557713.383   -12428510.23249  -9662260.52046  22557712.651    22557720.154
  20802972.384   -17942172.94049 -13969407.91347  20802971.782    20802977.765
  23560603.650    -4469186.02849  -3267680.64545  23560603.164    23560609.500
  24174316.688    -2225788.17249  -1714507.94845  24174315.869    24174324.260
  22925088.670   -10612213.06349  -7761700.42546  22925088.761    22925095.404
  23497759.077    -7443704.12849  -5786958.70446  23497758.120    23497765.601
  21344771.090   -15368931.19949 -11960643.52447  21344770.413    21344775.515
  20312072.616   -23503818.13149 -18305678.98948  20312071.885    20312077.717
  22622776.348   -14169077.18349 -11029257.60846  22622775.149    22622779.990
 04  7 20  2 46 30.0000000  0  9G31G27G29G26G13G10G28G 8G19
  22537345.255   -12535545.37549  -9745664.42746  22537344.501    22537352.112
  20806245.730   -17924970.93249 -13956003.75447  20806245.186    20806251.164
  23543181.044    -4560741.23149  -3339022.29045  23543180.645    23543187.036
  24154860.194    -2328033.32949  -1794179.39745  24154859.518    24154867.550
  22944844.424   -10508396.36249  -7680804.35246  22944844.484    22944851.314
  23506418.632    -7398197.49149  -5751499.03046  23506417.715    23506425.226
  21334816.161   -15421244.98949 -12001407.48647  21334815.455    21334820.517
  20308350.810   -23523376.38949 -18320919.19748  20308350.072    20308355.880
  22629409.576   -14134219.79949 -11002096.00446  22629408.267    22629413.101
 04  7 20  2 47  0.0000000  0  9G31G27G29G26G13G10G28G 8G19
  22517020.549   -12642352.16649  -9828890.42046  22517019.911    22517027.465
  20809570.163   -17907501.18149 -13942390.96047  20809569.585    20809575.605
  23525801.876    -4652069.02249  -3410186.72445  23525801.377    23525807.793
  24135440.347    -2430085.02049  -1873700.10644  24135439.733    24135447.442
  22964645.934   -10404339.96649  -7599721.51446  22964645.916    22964652.715
  23515163.572    -7352242.30049  -5715689.81646  23515162.651    23515170.373
  21324925.813   -15473218.47349 -12041906.26247  21324925.132    21324930.194
  20304685.893   -23542635.33449 -18335926.16848  20304685.179    20304690.927
  22636146.382   -14098817.41249 -10974509.72646  22636145.073    22636150.007
 04  7 20  2 47 30.0000000  0  9G31G27G29G26G13G10G28G 8G19
  22496740.154   -12748926.99949  -9911935.64146  22496739.452    22496746.932
  20812945.734   -17889762.43649 -13928568.56547  20812945.158    20812951.191
  23508466.595    -4743166.58049  -3481171.77145  23508465.968    23508472.348
  24116057.831    -2531940.16149  -1953067.70044  24116057.131    24116064.634
  22984492.506   -10300045.53149  -7518453.18346  22984492.596    22984499.343
  23523993.541    -7305840.45749  -5679532.56046  23523992.599    23524000.261
  21315100.370   -15524850.89749 -12082139.28747  21315099.714    21315104.814
  20301078.270   -23561593.63549 -18350698.87048  20301077.556    20301083.256
  22642986.699   -14062870.61749 -10946499.23746  22642985.478    22642990.447
 04  7 20  2 48  0.0000000  0  9G31G27G29G26G13G10G28G 8G19
  22476504.378   -12855266.71349  -9994797.64246  22476503.581    22476510.939
  20816372.634   -17871753.93849 -13914535.97147  20816372.095    20816378.133
  23491175.577    -4834031.17049  -3551975.30045  23491175.058    23491181.392
  24096712.801    -2633596.03649  -2032280.01944  24096712.155    24096719.645
  23004383.864   -10195515.24549  -7437001.05545  23004384.106    23004390.733
  23532908.024    -7258994.17549  -5643029.01446  23532907.078    23532914.866
  21305339.871   -15576142.22349 -12122106.52947  21305339.260    21305344.365
  20297528.066   -23580250.55349 -18365236.72348  20297527.284    20297532.997
  22649930.464   -14026380.41949 -10918065.31646  22649929.320    22649934.296
 04  7 20  2 48 30.0000000  0  9G31G27G29G26G13G10G28G 8G19
  22456313.843   -12961368.18149 -10077474.01046  22456312.968    22456320.304
  20819851.069   -17853475.19849 -13900292.80747  20819850.457    20819856.448
  23473929.242    -4924660.47649  -3622595.51545  23473928.867    23473935.058
  24077406.701    -2735050.01149  -2111335.03844  24077405.939    24077413.372
  23024319.631   -10090751.14349  -7355366.78045  23024319.935    23024326.594
  23541906.725    -7211705.92049  -5606181.00846  23541905.737    23541913.441
  21295644.431   -15627092.27749 -12161807.83947  21295643.803    21295648.878
  20294035.308   -23598605.02949 -18379538.91348  20294034.562    20294040.225
  22656977.415   -13989348.07749 -10889208.95546  22656976.322    22656981.327
 04  7 20  2 49  0.0000000  0  9G31G27G29G26G13G10G28G 8G19
  22436169.015   -13067228.61149 -10159962.56646  22436168.224    22436175.507
  20823380.866   -17834925.58249 -13885838.56147  20823380.304    20823386.319
  23456728.249    -5015052.35949  -3693030.74745  23456728.054    23456734.085
  24058139.503    -2836299.94849  -2190231.07945  24058139.166    24058146.259
  23044299.658    -9985755.99749  -7273552.44645  23044299.893    23044306.606
  23550989.108    -7163978.46649  -5568990.84846  23550988.091    23550995.726
  21286013.944   -15677701.03549 -12201243.20747  21286013.260    21286018.307
  20290600.209   -23616656.69349 -18393605.14148  20290599.440    20290605.157
  22664127.278   -13951775.23349 -10859931.41946  22664126.192    22664131.106
 04  7 20  2 49 30.0000000  0  9G31G27G29G26G13G10G28G 8G19
  22416070.569   -13172845.52849 -10242261.36946  22416069.898    22416077.137
  20826962.282   -17816105.29149 -13871173.40947  20826961.705    20826967.674
  23439572.939    -5105204.89049  -3763279.46545  23439572.682    23439578.585
  24038911.785    -2937343.81249  -2268966.53345  24038911.567    24038918.547
  23064322.996    -9880532.53849  -7191560.21245  23064323.311    23064330.047
  23560154.477    -7115814.71549  -5531460.67746  23560153.525    23560160.835
  21276448.135   -15727969.07849 -12240413.07447  21276447.512    21276452.552
  20287222.778   -23634405.09949 -18407435.06548  20287222.038    20287227.727
  22671379.753   -13913663.64749 -10830234.07246  22671378.611    22671383.491
 04  7 20  2 50  0.0000000  0  9G31G27G29G26G13G10G28G 8G19
  22396019.286   -13278215.89749 -10324368.06446  22396018.609    22396025.807
  20830595.292   -17797013.64449 -13856296.80547  20830594.719    20830600.658
  23422463.447    -5195115.62549  -3833339.77045  23422463.206    23422469.210
  24019723.689    -3038178.87649  -2347539.26545  24019723.362    24019730.391
  23084389.641    -9775082.83349  -7109391.66546  23084389.949    23084396.637
  23569402.130    -7067217.20749  -5493592.54545  23569401.154    23569408.686
  21266947.315   -15777896.25849 -12279317.33547  21266946.689    21266951.673
  20283903.163   -23651849.56249 -18421028.14948  20283902.427    20283908.144
  22678734.486   -13875014.60749 -10800117.94046  22678733.300    22678738.221
 04  7 20  2 50 30.0000000  0  9G31G27G29G26G13G10G28G 8G19
  22376015.606   -13383335.62249 -10406279.44746  22376014.947    22376022.238
  20834280.268   -17777649.11049 -13841207.56447  20834279.698    20834285.618
  23405400.741    -5284781.12949  -3903208.96345  23405400.379    23405406.324
  24000575.536    -3138801.62049  -2425946.55445  24000575.518    24000582.466
  23104498.772    -9669408.49949  -7027048.09146  23104499.168    23104505.912
  23578732.080    -7018187.52549  -5455387.61745  23578731.015    23578738.661
  21257511.616   -15827481.18649 -12317954.90847  21257510.971    21257515.911
  20280641.791   -23668988.24749 -18434382.97148  20280641.054    20280646.753
  22686191.291   -13835828.50549 -10769583.32746  22686190.128    22686195.064
 04  7 20  2 51  0.0000000  0  9G31G27G29G26G13G10G28G 8G19
  22356060.358   -13488201.61249 -10487993.12946  22356059.602    22356066.963
  20838017.320   -17758010.86749 -13825905.04447  20838016.761    20838022.675
  23388385.259    -5374198.89949  -3972885.10845  23388384.718    23388390.538
  23981468.190    -3239209.31748  -2504186.32544  23981468.375    23981475.239
  23124650.442    -9563511.70549  -6944531.13846  23124650.748    23124657.566
  23588143.972    -6968727.88049  -5416847.65345  23588142.919    23588150.635
  21248141.068   -15876723.84449 -12356325.78347  21248140.418    21248145.298
  20277438.753   -23685820.26149 -18447498.81848  20277438.022    20277443.697
  22693750.074   -13796106.63549 -10738631.21846  22693749.014    22693753.819
 04  7 20  2 51 30.0000000  0  9G31G27G29G26G13G10G28G 8G19
  22336153.705   -13592811.09049 -10569506.91446  22336152.943    22336160.461
  20841806.445   -17738098.63749 -13810389.02947  20841805.928    20841811.864
  23371417.102    -5463366.72549  -4042366.49445  23371416.666    23371422.326
  23962401.142    -3339399.76749  -2582256.76344  23962401.906    23962409.045
  23144843.933    -9457394.83149  -6861842.72145  23144844.058    23144850.923
  23597637.114    -6918841.00349  -5377974.83845  23597636.037    23597643.772
  21238835.467   -15925624.80349 -12394430.39847  21238834.791    21238839.724
  20274294.120   -23702345.26249 -18460375.43048  20274293.419    20274299.079
  22701410.783   -13755850.41249 -10707262.73746  22701409.591    22701414.304
 04  7 20  2 52  0.0000000  0  9G31G27G29G26G13G10G28G 8G19
  22316296.646   -13697160.61749 -10650818.15146  22316295.801    22316303.230
  20845647.996   -17717911.62949 -13794658.89847  20845647.408    20845653.355
  23354496.769    -5552281.98149  -4111651.07645  23354496.489    23354502.150
  23943377.064    -3439369.81749  -2660155.42244  23943377.964    23943385.176
  23165078.871    -9351060.13849  -6778984.58345  23165078.880    23165085.615
  23607211.336    -6868529.23949  -5338770.89845  23607210.249    23607217.708
  21229595.115   -15974183.29749 -12432268.15747  21229594.437    21229599.439
  20271208.270   -23718561.86149 -18473011.73248  20271207.505    20271213.196
  22709172.930   -13715060.69549 -10675478.54946  22709171.608    22709176.395
 04  7 20  2 52 30.0000000  0  9G31G27G29G26G13G10G28G 8G19
  22296489.361   -13801247.47049 -10731924.72146  22296488.612    22296495.930
  20849541.840   -17697449.37149 -13778714.29047  20849541.253    20849547.202
  23337625.176    -5640942.30149  -4180737.03345  23337624.958    23337630.781
  23924396.308    -3539117.37949  -2737880.72745  23924397.103    23924403.930
  23185354.606    -9244509.80249  -6695958.42545  23185354.783    23185361.376
  23616865.865    -6817795.41749  -5299238.05945  23616864.835    23616872.102
  21220419.897   -16022399.55649 -12469839.23547  21220419.209    21220424.176
  20268181.079   -23734469.49449 -18485407.28648  20268180.341    20268186.069
  22717036.043   -13673739.38049 -10643280.13246  22717034.784    22717039.596
 04  7 20  2 53  0.0000000  0  9G31G27G29G26G13G10G28G 8G19
  22276732.758   -13905069.36949 -10812824.81646  22276731.950    22276739.128
  20853487.993   -17676712.21249 -13762555.47547  20853487.391    20853493.341
  23320802.480    -5729346.28949  -4249623.25445  23320802.245    23320808.147
  23905458.144    -3638640.69649  -2815431.29045  23905458.635    23905465.509
  23205671.070    -9137747.12449  -6612766.79445  23205671.148    23205677.716
  23626599.523    -6766643.09149  -5259379.19045  23626598.616    23626606.126
  21211309.595   -16070274.41949 -12507144.29147  21211308.876    21211313.871
  20265212.608   -23750068.68149 -18497562.49648  20265211.876    20265217.640
  22725000.103   -13631888.85449 -10610669.34047  22724998.731    22725003.428
 04  7 20  2 53 30.0000000  0  9G31G27G29G26G13G10G28G 8G19
  22257027.142   -14008622.99849 -10893515.86046  22257026.282    22257033.368
  20857486.604   -17655699.02249 -13746181.57447  20857486.063    20857492.012
  23304029.229    -5817491.00049  -4318307.42845  23304028.917    23304034.911
  23886563.087    -3737936.65149  -2892804.71345  23886563.107    23886570.459
  23226027.680    -9030774.12849  -6529411.26945  23226027.565    23226034.145
  23636412.730    -6715074.18349  -5219195.69545  23636411.674    23636419.489
  21202264.371   -16117807.25749 -12544182.82747  21202263.668    21202268.623
  20262303.107   -23765357.91849 -18509476.17748  20262302.400    20262308.222
  22733064.430   -13589509.90649 -10577646.78346  22733063.128    22733067.795
 04  7 20  2 54  0.0000000  0  9G31G27G29G26G13G10G28G 8G19
  22237373.319   -14111903.68449 -10973994.23746  22237372.617    22237379.800
  20861538.142   -17634407.72949 -13729590.96347  20861537.638    20861543.631
  23287305.790    -5905372.42649  -4386786.42245  23287305.525    23287311.793
  23867711.379    -3837001.13849  -2969997.73245  23867711.498    23867719.200
  23246423.766    -8923591.76649  -6445892.57845  23246423.776    23246430.391
  23646304.887    -6663089.96849  -5178688.53545  23646303.895    23646311.753
  21193284.548   -16164996.72249 -12580953.80547  21193283.835    21193288.784
  20259453.194   -23780334.76149 -18521146.44248  20259452.433    20259458.219
  22741229.450   -13546602.60149 -10544212.52747  22741228.176    22741232.796
 04  7 20  2 54 30.0000000  0  9G31G27G29G26G13G10G28G 8G19
  22217771.809   -14214909.18049 -11054258.18846  22217771.257    22217778.523
  20865642.675   -17612838.45349 -13712783.74747  20865642.097    20865648.073
  23270632.768    -5992988.93449  -4455058.98445  23270632.476    23270638.965
  23848904.448    -3935832.09049  -3047008.84445  23848904.289    23848912.394
  23266859.126    -8816202.79349  -6362212.91545  23266859.199    23266866.013
  23656275.730    -6610693.54549  -5137860.23045  23656274.732    23656282.741
  21184369.910   -16211843.51449 -12617457.77447  21184369.167    21184374.061
  20256662.581   -23794999.39049 -18532573.42148  20256661.845    20256667.603
  22749494.540   -13503169.12149 -10510368.27847  22749493.234    22749497.911
 04  7 20  2 55  0.0000000  0  9G31G27G29G26G13G10G28G 8G19
  22198223.621   -14317636.28949 -11134305.22646  22198222.940    22198230.145
  20869800.162   -17590990.56649 -13695759.42247  20869799.598    20869805.600
  23254010.535    -6080337.94649  -4523123.09345  23254010.344    23254016.931
  23830142.432    -4034427.10549  -3123836.06545  23830141.766    23830150.279
  23287333.501    -8708609.73449  -6278374.22545  23287333.494    23287340.333
  23666324.496    -6557887.57949  -5096712.77245  23666323.474    23666331.450
  21175520.480   -16258347.56149 -12653694.67047  21175519.773    21175524.613
  20253931.598   -23809350.75649 -18543756.29548  20253930.845    20253936.645
  22757859.384   -13459211.04449 -10476115.22447  22757858.212    22757862.844
 04  7 20  2 55 30.0000000  0  9G31G27G29G26G13G10G28G 8G19
  22178728.541   -14420082.72849 -11214133.53846  22178727.837    22178735.131
  20874010.708   -17568864.08449 -13678518.01747  20874010.123    20874016.105
  23237439.777    -6167417.64149  -4590977.34845  23237439.585    23237446.022
  23811425.825    -4132784.16249  -3200477.84945  23811425.501    23811433.368
  23307846.246    -8600815.15349  -6194378.53245  23307846.163    23307852.866
  23676450.583    -6504675.20549  -5055248.62545  23676449.633    23676457.407
  21166736.161   -16304509.26549 -12689664.80047  21166735.414    21166740.276
  20251260.161   -23823388.99349 -18554695.18248  20251259.425    20251265.236
  22766323.958   -13414730.07749 -10441454.73347  22766322.713    22766327.282
 04  7 20  2 56  0.0000000  0 10G31G27G29G26G13G 7G10G28G 8G19
  22159286.518   -14522249.91249 -11293744.26246  22159285.966    22159293.196
  20878273.389   -17546463.11849 -13661062.73047  20878272.842    20878278.864
  23220919.925    -6254230.27549  -4658623.50345  23220919.652    23220925.894
  23792754.591    -4230905.04049  -3276935.61045  23792753.969    23792761.569
  23328395.789    -8492826.37349  -6110231.47645  23328395.867    23328402.420
  24440113.671    -1550780.15349  -1195797.95844  24440112.981    24440124.554
  23686652.737    -6451064.07749  -5013473.77845  23686651.612    23686659.097
  21158016.075   -16350333.30649 -12725371.82347  21158015.341    21158020.220
  20248647.743   -23837117.30749 -18565392.57348  20248646.984    20248652.868
  22774886.658   -13369732.66749 -10406391.82647  22774885.395    22774890.006
 04  7 20  2 56 30.0000000  0 10G31G27G29G26G13G 7G10G28G 8G19
  22139899.906   -14624127.72549 -11373129.49746  22139899.306    22139906.299
  20882589.848   -17523779.81649 -13643387.43947  20882589.304    20882595.342
  23204452.851    -6340766.13649  -4726053.98646  23204452.452    23204458.563
  23774129.695    -4328780.27549  -3353201.98545  23774129.042    23774136.485
  23348983.239    -8384638.34149  -6025929.21645  23348983.455    23348989.856
  24419975.671    -1656605.16849  -1278258.83544  24419974.926    24419986.193
  23696931.387    -6397049.33649  -4971384.43845  23696930.286    23696937.826
  21149361.589   -16395812.67649 -12760810.27047  21149360.872    21149365.791
  20246095.762   -23850527.98449 -18575842.44948  20246095.010    20246100.933
  22783548.581   -13324213.07849 -10370922.02547  22783547.508    22783552.112
 04  7 20  2 57  0.0000000  0 10G31G27G29G26G13G 7G10G28G 8G19
  22120569.009   -14725713.27549 -11452286.97846  22120568.209    22120575.125
  20886960.179   -17500813.72649 -13625491.79147  20886959.629    20886965.650
  23188038.626    -6427022.97949  -4793267.05146  23188038.285    23188044.315
  23755551.752    -4426407.09649  -3429274.75845  23755551.394    23755558.970
  23369608.141    -8276253.61649  -5941473.63645  23369608.296    23369614.856
  24399841.844    -1762407.25149  -1360701.78544  24399841.072    24399852.842
  23707286.364    -6342633.74449  -4928982.69145  23707285.268    23707292.964
  21140772.658   -16440947.33549 -12795980.12047  21140771.958    21140776.916
  20243604.241   -23863620.81849 -18586044.65548  20243603.505    20243609.403
  22792309.825   -13278173.00749 -10335046.64647  22792308.693    22792313.335
 04  7 20  2 57 30.0000000  0 10G31G27G29G26G13G 7G10G28G 8G19
  22101293.918   -14827004.86049 -11531215.39246  22101293.023    22101299.862
  20891384.144   -17477565.68549 -13607376.43247  20891383.616    20891389.624
  23171677.717    -6512999.60349  -4860261.77946  23171677.461    23171683.432
  23737021.532    -4523784.32749  -3505153.08845  23737020.844    23737028.866
  23390269.789    -8167675.86549  -5856867.64545  23390269.963    23390276.616
  24379712.897    -1868185.61549  -1443126.33344  24379712.227    24379723.403
  23717716.951    -6287821.28749  -4886271.74445  23717715.866    23717723.728
  21132249.160   -16485738.57149 -12830882.36947  21132248.469    21132253.457
  20241173.314   -23876395.39249 -18595998.86548  20241172.618    20241178.509
  22801169.516   -13231615.25449 -10298767.89747  22801168.300    22801172.992
 04  7 20  2 58  0.0000000  0 10G31G27G29G26G13G 7G10G28G 8G19
  22082075.375   -14927999.03449 -11609912.07246  22082074.408    22082081.251
  20895861.972   -17454034.70849 -13589040.61347  20895861.426    20895867.424
  23155370.657    -6598693.14249  -4927035.91746  23155370.490    23155376.494
  23718539.024    -4620908.85449  -3580834.48545  23718538.448    23718546.836
  23410967.824    -8058906.96149  -5772112.69745  23410967.974    23410974.959
  24359589.022    -1973937.34749  -1525530.09544  24359588.477    24359599.754
  23728222.578    -6232614.49249  -4843253.48145  23728221.494    23728229.064
  21123791.057   -16530186.21549 -12865516.87747  21123790.354    21123795.385
  20238803.094   -23888851.17249 -18605704.66848  20238802.349    20238808.197
  22810127.326   -13184541.18849 -10262086.82847  22810126.198    22810130.929
 04  7 20  2 58 30.0000000  0 10G31G27G29G26G13G 7G10G28G 8G19
  22062913.739   -15028693.15549 -11688374.96446  22062912.883    22062919.692
  20900393.617   -17430220.57049 -13570484.14547  20900393.089    20900399.117
  23139117.981    -6684101.58149  -4993587.89946  23139117.732    23139123.805
  23700105.166    -4717778.51249  -3656317.29345  23700104.899    23700113.139
  23431701.683    -7949949.85349  -5687211.09745  23431701.820    23431709.095
  24339470.281    -2079660.81249  -1607911.81844  24339470.196    24339481.138
  23738802.668    -6177016.21749  -4799930.20845  23738801.570    23738809.238
  21115398.254   -16574290.55749 -12899883.87247  21115397.555    21115402.529
  20236493.596   -23900987.82749 -18615161.80048  20236492.828    20236498.667
  22819183.165   -13136952.92249 -10225005.07247  22819181.959    22819186.657
 04  7 20  2 59  0.0000000  0 10G31G27G29G26G13G 7G10G28G 8G19
  22043809.879   -15129084.01349 -11766601.53346  22043809.039    22043815.884
  20904979.326   -17406122.34149 -13551706.31047  20904978.844    20904984.869
  23122919.924    -6769222.27849  -5059915.65746  23122919.626    23122925.861
  23681720.251    -4814390.27049  -3731599.12645  23681720.156    23681728.312
  23452471.130    -7840806.18149  -5602164.12845  23452471.172    23452478.541
  24319357.010    -2185353.09649  -1690269.22644  24319357.279    24319368.071
  23749456.476    -6121029.27049  -4756304.04545  23749455.424    23749463.432
  21107070.806   -16618051.48049 -12933983.27347  21107070.100    21107075.109
  20234244.999   -23912804.33449 -18624369.46348  20234244.234    20234250.013
  22828336.591   -13088851.37749 -10187523.36747  22828335.323    22828340.112
 04  7 20  2 59 30.0000000  0 10G31G27G29G26G13G 7G10G28G 8G19
  22024764.146   -15229169.26749 -11844589.96646  22024763.344    22024770.251
  20909619.136   -17381740.30449 -13532707.32047  20909618.602    20909624.616
  23106776.760    -6854053.37249  -5126017.76346  23106776.652    23106782.947
  23663385.190    -4910742.30649  -3806678.56845  23663384.969    23663392.862
  23473275.714    -7731479.43949  -5516974.51545  23473275.470    23473282.634
  24299250.538    -2291012.72949  -1772601.23844  24299250.930    24299262.073
  23760183.784    -6064656.70049  -4712377.43345  23760182.688    23760190.830
  21098808.535   -16661469.78649 -12967815.70547  21098807.839    21098812.868
  20232057.439   -23924299.97449 -18633327.09948  20232056.689    20232062.462
  22837587.145   -13040239.22049 -10149643.76947  22837585.968    22837590.652
 04  7 20  3  0  0.0000000  0 10G31G27G29G26G13G 7G10G28G 8G19
  22005777.128   -15328945.73749 -11922337.78446  22005776.428    22005783.335
  20914313.040   -17357073.80249 -13513486.67347  20914312.463    20914318.479
  23090689.680    -6938592.37349  -5191892.24746  23090689.438    23090695.744
  23645099.731    -5006831.82749  -3881553.45445  23645099.738    23645107.330
  23494114.314    -7621971.73649  -5431643.90645  23494114.132    23494121.001
  24279150.755    -2396637.20549  -1854905.87244  24279150.787    24279162.461
  23770984.075    -6007901.14649  -4668152.37645  23770983.080    23770990.802
  21090611.518   -16704545.29649 -13001381.01347  21090610.834    21090615.831
  20229931.038   -23935474.02549 -18642034.14248  20229930.331    20229936.110
  22846934.652   -12991118.02049 -10111367.50846  22846933.437    22846938.089
 04  7 20  3  0 30.0000000  0 10G31G27G29G26G13G 7G10G28G 8G19
  21986849.645   -15428410.19249 -11999842.47146  21986848.971    21986855.711
  20919061.237   -17332121.88249 -13494043.61547  20919060.676    20919066.667
  23074658.715    -7022836.51349  -5257536.98946  23074658.486    23074664.619
  23626865.066    -5102655.98749  -3956221.56945  23626864.922    23626872.376
  23514986.846    -7512285.27449  -5346174.02645  23514986.864    23514993.602
  24259058.042    -2502223.92749  -1937181.00044  24259057.725    24259069.692
  23781856.685    -5950765.13249  -4623630.84145  23781855.734    23781863.356
  21082479.835   -16747277.96549 -13034679.18347  21082479.093    21082484.041
  20227866.026   -23946325.75749 -18650490.03148  20227865.360    20227871.095
  22856378.542   -12941489.24949 -10072695.75546  22856377.389    22856382.145
 04  7 20  3  1  0.0000000  0 10G31G27G29G26G13G 7G10G28G 8G19
  21967982.094   -15527560.05849 -12077102.02546  21967981.333    21967987.983
  20923863.786   -17306884.60549 -13474378.20647  20923863.221    20923869.206
  23058684.204    -7106784.02149  -5322950.58746  23058683.915    23058689.925
  23608681.309    -5198212.60349  -4030681.22445  23608680.960    23608688.510
  23535893.081    -7402422.72749  -5260566.88745  23535893.010    23535899.726
  24238973.558    -2607771.14049  -2019425.35744  24238973.187    24238984.114
  23792801.196    -5893252.01549  -4578815.44945  23792800.186    23792808.109
  21074413.159   -16789668.23749 -13067710.55347  21074412.448    21074417.438
  20225862.446   -23956854.81149 -18658694.48348  20225861.747    20225867.440
  22865918.938   -12891354.90049 -10033630.05246  22865917.704    22865922.449
 04  7 20  3  1 30.0000000  0 10G31G27G29G26G13G 7G10G28G 8G19
  21949175.027   -15626392.23549 -12154114.03446  21949174.163    21949180.773
  20928720.731   -17281360.98449 -13454489.67247  20928720.198    20928726.146
  23042766.636    -7190431.91349  -5388130.72746  23042766.315    23042772.260
  23590548.622    -5293498.63549  -4104930.06245  23590548.653    23590556.130
  23556832.123    -7292386.07149  -5174824.07545  23556832.294    23556839.203
  24218897.043    -2713276.01049  -2101636.74044  24218896.627    24218906.655
  23803817.059    -5835364.14249  -4533708.08745  23803816.061    23803823.897
  21066411.722   -16831715.77849 -13100474.85447  21066411.047    21066416.015
  20223920.549   -23967059.95449 -18666646.53848  20223919.782    20223925.496
  22875555.000   -12840716.49249  -9994171.54446  22875553.814    22875558.578
 04  7 20  3  2  0.0000000  0 10G31G27G29G26G13G 7G10G28G 8G19
  21930428.960   -15724902.59549 -12230875.29046  21930428.111    21930434.869
  20933632.426   -17255549.64549 -13434376.94047  20933631.908    20933637.903
  23026906.361    -7273777.03849  -5453074.94546  23026906.155    23026912.145
  23572468.686    -5388510.62849  -4178965.34545  23572468.529    23572475.789
  23577804.165    -7182176.94049  -5088946.90445  23577804.365    23577811.558
  24198828.607    -2818735.46549  -2183812.67544  24198827.989    24198837.902
  23814903.734    -5777103.41449  -4488310.14845  23814902.736    23814910.446
  21058475.702   -16873420.00849 -13132971.63847  21058475.031    21058479.915
  20222040.453   -23976939.62649 -18674344.98148  20222039.703    20222045.417
  22885286.775   -12789574.78149  -9954320.87546  22885285.696    22885290.492
 04  7 20  3  2 30.0000000  0 10G31G27G29G26G13G 7G10G28G 8G19
  21911744.483   -15823089.15549 -12307384.24346  21911743.686    21911750.598
  20938598.828   -17229450.92849 -13414040.28147  20938598.300    20938604.295
  23011104.184    -7356817.58249  -5517781.83546  23011104.015    23011110.076
  23554441.157    -5483246.83449  -4252785.75345  23554440.950    23554448.115
  23598808.601    -7071798.60649  -5002937.87145  23598808.854    23598815.965
  24178768.800    -2924148.08449  -2265952.14344  24178768.588    24178778.510
  23826060.470    -5718473.43449  -4442624.46646  23826059.503    23826067.512
  21050604.788   -16914781.94549 -13165201.69147  21050604.100    21050608.969
  20220222.332   -23986493.84449 -18681789.82148  20220221.582    20220227.306
  22895114.128   -12737932.46649  -9914080.11046  22895113.013    22895117.820
 04  7 20  3  3  0.0000000  0 10G31G27G29G26G13G 7G10G28G 8G19
  21893122.154   -15920948.68049 -12383638.35746  21893121.488    21893128.456
  20943620.105   -17203064.09849 -13393479.12847  20943619.594    20943625.533
  22995360.556    -7439551.06449  -5582249.45646  22995360.293    22995366.459
  23536466.766    -5577704.32549  -4326388.93745  23536466.463    23536473.352
  23619844.771    -6961253.13249  -4916798.61545  23619845.141    23619852.087
  24158718.213    -3029511.11749  -2348052.99445  24158718.278    24158728.409
  23837286.920    -5659476.91749  -4396653.18646  23837286.020    23837294.306
  21042799.066   -16955801.20949 -13197164.74047  21042798.354    21042803.277
  20218466.364   -23995721.23249 -18688979.98648  20218465.647    20218471.368
  22905036.381   -12685790.91249  -9873450.34646  22905035.154    22905040.107
 04  7 20  3  3 30.0000000  0 10G31G27G29G26G13G 7G10G28G 8G19
  21874562.916   -16018477.92349 -12459635.10646  21874562.266    21874569.271
  20948696.317   -17176388.28049 -13372692.77747  20948695.800    20948701.746
  22979675.795    -7521974.71649  -5646475.65346  22979675.502    22979681.695
  23518545.855    -5671880.21549  -4399772.68345  23518545.570    23518551.920
  23640912.517    -6850542.96949  -4830531.01845  23640912.617    23640919.485
  24138677.938    -3134822.06549  -2430113.30145  24138677.852    24138688.335
  23848583.157    -5600116.37849  -4350398.26546  23848582.180    23848590.155
  21035058.500   -16996477.76949 -13228860.75347  21035057.832    21035062.749
  20216772.832   -24004620.86649 -18695914.75948  20216772.120    20216777.850
  22915053.058   -12633151.83649  -9832432.89246  22915051.990    22915056.963
 04  7 20  3  4  0.0000000  0 10G31G27G29G26G13G 7G10G28G 8G19
  21856067.111   -16115674.19049 -12535372.39346  21856066.470    21856073.301
  20953827.670   -17149423.21649 -13351681.04947  20953827.087    20953833.040
  22964050.385    -7604086.38949  -5710458.74446  22964050.089    22964056.346
  23500678.634    -5765772.12249  -4472935.17145  23500678.419    23500684.614
  23662011.269    -6739670.35949  -4744136.83445  23662011.001    23662018.007
  24118647.697    -3240078.89149  -2512131.41145  24118647.609    24118658.471
  23859947.963    -5540394.80849  -4303862.02645  23859946.983    23859954.669
  21027383.129   -17036811.99549 -13260289.99547  21027382.446    21027387.372
  20215141.698   -24013192.57449 -18702594.01148  20215140.979    20215146.735
  22925164.379   -12580017.25349  -9791029.33846  22925163.240    22925168.067
 04  7 20  3  4 30.0000000  0 10G31G27G29G26G13G 7G10G28G 8G19
  21837635.388   -16212534.04749 -12610847.52446  21837634.641    21837641.481
  20959014.085   -17122167.87049 -13330443.12347  20959013.557    20959019.580
  22948485.001    -7685883.24849  -5774196.52746  22948484.655    22948490.874
  23482866.245    -5859376.90349  -4545873.91245  23482865.951    23482872.163
  23683139.994    -6628637.56149  -4657617.79945  23683139.873    23683146.750
  24098628.636    -3345278.76349  -2594105.20745  24098628.747    24098639.225
  23871380.847    -5480314.73349  -4257046.44945  23871379.878    23871387.630
  21019772.927   -17076803.67649 -13291452.33047  21019772.284    21019777.247
  20213573.240   -24021434.82549 -18709016.54648  20213572.485    20213578.266
  22935369.494   -12526388.44749  -9749240.66446  22935368.455    22935373.367
 04  7 20  3  5  0.0000000  0 10G31G27G29G26G13G 7G10G28G 8G19
  21819268.106   -16309054.62649 -12686058.29846  21819267.306    21819274.125
  20964255.914   -17094621.89149 -13308978.73547  20964255.358    20964261.393
  22932980.032    -7767362.82349  -5837687.08346  22932979.559    22932985.810
  23465108.830    -5952691.96949  -4618586.93545  23465108.394    23465115.029
  23704298.955    -6517446.85949  -4570975.77145  23704298.756    23704305.698
  24078620.886    -3450419.44949  -2676032.84845  24078620.818    24078631.121
  23882881.563    -5419879.02549  -4209953.75145  23882880.536    23882888.191
  21012227.927   -17116453.06649 -13322347.93347  21012227.258    21012232.182
  20212067.560   -24029347.01849 -18715181.89248  20212066.857    20212072.657
  22945668.321   -12472267.57049  -9707068.56846  22945667.325    22945672.251
 04  7 20  3  5 30.0000000  0 10G31G27G29G26G13G 7G10G28G 8G19
  21800965.787   -16405233.05649 -12761002.46646  21800965.046    21800971.887
  20969553.013   -17066784.89649 -13287287.57647  20969552.511    20969558.596
  22917535.694    -7848522.90049  -5900928.68346  22917535.231    22917541.589
  23447406.885    -6045714.97049  -4691072.35345  23447406.618    23447413.578
  23725487.474    -6406100.78349  -4484212.64745  23725487.477    23725494.297
  24058625.014    -3555498.62449  -2757912.53445  24058624.631    24058634.879
  23894449.175    -5359090.63649  -4162586.20945  23894448.128    23894455.877
  21004747.999   -17155760.39449 -13352976.99747  21004747.326    21004752.195
  20210624.786   -24036928.73049 -18721089.72448  20210624.096    20210629.914
  22956060.757   -12417656.30749  -9664514.35946  22956059.561    22956064.469
 04  7 20  3  6  0.0000000  0 10G31G27G29G26G13G 7G10G28G 8G19
  21782729.251   -16501066.01749 -12835677.44846  21782728.541    21782735.340
  20974905.879   -17038655.85949 -13265368.85547  20974905.325    20974911.397
  22902152.665    -7929360.61949  -5963919.10846  22902152.280    22902158.705
  23429761.090    -6138442.65249  -4763327.65545  23429761.113    23429768.048
  23746705.250    -6294601.24549  -4397329.96545  23746705.268    23746712.063
  24038641.477    -3660513.63649  -2839742.25245  24038640.995    24038650.632
  23906083.100    -5297952.06449  -4114945.86545  23906082.214    23906090.423
  20997333.202   -17194725.37049 -13383339.29947  20997332.489    20997337.393
  20209245.230   -24044178.43149 -18726738.84548  20209244.521    20209250.319
  22966545.968   -12362556.31149  -9621579.32946  22966544.722    22966549.697
 04  7 20  3  6 30.0000000  0 10G31G27G29G26G13G 7G10G28G 8G19
  21764559.000   -16596551.03049 -12910081.30146  21764558.320    21764565.047
  20980314.254   -17010234.70949 -13243222.51347  20980313.711    20980319.733
  22886831.485    -8009873.99149  -6026656.79446  22886831.086    22886837.580
  23412172.109    -6230872.96149  -4835351.20545  23412172.171    23412179.041
  23767951.789    -6182950.93649  -4310329.76745  23767951.600    23767958.437
  24018670.531    -3765462.49949  -2921520.43545  24018669.921    24018679.180
  23917783.551    -5236466.53349  -4067035.10445  23917782.664    23917790.569
  20989983.343   -17233348.67949 -13413435.37347  20989982.697    20989987.615
  20207928.942   -24051095.61849 -18732128.86348  20207928.222    20207934.015
  22977123.696   -12306969.85349  -9578265.23346  22977122.509    22977127.499
 04  7 20  3  7  0.0000000  0 10G31G27G29G26G13G 7G10G28G 8G19
  21746455.685   -16691684.80749 -12984211.45946  21746454.942    21746461.579
  20985778.365   -16981520.81749 -13220848.05547  20985777.818    20985783.794
  22871572.675    -8090060.19449  -6089139.53046  22871572.280    22871578.601
  23394640.511    -6323002.78249  -4907140.62245  23394640.337    23394647.050
  23789226.435    -6071152.32549  -4223214.02345  23789226.052    23789233.097
  23998712.031    -3870342.45549  -3003244.96245  23998711.520    23998721.344
  23929549.463    -5174636.63749  -4018856.03145  23929548.409    23929556.343
  20982698.678   -17271630.25849 -13443265.16547  20982697.981    20982702.858
  20206676.009   -24057679.85449 -18737259.43548  20206675.300    20206681.095
  22987793.738   -12250898.54149  -9534573.31846  22987792.622    22987797.476
 04  7 20  3  7 30.0000000  0 10G31G27G29G26G13G 7G10G28G 8G19
  21728419.673   -16786464.48449 -13058065.68947  21728418.919    21728425.561
  20991298.440   -16952513.48949 -13198244.95547  20991297.777    20991303.713
  22856376.600    -8169916.79449  -6151365.43846  22856376.210    22856382.399
  23377166.473    -6414829.65949  -4978693.95145  23377166.274    23377173.115
  23810528.604    -5959207.59949  -4135984.39745  23810528.225    23810535.577
  23978766.843    -3975151.30749  -3084914.08945  23978766.347    23978776.754
  23941380.305    -5112465.43849  -3970410.97845  23941379.338    23941387.111
  20975478.940   -17309570.20649 -13472828.74547  20975478.229    20975483.117
  20205486.702   -24063929.79649 -18742129.52248  20205485.973    20205491.758
  22998555.708   -12194344.24949  -9490505.06046  22998554.532    22998559.347
 04  7 20  3  8  0.0000000  0 10G31G27G29G26G13G 7G10G28G 8G19
  21710451.652   -16880886.55149 -13131641.26347  21710450.988    21710457.669
  20996874.387   -16923211.50349 -13175412.24047  20996873.757    20996879.676
  22841243.777    -8249440.67049  -6213332.07646  22841243.297    22841249.402
  23359750.633    -6506350.17449  -5050008.58545  23359750.471    23359757.333
  23831858.050    -5847118.51649  -4048642.29845  23831858.098    23831865.343
  23958835.984    -4079885.95349  -3166525.32445  23958835.722    23958846.492
  23953275.867    -5049955.04649  -3921701.64145  23953274.803    23953282.419
  20968324.309   -17347167.93249 -13502125.67247  20968323.612    20968328.459
  20204361.273   -24069844.04749 -18746738.03548  20204360.562    20204366.343
  23009409.184   -12137308.05949  -9446061.30946  23009408.178    23009412.971
 04  7 20  3  8 30.0000000  0 10G31G27G29G26G13G 7G10G28G 8G19
  21692552.127   -16974948.77949 -13204936.43647  21692551.479    21692558.206
  21002506.274   -16893615.73149 -13152350.60647  21002505.638    21002511.593
  22826174.148    -8328630.84849  -6275038.68046  22826173.689    22826180.005
  23342393.508    -6597562.78149  -5121083.31145  23342393.218    23342400.365
  23853215.375    -5734888.60449  -3961190.50145  23853215.013    23853221.806
  23938920.558    -4184545.39949  -3248077.97745  23938919.930    23938930.599
  23965234.757    -4987109.63049  -3872731.26445  23965233.764    23965241.712
  20961234.524   -17384424.96649 -13531157.10547  20961233.830    20961238.622
  20203299.600   -24075422.93949 -18751085.22548  20203298.897    20203304.705
  23020353.979   -12079793.33149  -9401244.66646  23020352.841    23020357.621
 04  7 20  3  9  0.0000000  0 10G31G27G29G26G13G 7G10G28G 8G19
  21674721.690   -17068648.18749 -13277948.91447  21674721.023    21674727.760
  21008194.255   -16863724.89049 -13129059.05347  21008193.630    21008199.606
  22811168.611    -8407484.11749  -6336482.76746  22811168.247    22811174.575
  23325095.321    -6688464.30749  -5191915.61445  23325095.163    23325102.543
  23874598.647    -5622519.52949  -3873630.29245  23874598.350    23874604.843
  23919019.989    -4289126.49049  -3329569.59645  23919019.107    23919029.594
  23977257.069    -4923931.51649  -3823501.63045  23977256.140    23977264.195
  20954209.619   -17421340.97449 -13559922.80847  20954208.903    20954213.687
  20202302.084   -24080665.18149 -18755170.09248  20202301.368    20202307.163
  23031389.379   -12021801.51949  -9356056.27446  23031388.291    23031393.083
 04  7 20  3  9 30.0000000  0 10G31G27G29G26G13G 7G10G28G 8G19
  21656960.959   -17161981.57049 -13350676.17546  21656960.189    21656966.913
  21013938.433   -16833538.54549 -13105537.23647  21013937.863    21013943.822
  22796227.883    -8485997.97449  -6397662.39346  22796227.490    22796233.608
  23307857.263    -6779051.94649  -5262503.35545  23307856.976    23307864.222
  23896007.873    -5510013.78449  -3785963.52845  23896007.658    23896014.007
  23899133.819    -4393626.94349  -3410998.35645  23899133.305    23899143.765
  23989342.313    -4860423.43449  -3774014.88045  23989341.264    23989349.219
  20947249.589   -17457916.13649 -13588422.92547  20947248.911    20947253.650
  20201368.688   -24085570.14149 -18758992.14448  20201367.954    20201373.739
  23042515.425   -11963334.28849  -9310497.43946  23042514.319    23042519.050
 04  7 20  3 10  0.0000000  0 10G31G27G29G26G13G 7G10G28G 8G19
  21639270.365   -17254946.06449 -13423115.98146  21639269.596    21639276.179
  21019739.059   -16803056.10449 -13081784.69847  21019738.518    21019744.476
  22781352.238    -8564170.05649  -6458575.67146  22781351.838    22781357.815
  23290679.202    -6869323.11249  -5332844.44045  23290679.008    23290686.048
  23917442.142    -5397373.92549  -3698192.26045  23917442.170    23917448.906
  23879263.736    -4498044.26349  -3492362.32045  23879263.120    23879273.503
  24001489.914    -4796588.28049  -3724273.28845  24001488.844    24001496.628
  20940354.533   -17494150.40849 -13616657.41147  20940353.785    20940358.523
  20200499.675   -24090136.74249 -18762550.52948  20200498.936    20200504.731
  23053731.605   -11904393.55249  -9264569.63346  23053730.414    23053735.141
 04  7 20  3 10 30.0000000  0 10G31G27G29G26G13G 7G10G28G 8G19
  21621650.555   -17347538.25649 -13495265.67747  21621649.794    21621656.307
  21025596.220   -16772276.59649 -13057800.67547  21025595.653    21025601.642
  22766542.252    -8641997.37549  -6519220.31746  22766541.811    22766547.697
  23273562.040    -6959274.60849  -5402936.44245  23273561.709    23273568.620
  23938901.412    -5284601.79449  -3610317.90345  23938901.594    23938908.766
  23859409.640    -4602375.52949  -3573659.26145  23859409.366    23859419.617
  24013699.445    -4732428.42549  -3674278.65745  24013698.233    24013706.033
  20933524.202   -17530043.54549 -13644626.08847  20933523.503    20933528.298
  20199695.311   -24094363.82049 -18765844.35548  20199694.582    20199700.394
  23065037.301   -11844980.79849  -9218274.00546  23065036.237    23065040.970
 04  7 20  3 11  0.0000000  0 10G31G27G29G26G13G 7G10G28G 8G19
  21604102.137   -17439755.29749 -13567123.04347  21604101.422    21604107.840
  21031509.978   -16741199.36249 -13033584.65847  21031509.459    21031515.490
  22751798.374    -8719477.31949  -6579594.27046  22751798.047    22751803.818
  23256506.119    -7048903.73349  -5472777.22745  23256505.886    23256512.413
  23960386.049    -5171699.57749  -3522342.18645  23960386.139    23960393.645
  23839572.224    -4706618.29449  -3654887.22245  23839572.258    23839582.495
  24025969.824    -4667946.46649  -3624033.05745  24025968.727    24025976.639
  20926758.813   -17565595.72949 -13672329.07747  20926758.097    20926762.931
  20198955.645   -24098250.72249 -18768873.11048  20198954.914    20198960.703
  23076432.752   -11785097.97849  -9171612.10146  23076431.658    23076436.305
 04  7 20  3 11 30.0000000  0 10G31G27G29G26G13G 7G10G28G 8G19
  21586625.654   -17531594.94749 -13638686.33147  21586624.941    21586631.244
  21037480.326   -16709825.19449 -13009137.26547  21037479.756    21037485.791
  22737120.891    -8796608.87449  -6639696.74846  22737120.429    22737126.044
  23239511.782    -7138209.00049  -5542365.70745  23239511.531    23239517.728
  23981895.250    -5058670.79949  -3434267.88545  23981895.128    23981902.424
  23819752.748    -4810771.56049  -3736045.46045  23819752.687    23819762.383
  24038300.778    -4603146.95849  -3573539.97045  24038299.672    24038307.357
  20920057.955   -17600808.54549 -13699767.62747  20920057.286    20920062.078
  20198280.760   -24101797.48149 -18771636.81548  20198279.992    20198285.841
  23087917.080   -11724748.35749  -9124586.45146  23087915.898    23087920.631
 04  7 20  3 12  0.0000000  0 10G31G27G29G26G13G 7G10G28G 8G19
  21569221.517   -17623054.82349 -13709953.70847  21569220.739    21569227.035
  21043507.198   -16678153.46149 -12984457.99947  21043506.703    21043512.759
  22722509.914    -8873389.45649  -6699525.73246  22722509.464    22722515.172
  23222579.836    -7227187.58649  -5611699.62245  23222579.283    23222585.385
  24003427.806    -4945517.77149  -3346096.78945  24003427.592    24003434.809
  23799951.263    -4914832.72849  -3817131.93445  23799950.986    23799960.128
  24050691.322    -4538032.82149  -3522801.70845  24050690.304    24050698.511
  20913421.794   -17635682.05549 -13726941.78047  20913421.080    20913425.806
  20197670.672   -24105003.29649 -18774134.85348  20197669.944    20197675.793
  23099489.603   -11663933.94349  -9077198.63546  23099488.417    23099493.311
 04  7 20  3 12 30.0000000  0 10G31G27G29G26G13G 7G10G28G 8G19
  21551890.255   -17714130.56149 -13780921.76247  21551889.527    21551895.999
  21049591.131   -16646182.48949 -12959545.56547  21049590.612    21049596.601
  22707966.368    -8949815.33549  -6759078.34146  22707966.023    22707971.911
  23205710.510    -7315835.73149  -5680776.06045  23205710.121    23205716.108
  24024983.323    -4832241.59549  -3257829.72345  24024983.530    24024990.228
  23780167.451    -5018798.28149  -3898143.87745  23780167.073    23780175.912
  24063141.740    -4472605.66349  -3471819.54745  24063140.694    24063149.053
  20906850.325   -17670215.26649 -13753850.76947  20906849.629    20906854.388
  20197125.968   -24107866.03149 -18776365.55948  20197125.211    20197131.050
  23111150.560   -11602655.52449  -9029449.23746  23111149.364    23111154.224
 04  7 20  3 13  0.0000000  0 10G31G27G29G26G13G 7G10G28G 8G19
  21534632.702   -17804819.57249 -13851588.47047  21534631.905    21534638.530
  21055732.025   -16613912.09149 -12934399.80747  21055731.470    21055737.468
  22693490.898    -9025884.46149  -6818352.96746  22693490.504    22693496.625
  23188904.786    -7404150.89849  -5749593.02645  23188904.375    23188910.544
  24046561.454    -4718845.25449  -3169469.00345  24046561.933    24046568.835
  23760401.866    -5122666.02249  -3979079.59245  23760401.507    23760410.646
  24075651.233    -4406868.55449  -3420595.88845  24075650.234    24075658.467
  20900343.546   -17704408.58649 -13780494.92047  20900342.834    20900347.619
  20196646.420   -24110385.61249 -18778328.86648  20196645.743    20196651.583
  23122899.351   -11540915.23649  -8981339.95046  23122898.181    23122903.027
 04  7 20  3 13 30.0000000  0 10G31G27G29G26G13G 7G10G28G 8G19
  21517449.141   -17895118.70149 -13921951.39947  21517448.411    21517455.132
  21061930.019   -16581341.54349 -12909020.16647  21061929.490    21061935.467
  22679083.622    -9101594.10249  -6877347.47346  22679083.318    22679089.642
  23172162.991    -7492130.29049  -5818148.35745  23172162.676    23172168.885
  24068162.348    -4605330.59949  -3081016.04445  24068162.938    24068169.952
  23740654.856    -5226433.45149  -4059937.15245  23740654.618    23740664.521
  24088219.240    -4340824.17549  -3369132.79145  24088218.164    24088226.375
  20893901.421   -17738262.17249 -13806874.33647  20893900.714    20893905.565
  20196232.554   -24112560.51249 -18780023.59148  20196231.860    20196237.701
  23134735.762   -11478714.98449  -8932872.23446  23134734.547    23134739.367
 04  7 20  3 14  0.0000000  0 10G31G27G29G26G13G 7G10G28G 8G19
  21500340.111   -17985025.80249 -13992008.82647  21500339.475    21500346.207
  21068185.121   -16548470.85749 -12883406.64547  21068184.569    21068190.549
  22664745.259    -9176942.47549  -6936060.45246  22664744.844    22664751.243
  23155485.482    -7579771.70749  -5886440.30845  23155485.071    23155491.320
  24089785.662    -4491700.53849  -2992473.17245  24089786.078    24089793.367
  23720928.310    -5330098.66849  -4140715.10345  23720927.743    23720937.233
  24100844.903    -4274476.20849  -3317433.13645  24100843.863    24100852.168
  20887523.808   -17771776.79349 -13832989.61947  20887523.099    20887527.951
  20195884.155   -24114391.23549 -18781450.12848  20195883.461    20195889.321
  23146659.095   -11416057.47549  -8884048.20846  23146657.862    23146662.798
 04  7 20  3 14 30.0000000  0 10G31G27G29G26G13G 7G10G28G 8G19
  21483306.370   -18074538.19549 -14061758.67147  21483305.757    21483312.408
  21074497.327   -16515299.84049 -12857559.10547  21074496.789    21074502.775
  22650475.914    -9251927.56249  -6994490.35846  22650475.592    22650481.946
  23138872.232    -7667072.92649  -5954467.16845  23138872.042    23138878.379
  24111430.326    -4377958.09749  -2903842.74945  24111430.664    24111438.057
  23701222.219    -5433659.49349  -4221411.75345  23701221.026    23701230.099
  24113527.729    -4207827.96349  -3265499.47745  24113526.723    24113534.811
  20881210.588   -17804952.93749 -13858841.14947  20881209.859    20881214.707
  20195601.465   -24115876.51449 -18782607.48348  20195600.777    20195606.693
  23158668.858   -11352944.86649  -8834869.57546  23158667.728    23158672.793
 04  7 20  3 15  0.0000000  0 10G31G27G29G26G13G 7G10G28G 8G19
  21466348.555   -18163652.58149 -14131198.38247  21466347.936    21466354.405
  21080866.861   -16481827.64449 -12831476.87347  21080866.320    21080872.330
  22636276.408    -9326546.36949  -7052634.85646  22636276.182    22636282.351
  23122324.459    -7754030.79349  -6022226.49945  23122324.398    23122330.471
  24133096.447    -4264105.00149  -2815126.08945  24133096.345    24133103.652
  23681535.656    -5537113.19949  -4302024.87145  23681534.295    23681543.403
  24126267.131    -4140882.06349  -3213333.90945  24126265.945    24126274.397
  20874961.752   -17837790.72449 -13884429.02647  20874961.055    20874965.931
  20195384.718   -24117015.26649 -18783494.82048  20195384.037    20195389.971
  23170764.996   -11289379.03249  -8785337.74746  23170763.924    23170768.992
 04  7 20  3 15 30.0000000  0 10G31G27G29G26G13G 7G10G28G 8G19
  21449467.082   -18252366.02849 -14200325.67347  21449466.384    21449472.752
  21087293.856   -16448053.63049 -12805159.45647  21087293.281    21087299.302
  22622147.297    -9400796.32549  -7110491.93246  22622146.934    22622152.995
  23105842.832    -7840642.50349  -6089716.08845  23105842.708    23105848.678
  24154782.946    -4150143.55149  -2726325.01645  24154782.522    24154789.885
  23661869.099    -5640457.23849  -4382552.55845  23661868.151    23661877.436
  24139062.380    -4073640.91649  -3160938.25545  24139061.306    24139069.809
  20868777.342   -17870289.79449 -13909752.97347  20868776.627    20868781.495
  20195234.028   -24117806.96649 -18784111.72648  20195233.371    20195239.292
  23182947.206   -11225361.61349  -8735454.05746  23182946.021    23182951.061
 04  7 20  3 16  0.0000000  0 10G31G27G29G26G13G 7G10G28G 8G19
  21432662.288   -18340675.61549 -14269138.27647  21432661.577    21432667.928
  21093778.311   -16413977.30449 -12778606.47447  21093777.791    21093783.849
  22608088.541    -9474675.19249  -7168059.85546  22608088.276    22608094.237
  23089427.662    -7926905.32749  -6156933.84545  23089427.552    23089433.466
  24176489.340    -4036075.80049  -2637441.10045  24176488.466    24176496.117
  23642224.465    -5743689.16349  -4462992.92845  23642223.738    23642232.861
  24151913.564    -4006107.85449  -3108315.11645  24151912.450    24151921.046
  20862657.331   -17902450.69749 -13934813.40947  20862656.643    20862661.516
  20195149.649   -24118250.47749 -18784457.31348  20195148.959    20195154.877
  23195214.886   -11160894.76549  -8685220.17346  23195213.698    23195218.665
 04  7 20  3 16 30.0000000  0 10G31G27G29G26G13G 7G10G28G 8G19
  21415934.888   -18428578.73249 -14337634.15747  21415934.088    21415940.441
  21100320.507   -16379598.36349 -12751817.69147  21100319.932    21100326.000
  22594101.059    -9548180.56249  -7225336.74646  22594100.809    22594106.521
  23073079.584    -8012816.78949  -6223877.81145  23073079.289    23073085.237
  24198215.270    -3921904.42749  -2548476.47545  24198214.605    24198221.941
  23622602.380    -5846806.88649  -4543344.27845  23622601.363    23622610.230
  24164819.734    -3938286.10149  -3055467.06045  24164818.633    24164827.080
  20856601.608   -17934273.83249 -13959610.64547  20856600.906    20856605.741
  20195131.659   -24118345.30749 -18784531.20848  20195130.942    20195136.785
  23207567.486   -11095980.80749  -8634637.90946  23207566.456    23207571.403
 04  7 20  3 17  0.0000000  0 10G31G27G29G26G13G 7G10G28G 8G19
  21399285.044   -18516072.95549 -14405811.42447  21399284.384    21399290.772
  21106920.192   -16344916.66149 -12724792.98247  21106919.633    21106925.722
  22580185.041    -9621310.47049  -7282321.08346  22580184.704    22580190.277
  23056798.544    -8098374.50149  -6290546.13745  23056798.391    23056804.424
  24219960.326    -3807632.35549  -2459433.33845  24219960.020    24219967.166
  23603001.741    -5949808.28049  -4623604.98145  23603000.673    23603009.543
  24177780.514    -3870178.60749  -3002396.34345  24177779.372    24177787.500
  20850610.012   -17965760.01849 -13984145.33447  20850609.304    20850614.036
  20195180.049   -24118091.11149 -18784333.12748  20195179.328    20195185.167
  23220004.961   -11030622.57149  -8583709.42646  23220003.786    23220008.692
 04  7 20  3 17 30.0000000  0 10G31G27G29G26G13G 7G10G28G 8G19
  21382713.873   -18603154.95849 -14473667.47947  21382713.176    21382719.543
  21113577.729   -16309931.39649 -12697531.74347  21113577.145    21113583.208
  22566340.915    -9694062.03149  -7339010.59846  22566340.578    22566346.128
  23040585.306    -8183575.62049  -6356936.59245  23040585.046    23040591.099
  24241724.374    -3693261.68749  -2370313.39145  24241724.094    24241731.521
  23583424.102    -6052690.60249  -4703772.92845  23583422.895    23583431.430
  24190794.759    -3801788.35049  -2949105.28745  24190793.732    24190801.873
  20844682.548   -17996908.99749 -14008417.24647  20844681.827    20844686.504
  20195295.186   -24117486.18049 -18783861.74948  20195294.489    20195300.254
  23232526.563   -10964821.48049  -8532435.87046  23232525.368    23232530.251
 04  7 20  3 18  0.0000000  0 10G31G27G29G26G13G 7G10G28G 8G19
  21366221.823   -18689821.27049 -14541199.63447  21366221.043    21366227.474
  21120293.131   -16274641.42449 -12670033.06147  21120292.596    21120298.710
  22552569.299    -9766432.33249  -7395403.02046  22552568.942    22552574.496
  23024440.241    -8268416.55249  -6423046.40545  23024440.192    23024446.307
  24263506.872    -3578793.70649  -2281117.59445  24263506.843    24263514.306
  23563869.316    -6155450.67749  -4783845.62445  23563868.065    23563876.660
  24203862.342    -3733117.11749  -2895595.30345  24203861.296    24203869.525
  20838819.362   -18027720.18649 -14032425.95547  20838818.656    20838823.276
  20195477.321   -24116529.48249 -18783116.27048  20195476.592    20195482.331
  23245131.912   -10898578.90149  -8480818.30446  23245130.821    23245135.874
 04  7 20  3 18 30.0000000  0 10G31G27G29G26G13G 7G10G28G 8G19
  21349809.150   -18776069.32549 -14608405.86947  21349808.485    21349815.011
  21127066.670   -16239046.44049 -12642296.71347  21127066.097    21127072.200
  22538870.652    -9838418.99449  -7451496.51846  22538870.265    22538875.856
  23008364.531    -8352895.06749  -6488873.76345  23008364.391    23008370.457
  24285307.551    -3464230.80349  -2191847.81245  24285307.561    24285315.238
  23544337.684    -6258086.38549  -4863821.37445  23544336.725    23544346.031
  24216982.581    -3664168.46049  -2841869.12545  24216981.524    24216990.243
  20833020.285   -18058194.38849 -14056172.06847  20833019.591    20833024.171
  20195726.350   -24115220.85949 -18782096.55948  20195725.630    20195731.322
  23257820.957   -10831897.40249  -8428858.72046  23257819.846    23257824.898
 04  7 20  3 19  0.0000000  0 10G31G27G29G26G13G 7G10G28G 8G19
  21333476.837   -18861896.52249 -14675284.16647  21333476.122    21333482.656
  21133898.166   -16203146.21849 -12614322.51447  21133897.677    21133903.740
  22525245.208    -9910020.12049  -7507289.57746  22525244.868    22525250.696
  22992358.071    -8437008.61649  -6554416.76145  22992357.962    22992363.983
  24307125.614    -3349576.10849  -2102506.50045  24307125.507    24307133.442
  23524830.998    -6360595.54349  -4943698.53645  23524829.929    23524839.283
  24230154.939    -3594945.58849  -2787929.30645  24230154.063    24230162.972
  20827285.205   -18088332.07949 -14079655.96647  20827284.531    20827289.184
  20196042.621   -24113559.22449 -18780801.77848  20196041.831    20196047.514
  23270593.285   -10764779.33349  -8376558.92446  23270592.095    23270597.063
 04  7 20  3 19 30.0000000  0 10G31G27G29G26G13G 7G10G28G 8G19
  21317224.910   -18947300.75349 -14741832.86947  21317224.283    21317230.697
  21140787.719   -16166941.08449 -12586110.72447  21140787.238    21140793.274
  22511693.615    -9981233.74149  -7562780.68946  22511693.289    22511699.363
  22976421.668    -8520755.24449  -6619673.79745  22976421.514    22976427.291
  24328960.718    -3234832.54949  -2013095.95245  24328960.292    24328968.106
  23505348.479    -6462976.39749  -5023475.71945  23505347.517    23505356.680
  24243379.418    -3525452.34749  -2733778.78845  24243378.378    24243387.197
  20821614.026   -18118134.25149 -14102878.43247  20821613.337    20821618.027
  20196425.979   -24111544.32649 -18779231.72448  20196425.226    20196430.895
  23283448.001   -10697227.49749  -8323921.14546  23283446.805    23283451.797
 04  7 20  3 20  0.0000000  0 10G31G27G29G26G13G 7G10G28G 8G19
  21301054.091   -19032279.27849 -14808049.83547  21301053.408    21301059.718
  21147735.475   -16130430.51649 -12557660.93547  21147734.988    21147741.016
  22498216.146   -10052057.60149  -7617968.10446  22498215.820    22498222.125
  22960555.486    -8604132.22149  -6684642.83445  22960555.349    22960561.075
  24350812.333    -3120002.42549  -1923618.00845  24350812.063    24350819.196
  23485890.666    -6565226.45249  -5103150.98045  23485889.767    23485899.031
  24256654.641    -3455691.60349  -2679419.83445  24256653.547    24256662.339
  20816006.640   -18147601.09749 -14125839.60447  20816005.939    20816010.631
  20196876.749   -24109175.63549 -18777385.99048  20196876.004    20196881.656
  23296384.761   -10629243.93449  -8270946.96046  23296383.549    23296388.669
 04  7 20  3 20 30.0000000  0 10G31G27G29G26G13G 7G10G28G 8G19
  21284964.773   -19116828.74449 -14873932.48247  21284964.086    21284970.390
  21154741.519   -16093613.55849 -12528972.40247  21154741.018    21154747.058
  22484813.468   -10122488.76449  -7672849.51546  22484813.168    22484819.603
  22944760.223    -8687136.49649  -6749321.49145  22944760.133    22944765.868
  24372680.220    -3005087.50049  -1834073.99845  24372679.984    24372686.615
  23466458.275    -6667342.98049  -5182722.17845  23466457.560    23466467.080
  24269980.432    -3385665.83549  -2624854.40645  24269979.432    24269987.651
  20810463.117   -18176732.44649 -14148539.33847  20810462.427    20810467.101
  20197394.997   -24106451.54349 -18775263.31548  20197394.265    20197400.044
  23309403.424   -10560830.43349  -8217637.77146  23309402.216    23309407.472
 04  7 20  3 21  0.0000000  0 10G31G27G29G26G13G 7G10G28G 8G19
  21268957.481   -19200946.83749 -14939479.00347  21268956.858    21268963.187
  21161805.812   -16056490.28349 -12500045.18047  21161805.327    21161811.398
  22471486.120   -10192525.44149  -7727423.52846  22471485.754    22471492.102
  22929036.397    -8769765.86949  -6813708.00445  22929036.248    22929042.169
  24394563.808    -2890090.70449  -1744466.14245  24394563.215    24394569.979
  23447051.933    -6769323.94049  -5262187.75645  23447051.175    23447060.558
  24283355.691    -3315378.34849  -2570085.00045  24283354.663    24283363.018
  20804983.225   -18205529.38149 -14170978.49547  20804982.540    20804987.185
  20197980.977   -24103372.34349 -18772863.93748  20197980.219    20197985.972
  23322503.423   -10491989.95749  -8163995.86546  23322502.208    23322507.407
 04  7 20  3 21 30.0000000  0 10G31G27G29G26G13G 7G10G28G 8G19
  21253032.992   -19284630.69549 -15004687.16647  21253032.352    21253038.659
  21168928.669   -16019059.94749 -12470878.69347  21168928.106    21168934.137
  22458234.271   -10262165.06649  -7781688.14546  22458233.858    22458240.124
  22913384.369    -8852017.33049  -6877800.03645  22913384.304    22913390.520
  24416462.289    -2775014.27649  -1654796.21445  24416461.297    24416468.441
  23427671.957    -6871166.68049  -5341545.64845  23427671.131    23427679.959
  24296780.137    -3244831.81949  -2515113.72145  24296779.200    24296787.400
  20799567.017   -18233991.71849 -14193156.92347  20799566.320    20799570.983
  20198634.772   -24099936.56849 -18770186.70848  20198634.037    20198639.830
  23335684.285   -10422723.99249  -8110022.42046  23335683.093    23335688.276
 04  7 20  3 22  0.0000000  0 11G31G27G29G26G13G 7G10G28G 8G19G11
  21237191.907   -19367877.02649 -15069554.39547  21237191.168    21237197.359
  21176109.996   -15981321.75649 -12441472.31547  21176109.434    21176115.482
  22445058.373   -10331404.60049  -7835640.99146  22445058.040    22445064.298
  22897804.801    -8933887.97849  -6941595.31645  22897804.760    22897811.150
  24438374.823    -2659859.74449  -1565065.42245  24438374.167    24438381.988
  23408318.709    -6972868.39949  -5420793.61045  23408317.749    23408326.621
  24310253.249    -3174029.09149  -2459942.85245  24310252.332    24310260.727
  20794214.436   -18262119.38749 -14215074.57447  20794213.755    20794218.506
  20199356.644   -24096143.30649 -18767230.91648  20199355.877    20199361.619
  23348945.766   -10353034.40849  -8055718.88046  23348944.622    23348949.642
                  -1267795.76549   -977604.77944                  24560309.351
 04  7 20  3 22 30.0000000  0 11G31G27G29G26G13G 7G10G28G 8G19G11
  21221434.589   -19450682.71449 -15134078.26347  21221433.787    21221439.946
  21183350.063   -15943274.85049 -12411825.37647  21183349.532    21183355.586
  22431959.156   -10400241.65849  -7889280.21946  22431958.778    22431964.975
  22882298.111    -9015374.76749  -7005091.48845  22882298.125    22882304.859
  24460302.145    -2544629.43849  -1475275.56645  24460301.726    24460309.761
  23388992.851    -7074426.29449  -5499929.49545  23388991.738    23389000.838
  24323774.578    -3102972.71049  -2404574.32545  24323773.621    24323782.503
  20788925.617   -18289912.21149 -14236731.31147  20788924.957    20788929.760
  20200146.789   -24091991.27449 -18763995.56748  20200146.030    20200151.757
  23362287.525   -10282923.13749  -8001086.76946  23362286.395    23362291.282
  24548884.699    -1327804.47249  -1024364.72644  24548883.881    24548891.163
 04  7 20  3 23  0.0000000  0 11G31G27G29G26G13G 7G10G28G 8G19G11
  21205761.185   -19533046.12349 -15198257.49947  21205760.428    21205766.705
  21190648.873   -15904919.80949 -12381938.33747  21190648.299    21190654.346
  22418936.786   -10468674.66149  -7942604.60646  22418936.374    22418942.565
  22866865.016    -9096475.98249  -7068287.19245  22866864.999    22866871.758
  24482243.405    -2429326.56749  -1385429.18645  24482243.385    24482251.146
  23369694.629    -7175838.98849  -5578952.26645  23369693.507    23369702.538
  24337344.154    -3031666.75449  -2349011.28045  24337343.157    24337351.798
  20783700.245   -18317371.72249 -14258128.32847  20783699.594    20783704.348
  20201005.172   -24087480.30949 -18760480.53048  20201004.416    20201010.148
  23375709.120   -10212393.12149  -7946128.37746  23375707.844    23375712.766
  24537508.583    -1387584.55349  -1070946.55744  24537508.416    24537515.736
 04  7 20  3 23 30.0000000  0 11G31G27G29G26G13G 7G10G28G 8G19G11
  21190172.542   -19614964.32749 -15262089.82847  21190171.799    21190178.127
  21198006.370   -15866256.16749 -12351810.82947  21198005.746    21198011.729
  22405991.681   -10536701.13249  -7995612.22146  22405991.305    22405997.447
  22851505.876    -9177188.86349  -7131180.30345  22851505.801    22851512.476
  24504198.461    -2313953.17149  -1295527.92245  24504198.267    24504205.801
  23350424.343    -7277103.91949  -5657859.90845  23350423.339    23350432.228
  24350960.359    -2960114.05949  -2293256.02345  24350959.232    24350967.799
  20778538.420   -18344497.73349 -14279265.46947  20778537.748    20778542.404
  20201931.981   -24082609.95349 -18756685.45148  20201931.214    20201936.963
  23389209.634   -10141446.80849  -7890845.60046  23389208.438    23389213.482
  24526177.282    -1447132.78049  -1117347.73145  24526177.641    24526183.237
 04  7 20  3 24  0.0000000  0 11G31G27G29G26G13G 7G10G28G 8G19G11
  21174669.208   -19696434.85949 -15325573.31447  21174668.482    21174674.769
  21205422.598   -15827283.45649 -12321442.48747  21205421.992    21205427.997
  22393124.403   -10604318.92149  -8048301.38846  22393124.073    22393130.123
  22836221.078    -9257510.83149  -7193768.81946  22836220.934    22836227.544
  24526166.118    -2198511.90349  -1205573.76644  24526166.030    24526172.898
  23331182.491    -7378218.86049  -5736650.66045  23331181.669    23331190.677
  24364623.089    -2888317.77749  -2237310.93845  24364621.912    24364630.372
  20773439.926   -18371290.88149 -14300143.23247  20773439.207    20773443.779
  20202927.228   -24077379.59049 -18752609.84248  20202926.495    20202932.248
  23402789.137   -10070086.06049  -7835239.83546  23402787.977    23402793.068
  24514890.366    -1506446.27449  -1163565.96445  24514890.116    24514896.206
 04  7 20  3 24 30.0000000  0 11G31G27G29G26G13G 7G10G28G 8G19G11
  21159251.618   -19777454.94149 -15388705.79747  21159250.846    21159257.136
  21212897.675   -15788001.39849 -12290833.09847  21212897.127    21212903.123
  22380335.413   -10671525.67449  -8100670.25946  22380335.027    22380341.079
  22821011.131    -9337439.35749  -7256050.74446  22821010.993    22821017.565
  24548146.150    -2083005.06949  -1115568.41944  24548146.321    24548153.275
  23311969.746    -7479181.30949  -5815322.61045  23311969.110    23311977.993
  24378331.292    -2816280.79949  -2181178.25645  24378330.074    24378338.710
  20768404.555   -18397751.49749 -14320761.88747  20768403.883    20768408.504
  20203991.281   -24071788.07249 -18748252.82048  20203990.538    20203996.253
  23416447.085    -9998313.45049  -7779313.14246  23416445.902    23416450.934
  24503648.318    -1565522.22249  -1209599.14745  24503647.916    24503654.417
 04  7 20  3 25  0.0000000  0 11G31G27G29G26G13G 7G10G28G 8G19G11
  21143920.277   -19858021.26349 -15451484.70347  21143919.529    21143925.827
  21220431.765   -15748409.16749 -12259982.01647  21220431.221    21220437.287
  22367625.021   -10738318.59749  -8152716.65346  22367624.655    22367630.796
  22805876.606    -9416971.31049  -7318023.67546  22805876.579    22805883.080
  24570138.199    -1967434.59549  -1025513.55644  24570138.767    24570145.492
  23292786.593    -7579988.54349  -5893873.58245  23292785.940    23292794.809
  24392084.719    -2744005.92849  -2124860.23845  24392083.472    24392092.089
  20763432.512   -18423879.72649 -14341121.54147  20763431.845    20763436.501
  20205124.341   -24065834.17949 -18743613.42548  20205123.574    20205129.255
  23430182.760    -9926130.92849  -7723067.04746  23430181.713    23430186.801
  24492452.405    -1624358.01249  -1255445.14145  24492451.958    24492458.138
 04  7 20  3 25 30.0000000  0 11G31G27G29G26G13G 7G10G28G 8G19G11
  21128675.720   -19938131.87349 -15513908.50947  21128674.933    21128681.191
  21228024.924   -15708506.76349 -12228889.23647  21228024.395    21228030.517
  22354993.785   -10804695.88049  -8204439.18446  22354993.430    22354999.570
  22790818.219    -9496104.58549  -7379685.93246  22790818.075    22790824.527
  24592142.062    -1851803.28649   -935411.20345  24592142.644    24592149.686
  23273633.657    -7680638.51749  -5972302.05645  23273632.939    23273641.595
  24405882.566    -2671496.71349  -2068359.61545  24405881.400    24405890.045
  20758523.548   -18449676.45949 -14361222.88347  20758522.844    20758527.545
  20206326.145   -24059518.38949 -18738692.03248  20206325.402    20206331.065
  23443996.136    -9853541.15749  -7666503.61646  23443995.040    23444000.138
  24481302.697    -1682950.90849  -1301101.87645  24481302.187    24481308.100
 04  7 20  3 26  0.0000000  0 11G31G27G29G26G13G 7G10G28G 8G19G11
  21113518.248   -20017784.50449 -15575975.44847  21113517.466    21113523.735
  21235677.067   -15668294.26549 -12197554.83247  21235676.557    21235682.690
  22342442.023   -10870655.69349  -8255836.40946  22342441.680    22342447.855
  22775835.964    -9574837.09649  -7441035.91446  22775835.817    22775842.153
  24614157.280    -1736113.64049   -845263.43245  24614157.713    24614164.822
  23254511.306    -7781129.21649  -6050606.38345  23254510.117    23254518.627
  24419724.347    -2598756.40649  -2011678.93645  24419723.347    24419731.979
  20753677.486   -18475142.43849 -14381066.49747  20753676.789    20753681.539
  20207597.073   -24052839.72849 -18733487.88648  20207596.312    20207601.929
  23457886.623    -9780547.02549  -7609625.09246  23457885.443    23457890.553
  24470199.338    -1741298.93249  -1346567.79944  24470198.914    24470204.846
 04  7 20  3 26 30.0000000  0 11G31G27G29G26G13G 7G10G28G 8G19G11
  21098448.484   -20096976.35749 -15637683.33347  21098447.759    21098454.031
  21243388.500   -15627771.06549 -12165978.32347  21243387.889    21243393.982
  22329970.183   -10936195.53249  -8306906.38346  22329969.824    22329976.045
  22760930.310    -9653165.94649  -7502071.35946  22760930.196    22760936.591
  24636183.011    -1620368.20349   -755072.17245  24636183.295    24636190.935
  23235419.429    -7881458.20549  -6128784.71745  23235418.025    23235426.467
  24433609.929    -2525787.94549  -1954820.43045  24433608.874    24433617.451
  20748894.336   -18500277.82649 -14400652.51647  20748893.650    20748898.454
  20208937.140   -24045797.40849 -18728000.36048  20208936.404    20208942.032
  23471853.599    -9707150.46849  -7552432.98846  23471852.355    23471857.393
  24459143.530    -1799399.10049  -1391840.57745  24459142.767    24459148.385
 04  7 20  3 27  0.0000000  0 11G31G27G29G26G13G 7G10G28G 8G19G11
  21083466.984   -20175704.39049 -15699029.81247  21083466.280    21083472.543
  21251158.937   -15586936.50349 -12134159.18547  21251158.389    21251164.526
  22317578.646   -11001312.72449  -8357647.02746  22317578.342    22317584.667
  22746102.089    -9731088.27549  -7562790.01146  22746101.961    22746108.455
  24658219.018    -1504568.97649   -664839.01144  24658219.091    24658226.826
  23216358.714    -7981622.75349  -6206834.92745  23216357.291    23216365.629
  24447538.601    -2452594.01249  -1897786.26845  24447537.482    24447546.028
  20744174.127   -18525082.60149 -14419980.90547  20744173.447    20744178.222
  20210346.670   -24038390.40549 -18722228.66548  20210345.919    20210351.498
  23485896.508    -9633353.35749  -7494928.77246  23485895.394    23485900.529
  24448135.051    -1857247.97149  -1436917.53544  24448134.399    24448140.086
 04  7 20  3 27 30.0000000  0 11G31G27G29G26G13G 7G10G28G 8G19G11
  21068574.353   -20253965.58149 -15760012.51547  21068573.620    21068579.902
  21258988.976   -15545789.78049 -12102096.81547  21258988.399    21258994.513
  22305268.163   -11066004.76649  -8408056.37846  22305267.874    22305274.148
  22731351.933    -9808601.03849  -7623189.52346  22731351.783    22731358.260
  24680264.436    -1388717.65749   -574565.29044  24680265.076    24680271.590
  23197329.561    -8081619.93949  -6284754.71345  23197328.344    23197336.634
  24461509.367    -2379177.16549  -1840578.36945  24461508.210    24461517.000
  20739516.889   -18549556.89549 -14439051.78347  20739516.202    20739520.928
  20211825.846   -24030617.56449 -18716171.90148  20211825.085    20211830.602
  23500015.264    -9559157.77949  -7437114.07546  23500014.219    23500019.445
  24437174.786    -1914842.27149  -1481796.15244  24437174.397    24437180.415
 04  7 20  3 28  0.0000000  0 11G31G27G29G26G13G 7G10G28G 8G19G11
  21053770.998   -20331757.77749 -15820629.77547  21053770.248    21053776.517
  21266878.301   -15504330.95249 -12069791.23947  21266877.737    21266883.851
  22293039.131   -11130269.51849  -8458132.80446  22293038.760    22293044.979
  22716680.095    -9885701.99049  -7683268.14146  22716679.910    22716686.391
  24702319.740    -1272817.00349   -484253.09344  24702320.299    24702326.122
  23178332.896    -8181447.92549  -6362542.70145  23178331.805    23178339.893
  24475521.965    -2305540.80049  -1783199.47345  24475520.869    24475529.539
  20734922.342   -18573701.44149 -14457865.71547  20734921.642    20734926.373
  20213374.815   -24022477.95349 -18709829.34648  20213374.002    20213379.481
  23514209.698    -9484566.27649  -7378990.83646  23514208.502    23514213.682
  24426263.567    -1972180.37049  -1526475.14244  24426263.001    24426269.303
 04  7 20  3 28 30.0000000  0 11G31G27G29G26G13G 7G10G28G 8G19G11
  21039057.304   -20409079.01349 -15880880.03847  21039056.514    21039062.720
  21274827.027   -15462560.34049 -12037242.71247  21274826.404    21274832.542
  22280891.555   -11194105.38949  -8507875.04047  22280891.210    22280897.420
  22702086.944    -9962389.24649  -7743024.41046  22702086.743    22702093.235
  24724383.588    -1156869.95949   -393904.76944  24724384.116    24724389.528
  23159368.801    -8281104.90749  -6440197.37545  23159367.604    23159375.915
  24489575.656    -2231688.71449  -1725652.40845  24489574.461    24489583.194
  20730390.398   -18597517.10249 -14476423.37148  20730389.710    20730394.375
  20214993.269   -24013972.43549 -18703201.66048  20214992.512    20214998.041
  23528478.960    -9409581.72449  -7320561.35146  23528477.634    23528482.769
  24415401.709    -2029259.40649  -1570952.27744  24415400.691    24415407.427
 04  7 20  3 29  0.0000000  0 11G31G27G29G26G13G 7G10G28G 8G19G11
  21024433.752   -20485926.01149 -15940760.77647  21024432.978    21024439.172
  21282835.271   -15420476.72749 -12004450.29347  21282834.680    21282840.801
  22268826.068   -11257509.63949  -8557280.93446  22268825.693    22268832.004
  22687573.140   -10038659.79949  -7802455.99646  22687572.970    22687579.405
  24746455.593    -1040878.20949   -303521.61544  24746456.594    24746462.752
  23140437.565    -8380587.75549  -6517716.38645  23140436.469    23140444.876
  24503669.692    -2157623.41149  -1667939.25845  24503668.514    24503677.334
  20725921.023   -18621003.81549 -14494724.71047  20725920.314    20725924.977
  20216681.828   -24005099.14949 -18696287.40548  20216681.023    20216686.608
  23542822.283    -9334206.01749  -7261827.06746  23542821.114    23542826.372
  24404589.932    -2086076.34649  -1615225.15345  24404588.914    24404595.470
 04  7 20  3 29 30.0000000  0 11G31G27G29G26G13G 7G10G28G 8G19G11
  21009900.868   -20562296.56449 -16000270.25647  21009900.089    21009906.277
  21290902.954   -15378080.26549 -11971414.09247  21290902.455    21290908.571
  22256842.901   -11320480.19549  -8606348.88546  22256842.609    22256849.096
  22673139.210   -10114511.01649  -7861560.81746  22673139.013    22673145.492
  24768536.332     -924844.58349   -213105.79244  24768536.988    24768543.740
  23121540.072    -8479894.45949  -6595098.17945  23121538.873    23121547.147
  24517803.700    -2083348.05249  -1610062.41245  24517802.628    24517811.223
  20721514.049   -18644162.24749 -14512770.24147  20721513.375    20721518.086
  20218440.406   -23995857.51349 -18689086.13048  20218439.626    20218445.257
  23557239.621    -9258441.63749  -7202789.92346  23557238.613    23557243.852
  24393828.510    -2142628.60549  -1659291.76045  24393827.505    24393833.767
 04  7 20  3 30  0.0000000  0 10G31G27G29G26G 7G10G28G 8G19G11
  20995459.180   -20638187.62049 -16059406.10947  20995458.437    20995464.615
  21299030.493   -15335370.10749 -11938133.45847  21299029.968    21299036.053
  22244942.831   -11383014.60449  -8655076.98946  22244942.607    22244949.193
  22658785.509   -10189940.22249  -7920336.78946  22658785.339    22658791.886
  23102676.246    -8579022.26249  -6672340.54345  23102675.470    23102683.651
  24531977.282    -2008865.46549  -1552024.13645  24531976.356    24531984.895
  20717169.621   -18666992.33549 -14530559.91747  20717168.932    20717173.621
  20220269.222   -23986246.89249 -18681597.33048  20220268.449    20220274.101
  23571730.937    -9182290.50349  -7143451.37446  23571729.791    23571734.892
  24383117.858    -2198913.43949  -1703149.98245  24383116.929    24383123.222
 04  7 20  3 30 30.0000000  0 10G31G27G29G26G 7G10G28G 8G19G11
  20981109.149   -20713597.67649 -16118167.14647  20981108.401    20981114.489
  21307217.568   -15292346.88949 -11904608.87747  21307217.011    21307223.121
  22233126.272   -11445111.33249  -8703464.04647  22233125.977    22233132.570
  22644512.655   -10264945.59849  -7978782.50346  22644512.420    22644518.870
  23083847.369    -8677969.54049  -6749442.25045  23083846.515    23083854.378
  24546189.578    -1934179.43249  -1493827.24845  24546188.597    24546197.314
  20712887.417   -18689495.32549 -14548094.70248  20712886.737    20712891.428
  20222168.332   -23976267.41049 -18673821.10648  20222167.495    20222173.171
  23586295.312    -9105755.75349  -7083813.91146  23586294.028    23586299.018
  24372458.077    -2254928.54649  -1746798.07445  24372457.171    24372463.917
 04  7 20  3 31  0.0000000  0 10G31G27G29G26G 7G10G28G 8G19G11
  20966851.188   -20788523.71949 -16176551.03547  20966850.412    20966856.448
  21315464.236   -15249009.82549 -11870839.73247  21315463.761    21315469.903
  22221393.387   -11506767.66949  -8751507.93546  22221393.120    22221399.706
  22630320.879   -10339524.30849  -8036895.76346  22630320.715    22630326.853
  23065053.038    -8776733.60049  -6826401.15345  23065052.176    23065060.155
  24560440.176    -1859292.68249  -1435473.99545  24560439.241    24560447.815
  20708667.474   -18711671.23949 -14565374.63348  20708666.808    20708671.522
  20224137.737   -23965917.96049 -18665756.59448  20224136.901    20224142.606
  23600931.656    -9028839.44249  -7023879.16746  23600930.566    23600935.725
  24361850.201    -2310670.76649  -1790233.52244  24361849.582    24361856.576
 04  7 20  3 31 30.0000000  0 10G31G27G29G26G 7G10G28G 8G19G11
  20952685.767   -20862963.27249 -16234555.84347  20952684.988    20952690.986
  21323770.828   -15205358.65349 -11836825.83547  21323770.321    21323776.420
  22209744.669   -11567981.65949  -8799207.14646  22209744.424    22209750.984
  22616210.661   -10413673.80349  -8094674.54746  22616210.464    22616216.545
  23046294.391    -8875312.16049  -6903215.51445  23046293.373    23046301.308
  24574728.626    -1784208.13349  -1376966.57845  24574727.480    24574736.038
  20704509.679   -18733520.66549 -14582400.16348  20704508.977    20704513.730
  20226177.762   -23955197.21149 -18657402.76248  20226176.929    20226182.680
  23615640.336    -8951544.08849  -6963649.06746  23615639.323    23615644.660
  24351295.623    -2366137.53049  -1833454.29645  24351294.889    24351301.745
 04  7 20  3 32  0.0000000  0 10G31G27G29G26G 7G10G28G 8G19G11
  20938613.231   -20936914.59449 -16292180.21747  20938612.470    20938618.450
  21332137.078   -15161393.65249 -11802567.39047  21332136.609    21332142.652
  22198180.682   -11628751.76249  -8846560.46246  22198180.379    22198186.737
  22602182.357   -10487392.22249  -8152117.42746  22602182.195    22602188.336
  23027570.943    -8973703.54749  -6979884.03346  23027570.055    23027577.924
  24589053.800    -1708929.61249  -1318308.06845  24589052.643    24589061.352
  20700413.777   -18755044.66049 -14599172.10248  20700413.082    20700417.845
  20228288.356   -23944105.70949 -18648760.02848  20228287.548    20228293.293
  23630420.923    -8873872.50149  -6903125.75646  23630419.890    23630425.137
  24340793.513    -2421326.99349  -1876458.97945  24340792.879    24340799.249
 04  7 20  3 32 30.0000000  0 10G31G27G29G26G 7G10G28G 8G19G11
  20924634.263   -21010374.34849 -16349421.55447  20924633.498    20924639.464
  21340563.251   -15117113.97849 -11768063.74647  21340562.746    21340568.843
  22186701.596   -11689075.18749  -8893565.72147  22186701.256    22186707.568
  22588236.776   -10560676.39249  -8209221.94146  22588236.600    22588242.680
  23008883.842    -9071904.65949  -7056404.29546  23008883.031    23008890.758
  24603415.251    -1633459.39949  -1259500.11045  24603414.072    24603422.946
  20696379.851   -18776242.96049 -14615690.25248  20696379.185    20696383.918
  20230469.777   -23932641.95549 -18639827.22248  20230468.988    20230474.770
  23645272.982    -8795826.46349  -6842310.66546  23645271.789    23645276.843
  24330344.595    -2476235.76649  -1919244.93645  24330344.164    24330350.224
